<?xml version="1.0" encoding="UTF-8" standalone="no" ?>
<gpx xmlns="http://www.topografix.com/GPX/1/1" xmlns:xsi="http://www.w3.org/2001/XMLSchema-instance" xsi:schemaLocation="http://www.topografix.com/GPX/1/1 http://www.topografix.com/GPX/1/1/gpx.xsd" version="1.1" creator="VisuGPX - https://www.visugpx.com">
  <metadata>
    <name>athis</name>
    <desc><![CDATA[10km départ Athis sous laon]]></desc>
  </metadata>
  <trk>
    <name><![CDATA[4 Rue du Pont]]></name>
    <desc><![CDATA[]]></desc>
    <trkseg>
      <trkpt lat="49.57837" lon="3.6866">
        <ele>113.9</ele>
        <time>2015-01-05T12:52:22.993Z</time>
      </trkpt>
      <trkpt lat="49.57837" lon="3.68668">
        <ele>109.1</ele>
        <time>2015-01-05T12:52:40.515Z</time>
      </trkpt>
      <trkpt lat="49.57837" lon="3.68668">
        <ele>108.5</ele>
        <time>2015-01-05T12:52:41.519Z</time>
      </trkpt>
      <trkpt lat="49.57838" lon="3.68668">
        <ele>109.6</ele>
        <time>2015-01-05T12:52:45.614Z</time>
      </trkpt>
      <trkpt lat="49.5784" lon="3.68667">
        <ele>115.8</ele>
        <time>2015-01-05T12:52:46.630Z</time>
      </trkpt>
      <trkpt lat="49.57839" lon="3.68667">
        <ele>115.3</ele>
        <time>2015-01-05T12:52:47.633Z</time>
      </trkpt>
      <trkpt lat="49.57839" lon="3.68667">
        <ele>115.7</ele>
        <time>2015-01-05T12:52:48.640Z</time>
      </trkpt>
      <trkpt lat="49.57839" lon="3.68668">
        <ele>115.8</ele>
        <time>2015-01-05T12:52:53.607Z</time>
      </trkpt>
      <trkpt lat="49.57841" lon="3.68668">
        <ele>115.5</ele>
        <time>2015-01-05T12:52:54.619Z</time>
      </trkpt>
      <trkpt lat="49.57842" lon="3.68668">
        <ele>115.6</ele>
        <time>2015-01-05T12:52:55.632Z</time>
      </trkpt>
      <trkpt lat="49.57842" lon="3.68668">
        <ele>115.8</ele>
        <time>2015-01-05T12:52:56.980Z</time>
      </trkpt>
      <trkpt lat="49.57842" lon="3.68669">
        <ele>116.5</ele>
        <time>2015-01-05T12:52:57.612Z</time>
      </trkpt>
      <trkpt lat="49.57838" lon="3.68663">
        <ele>112.4</ele>
        <time>2015-01-05T12:54:53.674Z</time>
      </trkpt>
      <trkpt lat="49.57838" lon="3.68663">
        <ele>112.3</ele>
        <time>2015-01-05T12:54:54.689Z</time>
      </trkpt>
      <trkpt lat="49.57838" lon="3.68664">
        <ele>112.1</ele>
        <time>2015-01-05T12:57:16.672Z</time>
      </trkpt>
      <trkpt lat="49.57841" lon="3.68667">
        <ele>111.8</ele>
        <time>2015-01-05T12:57:17.682Z</time>
      </trkpt>
      <trkpt lat="49.57841" lon="3.68667">
        <ele>111.6</ele>
        <time>2015-01-05T12:57:18.597Z</time>
      </trkpt>
      <trkpt lat="49.57841" lon="3.68667">
        <ele>111.6</ele>
        <time>2015-01-05T12:57:22.602Z</time>
      </trkpt>
      <trkpt lat="49.57841" lon="3.68668">
        <ele>112.1</ele>
        <time>2015-01-05T12:57:23.607Z</time>
      </trkpt>
      <trkpt lat="49.57842" lon="3.68674">
        <ele>113.1</ele>
        <time>2015-01-05T12:57:27.650Z</time>
      </trkpt>
      <trkpt lat="49.57842" lon="3.68674">
        <ele>113.3</ele>
        <time>2015-01-05T12:57:28.652Z</time>
      </trkpt>
      <trkpt lat="49.57841" lon="3.68674">
        <ele>113.6</ele>
        <time>2015-01-05T12:59:22.618Z</time>
      </trkpt>
      <trkpt lat="49.5784" lon="3.68672">
        <ele>113.3</ele>
        <time>2015-01-05T12:59:23.629Z</time>
      </trkpt>
      <trkpt lat="49.57832" lon="3.68667">
        <ele>112.1</ele>
        <time>2015-01-05T13:03:18.597Z</time>
      </trkpt>
      <trkpt lat="49.57832" lon="3.68666">
        <ele>112.2</ele>
        <time>2015-01-05T13:03:19.610Z</time>
      </trkpt>
      <trkpt lat="49.57831" lon="3.68659">
        <ele>111.6</ele>
        <time>2015-01-05T13:03:25.678Z</time>
      </trkpt>
      <trkpt lat="49.57831" lon="3.68659">
        <ele>111.5</ele>
        <time>2015-01-05T13:03:26.688Z</time>
      </trkpt>
      <trkpt lat="49.57831" lon="3.68659">
        <ele>111.7</ele>
        <time>2015-01-05T13:03:48.659Z</time>
      </trkpt>
      <trkpt lat="49.57834" lon="3.6866">
        <ele>111</ele>
        <time>2015-01-05T13:03:49.670Z</time>
      </trkpt>
      <trkpt lat="49.57839" lon="3.68669">
        <ele>111.2</ele>
        <time>2015-01-05T13:04:07.613Z</time>
      </trkpt>
      <trkpt lat="49.57842" lon="3.68672">
        <ele>112.3</ele>
        <time>2015-01-05T13:04:08.633Z</time>
      </trkpt>
      <trkpt lat="49.57849" lon="3.68678">
        <ele>111.7</ele>
        <time>2015-01-05T13:04:18.606Z</time>
      </trkpt>
      <trkpt lat="49.5785" lon="3.6868">
        <ele>111.7</ele>
        <time>2015-01-05T13:04:19.617Z</time>
      </trkpt>
      <trkpt lat="49.57856" lon="3.68688">
        <ele>111.6</ele>
        <time>2015-01-05T13:04:26.645Z</time>
      </trkpt>
      <trkpt lat="49.57857" lon="3.68689">
        <ele>111.5</ele>
        <time>2015-01-05T13:04:27.640Z</time>
      </trkpt>
      <trkpt lat="49.57862" lon="3.68698">
        <ele>111.5</ele>
        <time>2015-01-05T13:04:34.685Z</time>
      </trkpt>
      <trkpt lat="49.57863" lon="3.68699">
        <ele>111.5</ele>
        <time>2015-01-05T13:04:35.686Z</time>
      </trkpt>
      <trkpt lat="49.57869" lon="3.6871">
        <ele>111.7</ele>
        <time>2015-01-05T13:04:44.685Z</time>
      </trkpt>
      <trkpt lat="49.5787" lon="3.68711">
        <ele>111.7</ele>
        <time>2015-01-05T13:04:45.598Z</time>
      </trkpt>
      <trkpt lat="49.57875" lon="3.68721">
        <ele>111.5</ele>
        <time>2015-01-05T13:04:52.645Z</time>
      </trkpt>
      <trkpt lat="49.57875" lon="3.68724">
        <ele>111.5</ele>
        <time>2015-01-05T13:04:53.659Z</time>
      </trkpt>
      <trkpt lat="49.57879" lon="3.68736">
        <ele>111.3</ele>
        <time>2015-01-05T13:05:00.610Z</time>
      </trkpt>
      <trkpt lat="49.57879" lon="3.68738">
        <ele>111.3</ele>
        <time>2015-01-05T13:05:01.626Z</time>
      </trkpt>
      <trkpt lat="49.57883" lon="3.68749">
        <ele>111.4</ele>
        <time>2015-01-05T13:05:07.682Z</time>
      </trkpt>
      <trkpt lat="49.57884" lon="3.68752">
        <ele>111.5</ele>
        <time>2015-01-05T13:05:08.692Z</time>
      </trkpt>
      <trkpt lat="49.57888" lon="3.68763">
        <ele>111.8</ele>
        <time>2015-01-05T13:05:13.637Z</time>
      </trkpt>
      <trkpt lat="49.57889" lon="3.68764">
        <ele>111.8</ele>
        <time>2015-01-05T13:05:14.738Z</time>
      </trkpt>
      <trkpt lat="49.57893" lon="3.68774">
        <ele>112.1</ele>
        <time>2015-01-05T13:05:22.599Z</time>
      </trkpt>
      <trkpt lat="49.57895" lon="3.68775">
        <ele>112</ele>
        <time>2015-01-05T13:05:23.598Z</time>
      </trkpt>
      <trkpt lat="49.57902" lon="3.68781">
        <ele>112.1</ele>
        <time>2015-01-05T13:05:26.642Z</time>
      </trkpt>
      <trkpt lat="49.57904" lon="3.68784">
        <ele>112</ele>
        <time>2015-01-05T13:05:27.656Z</time>
      </trkpt>
      <trkpt lat="49.5791" lon="3.68791">
        <ele>111.9</ele>
        <time>2015-01-05T13:05:30.602Z</time>
      </trkpt>
      <trkpt lat="49.57911" lon="3.68793">
        <ele>111.9</ele>
        <time>2015-01-05T13:05:31.608Z</time>
      </trkpt>
      <trkpt lat="49.57917" lon="3.68803">
        <ele>112</ele>
        <time>2015-01-05T13:05:37.618Z</time>
      </trkpt>
      <trkpt lat="49.57917" lon="3.68804">
        <ele>112.1</ele>
        <time>2015-01-05T13:05:38.636Z</time>
      </trkpt>
      <trkpt lat="49.57918" lon="3.68803">
        <ele>112.3</ele>
        <time>2015-01-05T13:05:40.676Z</time>
      </trkpt>
      <trkpt lat="49.57918" lon="3.68803">
        <ele>112.3</ele>
        <time>2015-01-05T13:05:41.638Z</time>
      </trkpt>
      <trkpt lat="49.57918" lon="3.68805">
        <ele>112.4</ele>
        <time>2015-01-05T13:05:42.580Z</time>
      </trkpt>
      <trkpt lat="49.57924" lon="3.68813">
        <ele>112.6</ele>
        <time>2015-01-05T13:05:46.593Z</time>
      </trkpt>
      <trkpt lat="49.57926" lon="3.68814">
        <ele>112.7</ele>
        <time>2015-01-05T13:05:47.592Z</time>
      </trkpt>
      <trkpt lat="49.57934" lon="3.68818">
        <ele>113.2</ele>
        <time>2015-01-05T13:05:52.664Z</time>
      </trkpt>
      <trkpt lat="49.57935" lon="3.68818">
        <ele>113.3</ele>
        <time>2015-01-05T13:05:53.596Z</time>
      </trkpt>
      <trkpt lat="49.57942" lon="3.68815">
        <ele>113.7</ele>
        <time>2015-01-05T13:06:01.600Z</time>
      </trkpt>
      <trkpt lat="49.57943" lon="3.68815">
        <ele>113.6</ele>
        <time>2015-01-05T13:06:02.703Z</time>
      </trkpt>
      <trkpt lat="49.57951" lon="3.6881">
        <ele>112.7</ele>
        <time>2015-01-05T13:06:07.626Z</time>
      </trkpt>
      <trkpt lat="49.57952" lon="3.6881">
        <ele>112.5</ele>
        <time>2015-01-05T13:06:08.655Z</time>
      </trkpt>
      <trkpt lat="49.57959" lon="3.68807">
        <ele>112.2</ele>
        <time>2015-01-05T13:06:14.684Z</time>
      </trkpt>
      <trkpt lat="49.5796" lon="3.68806">
        <ele>112.3</ele>
        <time>2015-01-05T13:06:15.594Z</time>
      </trkpt>
      <trkpt lat="49.57968" lon="3.68803">
        <ele>112.5</ele>
        <time>2015-01-05T13:06:22.639Z</time>
      </trkpt>
      <trkpt lat="49.57969" lon="3.68803">
        <ele>112.5</ele>
        <time>2015-01-05T13:06:23.659Z</time>
      </trkpt>
      <trkpt lat="49.57978" lon="3.688">
        <ele>112.5</ele>
        <time>2015-01-05T13:06:29.595Z</time>
      </trkpt>
      <trkpt lat="49.5798" lon="3.688">
        <ele>112.3</ele>
        <time>2015-01-05T13:06:30.604Z</time>
      </trkpt>
      <trkpt lat="49.57986" lon="3.68793">
        <ele>112.2</ele>
        <time>2015-01-05T13:06:35.662Z</time>
      </trkpt>
      <trkpt lat="49.57987" lon="3.68793">
        <ele>112.2</ele>
        <time>2015-01-05T13:06:36.663Z</time>
      </trkpt>
      <trkpt lat="49.57995" lon="3.68791">
        <ele>111.5</ele>
        <time>2015-01-05T13:06:43.621Z</time>
      </trkpt>
      <trkpt lat="49.57996" lon="3.68791">
        <ele>111.4</ele>
        <time>2015-01-05T13:06:44.634Z</time>
      </trkpt>
      <trkpt lat="49.58004" lon="3.68787">
        <ele>110.9</ele>
        <time>2015-01-05T13:06:51.582Z</time>
      </trkpt>
      <trkpt lat="49.58005" lon="3.68785">
        <ele>110.9</ele>
        <time>2015-01-05T13:06:52.622Z</time>
      </trkpt>
      <trkpt lat="49.58014" lon="3.68783">
        <ele>110.8</ele>
        <time>2015-01-05T13:07:02.637Z</time>
      </trkpt>
      <trkpt lat="49.58016" lon="3.68783">
        <ele>110.7</ele>
        <time>2015-01-05T13:07:03.646Z</time>
      </trkpt>
      <trkpt lat="49.58024" lon="3.6878">
        <ele>110.8</ele>
        <time>2015-01-05T13:07:08.693Z</time>
      </trkpt>
      <trkpt lat="49.58025" lon="3.68779">
        <ele>110.9</ele>
        <time>2015-01-05T13:07:09.594Z</time>
      </trkpt>
      <trkpt lat="49.58034" lon="3.68778">
        <ele>110.9</ele>
        <time>2015-01-05T13:07:14.939Z</time>
      </trkpt>
      <trkpt lat="49.58035" lon="3.68777">
        <ele>110.9</ele>
        <time>2015-01-05T13:07:15.633Z</time>
      </trkpt>
      <trkpt lat="49.58043" lon="3.68774">
        <ele>111</ele>
        <time>2015-01-05T13:07:22.576Z</time>
      </trkpt>
      <trkpt lat="49.58044" lon="3.68773">
        <ele>110.9</ele>
        <time>2015-01-05T13:07:23.593Z</time>
      </trkpt>
      <trkpt lat="49.58051" lon="3.68767">
        <ele>110</ele>
        <time>2015-01-05T13:07:29.637Z</time>
      </trkpt>
      <trkpt lat="49.58052" lon="3.68765">
        <ele>109.8</ele>
        <time>2015-01-05T13:07:30.652Z</time>
      </trkpt>
      <trkpt lat="49.5806" lon="3.68763">
        <ele>109.4</ele>
        <time>2015-01-05T13:07:35.594Z</time>
      </trkpt>
      <trkpt lat="49.58061" lon="3.68763">
        <ele>109.4</ele>
        <time>2015-01-05T13:07:36.594Z</time>
      </trkpt>
      <trkpt lat="49.58069" lon="3.68757">
        <ele>109</ele>
        <time>2015-01-05T13:07:43.653Z</time>
      </trkpt>
      <trkpt lat="49.5807" lon="3.68755">
        <ele>109</ele>
        <time>2015-01-05T13:07:44.658Z</time>
      </trkpt>
      <trkpt lat="49.58078" lon="3.68748">
        <ele>109.6</ele>
        <time>2015-01-05T13:07:51.655Z</time>
      </trkpt>
      <trkpt lat="49.58078" lon="3.68747">
        <ele>109.5</ele>
        <time>2015-01-05T13:07:52.664Z</time>
      </trkpt>
      <trkpt lat="49.58086" lon="3.68742">
        <ele>109.7</ele>
        <time>2015-01-05T13:08:00.647Z</time>
      </trkpt>
      <trkpt lat="49.58087" lon="3.68742">
        <ele>109.8</ele>
        <time>2015-01-05T13:08:01.651Z</time>
      </trkpt>
      <trkpt lat="49.58096" lon="3.68739">
        <ele>109.7</ele>
        <time>2015-01-05T13:08:08.634Z</time>
      </trkpt>
      <trkpt lat="49.58097" lon="3.68739">
        <ele>109.7</ele>
        <time>2015-01-05T13:08:09.635Z</time>
      </trkpt>
      <trkpt lat="49.58105" lon="3.68736">
        <ele>110.1</ele>
        <time>2015-01-05T13:08:17.067Z</time>
      </trkpt>
      <trkpt lat="49.58106" lon="3.68735">
        <ele>110</ele>
        <time>2015-01-05T13:08:17.606Z</time>
      </trkpt>
      <trkpt lat="49.58113" lon="3.68728">
        <ele>110.1</ele>
        <time>2015-01-05T13:08:23.674Z</time>
      </trkpt>
      <trkpt lat="49.58113" lon="3.68726">
        <ele>110.2</ele>
        <time>2015-01-05T13:08:24.682Z</time>
      </trkpt>
      <trkpt lat="49.58122" lon="3.68722">
        <ele>110.3</ele>
        <time>2015-01-05T13:08:31.619Z</time>
      </trkpt>
      <trkpt lat="49.58123" lon="3.68722">
        <ele>110.3</ele>
        <time>2015-01-05T13:08:32.649Z</time>
      </trkpt>
      <trkpt lat="49.58131" lon="3.6872">
        <ele>110.8</ele>
        <time>2015-01-05T13:08:37.688Z</time>
      </trkpt>
      <trkpt lat="49.58132" lon="3.68719">
        <ele>110.8</ele>
        <time>2015-01-05T13:08:38.693Z</time>
      </trkpt>
      <trkpt lat="49.58139" lon="3.68714">
        <ele>110.5</ele>
        <time>2015-01-05T13:08:44.646Z</time>
      </trkpt>
      <trkpt lat="49.5814" lon="3.68713">
        <ele>110.4</ele>
        <time>2015-01-05T13:08:45.643Z</time>
      </trkpt>
      <trkpt lat="49.58148" lon="3.6871">
        <ele>110.6</ele>
        <time>2015-01-05T13:08:52.599Z</time>
      </trkpt>
      <trkpt lat="49.58149" lon="3.68709">
        <ele>110.7</ele>
        <time>2015-01-05T13:08:53.603Z</time>
      </trkpt>
      <trkpt lat="49.58156" lon="3.68701">
        <ele>111.2</ele>
        <time>2015-01-05T13:09:03.655Z</time>
      </trkpt>
      <trkpt lat="49.58157" lon="3.68701">
        <ele>111.2</ele>
        <time>2015-01-05T13:09:04.666Z</time>
      </trkpt>
      <trkpt lat="49.58165" lon="3.68701">
        <ele>111.6</ele>
        <time>2015-01-05T13:09:10.611Z</time>
      </trkpt>
      <trkpt lat="49.58167" lon="3.687">
        <ele>111.7</ele>
        <time>2015-01-05T13:09:11.619Z</time>
      </trkpt>
      <trkpt lat="49.58175" lon="3.68701">
        <ele>111.9</ele>
        <time>2015-01-05T13:09:18.695Z</time>
      </trkpt>
      <trkpt lat="49.58176" lon="3.68701">
        <ele>111.9</ele>
        <time>2015-01-05T13:09:19.704Z</time>
      </trkpt>
      <trkpt lat="49.58184" lon="3.68704">
        <ele>112.3</ele>
        <time>2015-01-05T13:09:25.460Z</time>
      </trkpt>
      <trkpt lat="49.58185" lon="3.68703">
        <ele>112.3</ele>
        <time>2015-01-05T13:09:26.497Z</time>
      </trkpt>
      <trkpt lat="49.58193" lon="3.68705">
        <ele>112</ele>
        <time>2015-01-05T13:09:36.443Z</time>
      </trkpt>
      <trkpt lat="49.58195" lon="3.68706">
        <ele>112</ele>
        <time>2015-01-05T13:09:37.452Z</time>
      </trkpt>
      <trkpt lat="49.58203" lon="3.68709">
        <ele>111.4</ele>
        <time>2015-01-05T13:09:45.533Z</time>
      </trkpt>
      <trkpt lat="49.58204" lon="3.68709">
        <ele>111.4</ele>
        <time>2015-01-05T13:09:46.450Z</time>
      </trkpt>
      <trkpt lat="49.58213" lon="3.68709">
        <ele>111.9</ele>
        <time>2015-01-05T13:09:52.510Z</time>
      </trkpt>
      <trkpt lat="49.58213" lon="3.68709">
        <ele>111.8</ele>
        <time>2015-01-05T13:09:53.519Z</time>
      </trkpt>
      <trkpt lat="49.58222" lon="3.68708">
        <ele>111.4</ele>
        <time>2015-01-05T13:10:00.453Z</time>
      </trkpt>
      <trkpt lat="49.58223" lon="3.68709">
        <ele>111.3</ele>
        <time>2015-01-05T13:10:01.472Z</time>
      </trkpt>
      <trkpt lat="49.58231" lon="3.68709">
        <ele>111.7</ele>
        <time>2015-01-05T13:10:07.472Z</time>
      </trkpt>
      <trkpt lat="49.58232" lon="3.68709">
        <ele>111.8</ele>
        <time>2015-01-05T13:10:08.513Z</time>
      </trkpt>
      <trkpt lat="49.5824" lon="3.68712">
        <ele>111.5</ele>
        <time>2015-01-05T13:10:13.569Z</time>
      </trkpt>
      <trkpt lat="49.58241" lon="3.68712">
        <ele>111.4</ele>
        <time>2015-01-05T13:10:14.500Z</time>
      </trkpt>
      <trkpt lat="49.58249" lon="3.68712">
        <ele>111.6</ele>
        <time>2015-01-05T13:10:21.449Z</time>
      </trkpt>
      <trkpt lat="49.5825" lon="3.68713">
        <ele>111.6</ele>
        <time>2015-01-05T13:10:22.445Z</time>
      </trkpt>
      <trkpt lat="49.58259" lon="3.68712">
        <ele>111.9</ele>
        <time>2015-01-05T13:10:31.474Z</time>
      </trkpt>
      <trkpt lat="49.5826" lon="3.68712">
        <ele>112</ele>
        <time>2015-01-05T13:10:32.508Z</time>
      </trkpt>
      <trkpt lat="49.58268" lon="3.68712">
        <ele>113.4</ele>
        <time>2015-01-05T13:10:42.455Z</time>
      </trkpt>
      <trkpt lat="49.5827" lon="3.68712">
        <ele>113.6</ele>
        <time>2015-01-05T13:10:43.466Z</time>
      </trkpt>
      <trkpt lat="49.58278" lon="3.68714">
        <ele>113.8</ele>
        <time>2015-01-05T13:10:52.504Z</time>
      </trkpt>
      <trkpt lat="49.58279" lon="3.68714">
        <ele>113.6</ele>
        <time>2015-01-05T13:10:53.509Z</time>
      </trkpt>
      <trkpt lat="49.58287" lon="3.68716">
        <ele>114.1</ele>
        <time>2015-01-05T13:10:59.453Z</time>
      </trkpt>
      <trkpt lat="49.58288" lon="3.68717">
        <ele>114</ele>
        <time>2015-01-05T13:11:00.451Z</time>
      </trkpt>
      <trkpt lat="49.58297" lon="3.6872">
        <ele>113.5</ele>
        <time>2015-01-05T13:11:06.624Z</time>
      </trkpt>
      <trkpt lat="49.58298" lon="3.6872">
        <ele>113.5</ele>
        <time>2015-01-05T13:11:07.453Z</time>
      </trkpt>
      <trkpt lat="49.58305" lon="3.68723">
        <ele>113.5</ele>
        <time>2015-01-05T13:11:12.511Z</time>
      </trkpt>
      <trkpt lat="49.58307" lon="3.68723">
        <ele>113.5</ele>
        <time>2015-01-05T13:11:13.515Z</time>
      </trkpt>
      <trkpt lat="49.58315" lon="3.68723">
        <ele>114.3</ele>
        <time>2015-01-05T13:11:20.491Z</time>
      </trkpt>
      <trkpt lat="49.58316" lon="3.68723">
        <ele>114.3</ele>
        <time>2015-01-05T13:11:21.493Z</time>
      </trkpt>
      <trkpt lat="49.58324" lon="3.68726">
        <ele>114.3</ele>
        <time>2015-01-05T13:11:28.437Z</time>
      </trkpt>
      <trkpt lat="49.58325" lon="3.68726">
        <ele>114.4</ele>
        <time>2015-01-05T13:11:29.457Z</time>
      </trkpt>
      <trkpt lat="49.58333" lon="3.68728">
        <ele>114.3</ele>
        <time>2015-01-05T13:11:37.516Z</time>
      </trkpt>
      <trkpt lat="49.58334" lon="3.68727">
        <ele>114.4</ele>
        <time>2015-01-05T13:11:38.527Z</time>
      </trkpt>
      <trkpt lat="49.58342" lon="3.68727">
        <ele>115.1</ele>
        <time>2015-01-05T13:11:46.502Z</time>
      </trkpt>
      <trkpt lat="49.58343" lon="3.68728">
        <ele>115.1</ele>
        <time>2015-01-05T13:11:47.512Z</time>
      </trkpt>
      <trkpt lat="49.5835" lon="3.68731">
        <ele>114.8</ele>
        <time>2015-01-05T13:11:58.528Z</time>
      </trkpt>
      <trkpt lat="49.58351" lon="3.68731">
        <ele>114.7</ele>
        <time>2015-01-05T13:11:59.531Z</time>
      </trkpt>
      <trkpt lat="49.5836" lon="3.68733">
        <ele>114.3</ele>
        <time>2015-01-05T13:12:06.837Z</time>
      </trkpt>
      <trkpt lat="49.58361" lon="3.68733">
        <ele>114.3</ele>
        <time>2015-01-05T13:12:07.529Z</time>
      </trkpt>
      <trkpt lat="49.58369" lon="3.68734">
        <ele>114.1</ele>
        <time>2015-01-05T13:12:15.504Z</time>
      </trkpt>
      <trkpt lat="49.58371" lon="3.68734">
        <ele>114.2</ele>
        <time>2015-01-05T13:12:16.511Z</time>
      </trkpt>
      <trkpt lat="49.58379" lon="3.68737">
        <ele>113.7</ele>
        <time>2015-01-05T13:12:22.080Z</time>
      </trkpt>
      <trkpt lat="49.5838" lon="3.68737">
        <ele>113.6</ele>
        <time>2015-01-05T13:12:22.448Z</time>
      </trkpt>
      <trkpt lat="49.58389" lon="3.68737">
        <ele>113.3</ele>
        <time>2015-01-05T13:12:30.533Z</time>
      </trkpt>
      <trkpt lat="49.58391" lon="3.68737">
        <ele>113.3</ele>
        <time>2015-01-05T13:12:31.434Z</time>
      </trkpt>
      <trkpt lat="49.58398" lon="3.68738">
        <ele>114</ele>
        <time>2015-01-05T13:12:37.432Z</time>
      </trkpt>
      <trkpt lat="49.584" lon="3.68737">
        <ele>114.1</ele>
        <time>2015-01-05T13:12:38.546Z</time>
      </trkpt>
      <trkpt lat="49.58409" lon="3.68739">
        <ele>114.4</ele>
        <time>2015-01-05T13:12:46.570Z</time>
      </trkpt>
      <trkpt lat="49.5841" lon="3.6874">
        <ele>114.4</ele>
        <time>2015-01-05T13:12:47.450Z</time>
      </trkpt>
      <trkpt lat="49.58417" lon="3.68744">
        <ele>114.7</ele>
        <time>2015-01-05T13:12:55.452Z</time>
      </trkpt>
      <trkpt lat="49.58419" lon="3.68745">
        <ele>114.8</ele>
        <time>2015-01-05T13:12:56.500Z</time>
      </trkpt>
      <trkpt lat="49.58426" lon="3.68745">
        <ele>115</ele>
        <time>2015-01-05T13:13:02.505Z</time>
      </trkpt>
      <trkpt lat="49.58428" lon="3.68746">
        <ele>115.1</ele>
        <time>2015-01-05T13:13:03.504Z</time>
      </trkpt>
      <trkpt lat="49.58437" lon="3.68745">
        <ele>114.6</ele>
        <time>2015-01-05T13:13:12.477Z</time>
      </trkpt>
      <trkpt lat="49.58438" lon="3.68746">
        <ele>114.7</ele>
        <time>2015-01-05T13:13:13.488Z</time>
      </trkpt>
      <trkpt lat="49.58445" lon="3.68746">
        <ele>115.2</ele>
        <time>2015-01-05T13:13:19.433Z</time>
      </trkpt>
      <trkpt lat="49.58447" lon="3.68746">
        <ele>115.2</ele>
        <time>2015-01-05T13:13:20.505Z</time>
      </trkpt>
      <trkpt lat="49.58454" lon="3.68746">
        <ele>116.3</ele>
        <time>2015-01-05T13:13:26.490Z</time>
      </trkpt>
      <trkpt lat="49.58456" lon="3.68746">
        <ele>116.2</ele>
        <time>2015-01-05T13:13:27.494Z</time>
      </trkpt>
      <trkpt lat="49.58464" lon="3.68745">
        <ele>115.5</ele>
        <time>2015-01-05T13:13:34.437Z</time>
      </trkpt>
      <trkpt lat="49.58466" lon="3.68745">
        <ele>115.4</ele>
        <time>2015-01-05T13:13:35.454Z</time>
      </trkpt>
      <trkpt lat="49.58474" lon="3.68745">
        <ele>116.2</ele>
        <time>2015-01-05T13:13:42.436Z</time>
      </trkpt>
      <trkpt lat="49.58476" lon="3.68745">
        <ele>116.3</ele>
        <time>2015-01-05T13:13:43.437Z</time>
      </trkpt>
      <trkpt lat="49.58483" lon="3.68738">
        <ele>116.8</ele>
        <time>2015-01-05T13:13:51.513Z</time>
      </trkpt>
      <trkpt lat="49.58484" lon="3.68737">
        <ele>116.7</ele>
        <time>2015-01-05T13:13:52.501Z</time>
      </trkpt>
      <trkpt lat="49.58492" lon="3.68734">
        <ele>116.4</ele>
        <time>2015-01-05T13:13:59.457Z</time>
      </trkpt>
      <trkpt lat="49.58493" lon="3.68733">
        <ele>116.5</ele>
        <time>2015-01-05T13:14:00.463Z</time>
      </trkpt>
      <trkpt lat="49.58501" lon="3.68732">
        <ele>116.9</ele>
        <time>2015-01-05T13:14:05.502Z</time>
      </trkpt>
      <trkpt lat="49.58503" lon="3.68731">
        <ele>116.9</ele>
        <time>2015-01-05T13:14:06.446Z</time>
      </trkpt>
      <trkpt lat="49.5851" lon="3.68734">
        <ele>116.9</ele>
        <time>2015-01-05T13:14:14.499Z</time>
      </trkpt>
      <trkpt lat="49.58512" lon="3.68738">
        <ele>116.8</ele>
        <time>2015-01-05T13:14:15.505Z</time>
      </trkpt>
      <trkpt lat="49.58517" lon="3.68749">
        <ele>116.5</ele>
        <time>2015-01-05T13:14:18.444Z</time>
      </trkpt>
      <trkpt lat="49.58518" lon="3.68751">
        <ele>116.6</ele>
        <time>2015-01-05T13:14:19.447Z</time>
      </trkpt>
      <trkpt lat="49.58525" lon="3.68749">
        <ele>116.8</ele>
        <time>2015-01-05T13:14:23.508Z</time>
      </trkpt>
      <trkpt lat="49.58528" lon="3.6875">
        <ele>116.8</ele>
        <time>2015-01-05T13:14:24.413Z</time>
      </trkpt>
      <trkpt lat="49.58536" lon="3.68751">
        <ele>116.9</ele>
        <time>2015-01-05T13:14:29.393Z</time>
      </trkpt>
      <trkpt lat="49.58537" lon="3.68751">
        <ele>116.9</ele>
        <time>2015-01-05T13:14:30.402Z</time>
      </trkpt>
      <trkpt lat="49.58546" lon="3.68753">
        <ele>116.9</ele>
        <time>2015-01-05T13:14:33.479Z</time>
      </trkpt>
      <trkpt lat="49.58548" lon="3.68751">
        <ele>117</ele>
        <time>2015-01-05T13:14:34.386Z</time>
      </trkpt>
      <trkpt lat="49.58554" lon="3.68742">
        <ele>117.4</ele>
        <time>2015-01-05T13:14:40.387Z</time>
      </trkpt>
      <trkpt lat="49.58552" lon="3.68734">
        <ele>117.3</ele>
        <time>2015-01-05T13:14:41.397Z</time>
      </trkpt>
      <trkpt lat="49.58558" lon="3.68725">
        <ele>117.9</ele>
        <time>2015-01-05T13:14:55.447Z</time>
      </trkpt>
      <trkpt lat="49.58559" lon="3.68726">
        <ele>117.9</ele>
        <time>2015-01-05T13:14:56.503Z</time>
      </trkpt>
      <trkpt lat="49.58566" lon="3.6873">
        <ele>118.3</ele>
        <time>2015-01-05T13:15:01.448Z</time>
      </trkpt>
      <trkpt lat="49.58568" lon="3.68732">
        <ele>118.4</ele>
        <time>2015-01-05T13:15:02.489Z</time>
      </trkpt>
      <trkpt lat="49.58575" lon="3.68737">
        <ele>119.4</ele>
        <time>2015-01-05T13:15:08.500Z</time>
      </trkpt>
      <trkpt lat="49.58576" lon="3.68738">
        <ele>119.6</ele>
        <time>2015-01-05T13:15:09.502Z</time>
      </trkpt>
      <trkpt lat="49.58583" lon="3.68744">
        <ele>120</ele>
        <time>2015-01-05T13:15:15.445Z</time>
      </trkpt>
      <trkpt lat="49.58585" lon="3.68746">
        <ele>120.2</ele>
        <time>2015-01-05T13:15:16.462Z</time>
      </trkpt>
      <trkpt lat="49.58591" lon="3.68752">
        <ele>120.4</ele>
        <time>2015-01-05T13:15:20.511Z</time>
      </trkpt>
      <trkpt lat="49.58592" lon="3.68753">
        <ele>120.5</ele>
        <time>2015-01-05T13:15:21.537Z</time>
      </trkpt>
      <trkpt lat="49.586" lon="3.68757">
        <ele>120.6</ele>
        <time>2015-01-05T13:15:25.460Z</time>
      </trkpt>
      <trkpt lat="49.58601" lon="3.68757">
        <ele>120.7</ele>
        <time>2015-01-05T13:15:26.495Z</time>
      </trkpt>
      <trkpt lat="49.58608" lon="3.68765">
        <ele>121.2</ele>
        <time>2015-01-05T13:15:38.499Z</time>
      </trkpt>
      <trkpt lat="49.58609" lon="3.68766">
        <ele>121.3</ele>
        <time>2015-01-05T13:15:39.505Z</time>
      </trkpt>
      <trkpt lat="49.58618" lon="3.68769">
        <ele>121.3</ele>
        <time>2015-01-05T13:15:46.711Z</time>
      </trkpt>
      <trkpt lat="49.58619" lon="3.68769">
        <ele>121.3</ele>
        <time>2015-01-05T13:15:47.457Z</time>
      </trkpt>
      <trkpt lat="49.58626" lon="3.6877">
        <ele>120.9</ele>
        <time>2015-01-05T13:15:52.511Z</time>
      </trkpt>
      <trkpt lat="49.58628" lon="3.68771">
        <ele>120.8</ele>
        <time>2015-01-05T13:15:53.519Z</time>
      </trkpt>
      <trkpt lat="49.58636" lon="3.68771">
        <ele>120.7</ele>
        <time>2015-01-05T13:16:08.542Z</time>
      </trkpt>
      <trkpt lat="49.58637" lon="3.68772">
        <ele>121</ele>
        <time>2015-01-05T13:16:09.449Z</time>
      </trkpt>
      <trkpt lat="49.58641" lon="3.6877">
        <ele>122</ele>
        <time>2015-01-05T13:16:14.487Z</time>
      </trkpt>
      <trkpt lat="49.58641" lon="3.6877">
        <ele>122.2</ele>
        <time>2015-01-05T13:16:15.487Z</time>
      </trkpt>
      <trkpt lat="49.58641" lon="3.68769">
        <ele>122.4</ele>
        <time>2015-01-05T13:16:16.496Z</time>
      </trkpt>
      <trkpt lat="49.58643" lon="3.68766">
        <ele>122.5</ele>
        <time>2015-01-05T13:16:20.525Z</time>
      </trkpt>
      <trkpt lat="49.58643" lon="3.68766">
        <ele>122.4</ele>
        <time>2015-01-05T13:16:21.438Z</time>
      </trkpt>
      <trkpt lat="49.58643" lon="3.68766">
        <ele>122.4</ele>
        <time>2015-01-05T13:16:21.893Z</time>
      </trkpt>
      <trkpt lat="49.58643" lon="3.68766">
        <ele>122.3</ele>
        <time>2015-01-05T13:16:22.448Z</time>
      </trkpt>
      <trkpt lat="49.58642" lon="3.68753">
        <ele>123.3</ele>
        <time>2015-01-05T13:16:31.438Z</time>
      </trkpt>
      <trkpt lat="49.58642" lon="3.68751">
        <ele>123.3</ele>
        <time>2015-01-05T13:16:32.560Z</time>
      </trkpt>
      <trkpt lat="49.58644" lon="3.68739">
        <ele>123.8</ele>
        <time>2015-01-05T13:16:38.503Z</time>
      </trkpt>
      <trkpt lat="49.58644" lon="3.68737">
        <ele>123.8</ele>
        <time>2015-01-05T13:16:39.511Z</time>
      </trkpt>
      <trkpt lat="49.58645" lon="3.68725">
        <ele>123.9</ele>
        <time>2015-01-05T13:16:44.551Z</time>
      </trkpt>
      <trkpt lat="49.58645" lon="3.68722">
        <ele>124</ele>
        <time>2015-01-05T13:16:45.448Z</time>
      </trkpt>
      <trkpt lat="49.58649" lon="3.68711">
        <ele>123.8</ele>
        <time>2015-01-05T13:16:50.501Z</time>
      </trkpt>
      <trkpt lat="49.5865" lon="3.6871">
        <ele>123.8</ele>
        <time>2015-01-05T13:16:51.506Z</time>
      </trkpt>
      <trkpt lat="49.58657" lon="3.68703">
        <ele>123.6</ele>
        <time>2015-01-05T13:16:58.449Z</time>
      </trkpt>
      <trkpt lat="49.58658" lon="3.68702">
        <ele>123.6</ele>
        <time>2015-01-05T13:16:59.451Z</time>
      </trkpt>
      <trkpt lat="49.58664" lon="3.68694">
        <ele>123.1</ele>
        <time>2015-01-05T13:17:08.506Z</time>
      </trkpt>
      <trkpt lat="49.58665" lon="3.68693">
        <ele>123.1</ele>
        <time>2015-01-05T13:17:09.501Z</time>
      </trkpt>
      <trkpt lat="49.58671" lon="3.68683">
        <ele>122.8</ele>
        <time>2015-01-05T13:17:17.455Z</time>
      </trkpt>
      <trkpt lat="49.58672" lon="3.68682">
        <ele>122.8</ele>
        <time>2015-01-05T13:17:18.465Z</time>
      </trkpt>
      <trkpt lat="49.58675" lon="3.68669">
        <ele>122.5</ele>
        <time>2015-01-05T13:17:25.525Z</time>
      </trkpt>
      <trkpt lat="49.58676" lon="3.68667">
        <ele>122.6</ele>
        <time>2015-01-05T13:17:26.530Z</time>
      </trkpt>
      <trkpt lat="49.58684" lon="3.68661">
        <ele>122.8</ele>
        <time>2015-01-05T13:17:33.496Z</time>
      </trkpt>
      <trkpt lat="49.58685" lon="3.68661">
        <ele>122.9</ele>
        <time>2015-01-05T13:17:34.510Z</time>
      </trkpt>
      <trkpt lat="49.5869" lon="3.68652">
        <ele>123.4</ele>
        <time>2015-01-05T13:17:41.515Z</time>
      </trkpt>
      <trkpt lat="49.58691" lon="3.6865">
        <ele>123.4</ele>
        <time>2015-01-05T13:17:42.512Z</time>
      </trkpt>
      <trkpt lat="49.58696" lon="3.68639">
        <ele>123.4</ele>
        <time>2015-01-05T13:17:49.481Z</time>
      </trkpt>
      <trkpt lat="49.58697" lon="3.68638">
        <ele>123.4</ele>
        <time>2015-01-05T13:17:50.503Z</time>
      </trkpt>
      <trkpt lat="49.58704" lon="3.68631">
        <ele>123.1</ele>
        <time>2015-01-05T13:17:57.505Z</time>
      </trkpt>
      <trkpt lat="49.58705" lon="3.6863">
        <ele>123.1</ele>
        <time>2015-01-05T13:17:58.514Z</time>
      </trkpt>
      <trkpt lat="49.58711" lon="3.68624">
        <ele>123.2</ele>
        <time>2015-01-05T13:18:03.444Z</time>
      </trkpt>
      <trkpt lat="49.58713" lon="3.68623">
        <ele>123.3</ele>
        <time>2015-01-05T13:18:04.447Z</time>
      </trkpt>
      <trkpt lat="49.58722" lon="3.68621">
        <ele>123.5</ele>
        <time>2015-01-05T13:18:10.514Z</time>
      </trkpt>
      <trkpt lat="49.58723" lon="3.6862">
        <ele>123.5</ele>
        <time>2015-01-05T13:18:11.526Z</time>
      </trkpt>
      <trkpt lat="49.58728" lon="3.68611">
        <ele>123.5</ele>
        <time>2015-01-05T13:18:20.501Z</time>
      </trkpt>
      <trkpt lat="49.58729" lon="3.68609">
        <ele>123.4</ele>
        <time>2015-01-05T13:18:21.509Z</time>
      </trkpt>
      <trkpt lat="49.58733" lon="3.68597">
        <ele>122.7</ele>
        <time>2015-01-05T13:18:28.445Z</time>
      </trkpt>
      <trkpt lat="49.58733" lon="3.68595">
        <ele>122.8</ele>
        <time>2015-01-05T13:18:29.454Z</time>
      </trkpt>
      <trkpt lat="49.58739" lon="3.68584">
        <ele>122.7</ele>
        <time>2015-01-05T13:18:36.679Z</time>
      </trkpt>
      <trkpt lat="49.58739" lon="3.68582">
        <ele>122.8</ele>
        <time>2015-01-05T13:18:37.449Z</time>
      </trkpt>
      <trkpt lat="49.58746" lon="3.68574">
        <ele>122.1</ele>
        <time>2015-01-05T13:18:45.498Z</time>
      </trkpt>
      <trkpt lat="49.58747" lon="3.68574">
        <ele>122.1</ele>
        <time>2015-01-05T13:18:46.506Z</time>
      </trkpt>
      <trkpt lat="49.58754" lon="3.68566">
        <ele>120.6</ele>
        <time>2015-01-05T13:18:53.446Z</time>
      </trkpt>
      <trkpt lat="49.58755" lon="3.68565">
        <ele>120.6</ele>
        <time>2015-01-05T13:18:54.455Z</time>
      </trkpt>
      <trkpt lat="49.58763" lon="3.68562">
        <ele>119.4</ele>
        <time>2015-01-05T13:19:02.506Z</time>
      </trkpt>
      <trkpt lat="49.58764" lon="3.68561">
        <ele>119.2</ele>
        <time>2015-01-05T13:19:03.507Z</time>
      </trkpt>
      <trkpt lat="49.58769" lon="3.68551">
        <ele>119.2</ele>
        <time>2015-01-05T13:19:10.504Z</time>
      </trkpt>
      <trkpt lat="49.5877" lon="3.68551">
        <ele>119.3</ele>
        <time>2015-01-05T13:19:11.519Z</time>
      </trkpt>
      <trkpt lat="49.58777" lon="3.68543">
        <ele>119.2</ele>
        <time>2015-01-05T13:19:19.468Z</time>
      </trkpt>
      <trkpt lat="49.58778" lon="3.68541">
        <ele>119.3</ele>
        <time>2015-01-05T13:19:20.495Z</time>
      </trkpt>
      <trkpt lat="49.58783" lon="3.68532">
        <ele>119.2</ele>
        <time>2015-01-05T13:19:26.485Z</time>
      </trkpt>
      <trkpt lat="49.58783" lon="3.6853">
        <ele>119</ele>
        <time>2015-01-05T13:19:27.487Z</time>
      </trkpt>
      <trkpt lat="49.58786" lon="3.68518">
        <ele>119.2</ele>
        <time>2015-01-05T13:19:32.547Z</time>
      </trkpt>
      <trkpt lat="49.58788" lon="3.68517">
        <ele>119</ele>
        <time>2015-01-05T13:19:33.434Z</time>
      </trkpt>
      <trkpt lat="49.5879" lon="3.68505">
        <ele>118.9</ele>
        <time>2015-01-05T13:19:39.487Z</time>
      </trkpt>
      <trkpt lat="49.5879" lon="3.68502">
        <ele>118.8</ele>
        <time>2015-01-05T13:19:40.495Z</time>
      </trkpt>
      <trkpt lat="49.58794" lon="3.68491">
        <ele>118.1</ele>
        <time>2015-01-05T13:19:47.441Z</time>
      </trkpt>
      <trkpt lat="49.58794" lon="3.6849">
        <ele>118.1</ele>
        <time>2015-01-05T13:19:48.465Z</time>
      </trkpt>
      <trkpt lat="49.58799" lon="3.68479">
        <ele>117.6</ele>
        <time>2015-01-05T13:19:54.520Z</time>
      </trkpt>
      <trkpt lat="49.588" lon="3.68478">
        <ele>117.6</ele>
        <time>2015-01-05T13:19:55.441Z</time>
      </trkpt>
      <trkpt lat="49.58806" lon="3.68469">
        <ele>117.1</ele>
        <time>2015-01-05T13:20:03.474Z</time>
      </trkpt>
      <trkpt lat="49.58807" lon="3.68468">
        <ele>117</ele>
        <time>2015-01-05T13:20:04.484Z</time>
      </trkpt>
      <trkpt lat="49.58814" lon="3.6846">
        <ele>116.9</ele>
        <time>2015-01-05T13:20:15.473Z</time>
      </trkpt>
      <trkpt lat="49.58816" lon="3.6846">
        <ele>116.9</ele>
        <time>2015-01-05T13:20:16.620Z</time>
      </trkpt>
      <trkpt lat="49.5882" lon="3.68449">
        <ele>115.9</ele>
        <time>2015-01-05T13:20:23.444Z</time>
      </trkpt>
      <trkpt lat="49.58821" lon="3.68447">
        <ele>115.8</ele>
        <time>2015-01-05T13:20:24.440Z</time>
      </trkpt>
      <trkpt lat="49.58828" lon="3.68439">
        <ele>115.8</ele>
        <time>2015-01-05T13:20:31.443Z</time>
      </trkpt>
      <trkpt lat="49.58829" lon="3.68437">
        <ele>116.2</ele>
        <time>2015-01-05T13:20:32.557Z</time>
      </trkpt>
      <trkpt lat="49.58834" lon="3.68427">
        <ele>116.5</ele>
        <time>2015-01-05T13:20:37.464Z</time>
      </trkpt>
      <trkpt lat="49.58835" lon="3.68425">
        <ele>116.7</ele>
        <time>2015-01-05T13:20:38.488Z</time>
      </trkpt>
      <trkpt lat="49.58843" lon="3.68419">
        <ele>117.3</ele>
        <time>2015-01-05T13:20:44.526Z</time>
      </trkpt>
      <trkpt lat="49.58844" lon="3.68418">
        <ele>117.4</ele>
        <time>2015-01-05T13:20:45.437Z</time>
      </trkpt>
      <trkpt lat="49.58852" lon="3.68416">
        <ele>117.9</ele>
        <time>2015-01-05T13:20:51.618Z</time>
      </trkpt>
      <trkpt lat="49.58853" lon="3.68416">
        <ele>117.9</ele>
        <time>2015-01-05T13:20:52.501Z</time>
      </trkpt>
      <trkpt lat="49.58861" lon="3.68414">
        <ele>118.1</ele>
        <time>2015-01-05T13:20:58.444Z</time>
      </trkpt>
      <trkpt lat="49.58862" lon="3.68413">
        <ele>118.2</ele>
        <time>2015-01-05T13:20:59.453Z</time>
      </trkpt>
      <trkpt lat="49.58869" lon="3.68408">
        <ele>118.7</ele>
        <time>2015-01-05T13:21:06.729Z</time>
      </trkpt>
      <trkpt lat="49.5887" lon="3.68407">
        <ele>118.7</ele>
        <time>2015-01-05T13:21:07.528Z</time>
      </trkpt>
      <trkpt lat="49.58878" lon="3.68406">
        <ele>118.9</ele>
        <time>2015-01-05T13:21:14.491Z</time>
      </trkpt>
      <trkpt lat="49.5888" lon="3.68405">
        <ele>119.1</ele>
        <time>2015-01-05T13:21:15.491Z</time>
      </trkpt>
      <trkpt lat="49.58887" lon="3.68399">
        <ele>118.9</ele>
        <time>2015-01-05T13:21:24.449Z</time>
      </trkpt>
      <trkpt lat="49.58888" lon="3.68399">
        <ele>118.8</ele>
        <time>2015-01-05T13:21:25.457Z</time>
      </trkpt>
      <trkpt lat="49.58896" lon="3.68399">
        <ele>118.6</ele>
        <time>2015-01-05T13:21:33.438Z</time>
      </trkpt>
      <trkpt lat="49.58898" lon="3.68398">
        <ele>118.6</ele>
        <time>2015-01-05T13:21:34.439Z</time>
      </trkpt>
      <trkpt lat="49.58907" lon="3.68397">
        <ele>118.2</ele>
        <time>2015-01-05T13:21:40.502Z</time>
      </trkpt>
      <trkpt lat="49.58908" lon="3.68397">
        <ele>118.2</ele>
        <time>2015-01-05T13:21:41.508Z</time>
      </trkpt>
      <trkpt lat="49.58917" lon="3.68394">
        <ele>118.1</ele>
        <time>2015-01-05T13:21:49.464Z</time>
      </trkpt>
      <trkpt lat="49.58918" lon="3.68394">
        <ele>118.1</ele>
        <time>2015-01-05T13:21:50.491Z</time>
      </trkpt>
      <trkpt lat="49.58925" lon="3.68393">
        <ele>118.1</ele>
        <time>2015-01-05T13:21:56.762Z</time>
      </trkpt>
      <trkpt lat="49.58927" lon="3.68393">
        <ele>118.1</ele>
        <time>2015-01-05T13:21:57.436Z</time>
      </trkpt>
      <trkpt lat="49.58935" lon="3.68391">
        <ele>117.9</ele>
        <time>2015-01-05T13:22:05.517Z</time>
      </trkpt>
      <trkpt lat="49.58936" lon="3.68391">
        <ele>117.9</ele>
        <time>2015-01-05T13:22:06.435Z</time>
      </trkpt>
      <trkpt lat="49.58945" lon="3.68389">
        <ele>118.5</ele>
        <time>2015-01-05T13:22:15.498Z</time>
      </trkpt>
      <trkpt lat="49.58946" lon="3.68389">
        <ele>118.4</ele>
        <time>2015-01-05T13:22:16.511Z</time>
      </trkpt>
      <trkpt lat="49.58954" lon="3.68385">
        <ele>118.4</ele>
        <time>2015-01-05T13:22:23.456Z</time>
      </trkpt>
      <trkpt lat="49.58956" lon="3.68385">
        <ele>118.3</ele>
        <time>2015-01-05T13:22:24.465Z</time>
      </trkpt>
      <trkpt lat="49.58964" lon="3.68383">
        <ele>118</ele>
        <time>2015-01-05T13:22:31.458Z</time>
      </trkpt>
      <trkpt lat="49.58965" lon="3.68383">
        <ele>117.9</ele>
        <time>2015-01-05T13:22:32.556Z</time>
      </trkpt>
      <trkpt lat="49.58973" lon="3.68382">
        <ele>117.8</ele>
        <time>2015-01-05T13:22:38.496Z</time>
      </trkpt>
      <trkpt lat="49.58974" lon="3.68381">
        <ele>117.8</ele>
        <time>2015-01-05T13:22:39.492Z</time>
      </trkpt>
      <trkpt lat="49.58982" lon="3.68377">
        <ele>118.6</ele>
        <time>2015-01-05T13:22:46.607Z</time>
      </trkpt>
      <trkpt lat="49.58983" lon="3.68377">
        <ele>118.7</ele>
        <time>2015-01-05T13:22:47.446Z</time>
      </trkpt>
      <trkpt lat="49.58991" lon="3.68372">
        <ele>118.5</ele>
        <time>2015-01-05T13:22:55.448Z</time>
      </trkpt>
      <trkpt lat="49.58992" lon="3.68371">
        <ele>118.5</ele>
        <time>2015-01-05T13:22:56.499Z</time>
      </trkpt>
      <trkpt lat="49.58999" lon="3.68367">
        <ele>118.6</ele>
        <time>2015-01-05T13:23:04.454Z</time>
      </trkpt>
      <trkpt lat="49.59001" lon="3.68367">
        <ele>118.5</ele>
        <time>2015-01-05T13:23:05.460Z</time>
      </trkpt>
      <trkpt lat="49.59009" lon="3.68366">
        <ele>118</ele>
        <time>2015-01-05T13:23:12.045Z</time>
      </trkpt>
      <trkpt lat="49.59011" lon="3.68366">
        <ele>118.1</ele>
        <time>2015-01-05T13:23:12.519Z</time>
      </trkpt>
      <trkpt lat="49.59018" lon="3.6836">
        <ele>117.6</ele>
        <time>2015-01-05T13:23:20.498Z</time>
      </trkpt>
      <trkpt lat="49.59019" lon="3.68359">
        <ele>117.6</ele>
        <time>2015-01-05T13:23:21.503Z</time>
      </trkpt>
      <trkpt lat="49.59027" lon="3.68352">
        <ele>117.2</ele>
        <time>2015-01-05T13:23:29.513Z</time>
      </trkpt>
      <trkpt lat="49.59028" lon="3.68351">
        <ele>117.2</ele>
        <time>2015-01-05T13:23:30.518Z</time>
      </trkpt>
      <trkpt lat="49.59035" lon="3.68343">
        <ele>117.2</ele>
        <time>2015-01-05T13:23:38.498Z</time>
      </trkpt>
      <trkpt lat="49.59036" lon="3.68342">
        <ele>117.1</ele>
        <time>2015-01-05T13:23:39.500Z</time>
      </trkpt>
      <trkpt lat="49.59043" lon="3.68336">
        <ele>117.2</ele>
        <time>2015-01-05T13:23:46.516Z</time>
      </trkpt>
      <trkpt lat="49.59044" lon="3.68335">
        <ele>117.1</ele>
        <time>2015-01-05T13:23:47.447Z</time>
      </trkpt>
      <trkpt lat="49.5905" lon="3.68328">
        <ele>116.7</ele>
        <time>2015-01-05T13:23:54.530Z</time>
      </trkpt>
      <trkpt lat="49.59051" lon="3.68326">
        <ele>116.7</ele>
        <time>2015-01-05T13:23:55.535Z</time>
      </trkpt>
      <trkpt lat="49.59056" lon="3.68316">
        <ele>116.7</ele>
        <time>2015-01-05T13:24:02.503Z</time>
      </trkpt>
      <trkpt lat="49.59057" lon="3.68315">
        <ele>116.7</ele>
        <time>2015-01-05T13:24:03.510Z</time>
      </trkpt>
      <trkpt lat="49.59065" lon="3.68309">
        <ele>116.6</ele>
        <time>2015-01-05T13:24:10.506Z</time>
      </trkpt>
      <trkpt lat="49.59066" lon="3.68308">
        <ele>116.5</ele>
        <time>2015-01-05T13:24:11.516Z</time>
      </trkpt>
      <trkpt lat="49.59074" lon="3.68304">
        <ele>116.9</ele>
        <time>2015-01-05T13:24:20.484Z</time>
      </trkpt>
      <trkpt lat="49.59075" lon="3.68303">
        <ele>116.9</ele>
        <time>2015-01-05T13:24:21.487Z</time>
      </trkpt>
      <trkpt lat="49.5908" lon="3.68292">
        <ele>116.8</ele>
        <time>2015-01-05T13:24:29.456Z</time>
      </trkpt>
      <trkpt lat="49.59081" lon="3.68291">
        <ele>116.8</ele>
        <time>2015-01-05T13:24:30.461Z</time>
      </trkpt>
      <trkpt lat="49.59088" lon="3.68286">
        <ele>116.6</ele>
        <time>2015-01-05T13:24:36.531Z</time>
      </trkpt>
      <trkpt lat="49.5909" lon="3.68286">
        <ele>116.6</ele>
        <time>2015-01-05T13:24:37.446Z</time>
      </trkpt>
      <trkpt lat="49.59098" lon="3.68281">
        <ele>116.2</ele>
        <time>2015-01-05T13:24:46.523Z</time>
      </trkpt>
      <trkpt lat="49.59099" lon="3.6828">
        <ele>116.2</ele>
        <time>2015-01-05T13:24:46.910Z</time>
      </trkpt>
      <trkpt lat="49.59106" lon="3.68276">
        <ele>116.4</ele>
        <time>2015-01-05T13:24:53.453Z</time>
      </trkpt>
      <trkpt lat="49.59108" lon="3.68277">
        <ele>115.7</ele>
        <time>2015-01-05T13:24:54.468Z</time>
      </trkpt>
      <trkpt lat="49.59117" lon="3.68274">
        <ele>115</ele>
        <time>2015-01-05T13:25:00.425Z</time>
      </trkpt>
      <trkpt lat="49.59118" lon="3.68273">
        <ele>115</ele>
        <time>2015-01-05T13:25:01.435Z</time>
      </trkpt>
      <trkpt lat="49.59125" lon="3.68265">
        <ele>114.4</ele>
        <time>2015-01-05T13:25:10.491Z</time>
      </trkpt>
      <trkpt lat="49.59125" lon="3.68264">
        <ele>114.3</ele>
        <time>2015-01-05T13:25:11.499Z</time>
      </trkpt>
      <trkpt lat="49.59133" lon="3.68257">
        <ele>114.6</ele>
        <time>2015-01-05T13:25:19.450Z</time>
      </trkpt>
      <trkpt lat="49.59135" lon="3.68257">
        <ele>114.6</ele>
        <time>2015-01-05T13:25:20.500Z</time>
      </trkpt>
      <trkpt lat="49.59142" lon="3.6825">
        <ele>114.5</ele>
        <time>2015-01-05T13:25:27.445Z</time>
      </trkpt>
      <trkpt lat="49.59143" lon="3.6825">
        <ele>114.6</ele>
        <time>2015-01-05T13:25:28.444Z</time>
      </trkpt>
      <trkpt lat="49.59151" lon="3.68245">
        <ele>115.1</ele>
        <time>2015-01-05T13:25:34.513Z</time>
      </trkpt>
      <trkpt lat="49.59152" lon="3.68245">
        <ele>115.3</ele>
        <time>2015-01-05T13:25:35.523Z</time>
      </trkpt>
      <trkpt lat="49.59159" lon="3.68238">
        <ele>115.5</ele>
        <time>2015-01-05T13:25:42.461Z</time>
      </trkpt>
      <trkpt lat="49.5916" lon="3.68237">
        <ele>115.5</ele>
        <time>2015-01-05T13:25:43.469Z</time>
      </trkpt>
      <trkpt lat="49.59168" lon="3.68233">
        <ele>115.1</ele>
        <time>2015-01-05T13:25:50.548Z</time>
      </trkpt>
      <trkpt lat="49.59169" lon="3.68232">
        <ele>114.9</ele>
        <time>2015-01-05T13:25:51.447Z</time>
      </trkpt>
      <trkpt lat="49.59176" lon="3.68224">
        <ele>114.3</ele>
        <time>2015-01-05T13:26:01.572Z</time>
      </trkpt>
      <trkpt lat="49.59177" lon="3.68223">
        <ele>114.2</ele>
        <time>2015-01-05T13:26:02.556Z</time>
      </trkpt>
      <trkpt lat="49.59185" lon="3.68222">
        <ele>114.2</ele>
        <time>2015-01-05T13:26:09.507Z</time>
      </trkpt>
      <trkpt lat="49.59187" lon="3.68222">
        <ele>114.1</ele>
        <time>2015-01-05T13:26:10.516Z</time>
      </trkpt>
      <trkpt lat="49.59194" lon="3.68216">
        <ele>113.8</ele>
        <time>2015-01-05T13:26:17.458Z</time>
      </trkpt>
      <trkpt lat="49.59196" lon="3.68215">
        <ele>113.7</ele>
        <time>2015-01-05T13:26:18.466Z</time>
      </trkpt>
      <trkpt lat="49.59203" lon="3.68207">
        <ele>113.2</ele>
        <time>2015-01-05T13:26:26.405Z</time>
      </trkpt>
      <trkpt lat="49.59203" lon="3.68206">
        <ele>113.2</ele>
        <time>2015-01-05T13:26:26.554Z</time>
      </trkpt>
      <trkpt lat="49.59211" lon="3.68199">
        <ele>113.3</ele>
        <time>2015-01-05T13:26:33.508Z</time>
      </trkpt>
      <trkpt lat="49.59212" lon="3.68199">
        <ele>113.2</ele>
        <time>2015-01-05T13:26:34.514Z</time>
      </trkpt>
      <trkpt lat="49.5922" lon="3.68193">
        <ele>112.9</ele>
        <time>2015-01-05T13:26:40.511Z</time>
      </trkpt>
      <trkpt lat="49.59221" lon="3.68192">
        <ele>112.9</ele>
        <time>2015-01-05T13:26:41.519Z</time>
      </trkpt>
      <trkpt lat="49.59228" lon="3.68187">
        <ele>112.2</ele>
        <time>2015-01-05T13:26:47.458Z</time>
      </trkpt>
      <trkpt lat="49.59229" lon="3.68187">
        <ele>112</ele>
        <time>2015-01-05T13:26:48.470Z</time>
      </trkpt>
      <trkpt lat="49.59237" lon="3.68183">
        <ele>111.6</ele>
        <time>2015-01-05T13:26:54.530Z</time>
      </trkpt>
      <trkpt lat="49.59238" lon="3.68182">
        <ele>111.7</ele>
        <time>2015-01-05T13:26:55.536Z</time>
      </trkpt>
      <trkpt lat="49.59246" lon="3.68179">
        <ele>112.2</ele>
        <time>2015-01-05T13:27:01.859Z</time>
      </trkpt>
      <trkpt lat="49.59248" lon="3.68179">
        <ele>112</ele>
        <time>2015-01-05T13:27:02.524Z</time>
      </trkpt>
      <trkpt lat="49.59255" lon="3.68174">
        <ele>111.7</ele>
        <time>2015-01-05T13:27:10.545Z</time>
      </trkpt>
      <trkpt lat="49.59256" lon="3.68174">
        <ele>111.6</ele>
        <time>2015-01-05T13:27:11.451Z</time>
      </trkpt>
      <trkpt lat="49.59263" lon="3.68168">
        <ele>110.7</ele>
        <time>2015-01-05T13:27:19.457Z</time>
      </trkpt>
      <trkpt lat="49.59265" lon="3.68166">
        <ele>110.9</ele>
        <time>2015-01-05T13:27:20.514Z</time>
      </trkpt>
      <trkpt lat="49.59272" lon="3.68159">
        <ele>111.3</ele>
        <time>2015-01-05T13:27:29.526Z</time>
      </trkpt>
      <trkpt lat="49.59274" lon="3.68158">
        <ele>111.1</ele>
        <time>2015-01-05T13:27:30.539Z</time>
      </trkpt>
      <trkpt lat="49.59281" lon="3.68153">
        <ele>111</ele>
        <time>2015-01-05T13:27:36.454Z</time>
      </trkpt>
      <trkpt lat="49.59282" lon="3.68152">
        <ele>110.8</ele>
        <time>2015-01-05T13:27:36.540Z</time>
      </trkpt>
      <trkpt lat="49.5929" lon="3.68147">
        <ele>111</ele>
        <time>2015-01-05T13:27:42.484Z</time>
      </trkpt>
      <trkpt lat="49.5929" lon="3.68145">
        <ele>111</ele>
        <time>2015-01-05T13:27:43.491Z</time>
      </trkpt>
      <trkpt lat="49.59295" lon="3.68135">
        <ele>111.2</ele>
        <time>2015-01-05T13:27:49.453Z</time>
      </trkpt>
      <trkpt lat="49.59296" lon="3.68134">
        <ele>111.1</ele>
        <time>2015-01-05T13:27:50.508Z</time>
      </trkpt>
      <trkpt lat="49.59302" lon="3.68126">
        <ele>110.2</ele>
        <time>2015-01-05T13:27:59.535Z</time>
      </trkpt>
      <trkpt lat="49.59303" lon="3.68124">
        <ele>110.2</ele>
        <time>2015-01-05T13:28:00.446Z</time>
      </trkpt>
      <trkpt lat="49.5931" lon="3.68117">
        <ele>110.4</ele>
        <time>2015-01-05T13:28:06.608Z</time>
      </trkpt>
      <trkpt lat="49.59311" lon="3.68117">
        <ele>110.3</ele>
        <time>2015-01-05T13:28:07.459Z</time>
      </trkpt>
      <trkpt lat="49.59318" lon="3.68113">
        <ele>109.8</ele>
        <time>2015-01-05T13:28:13.539Z</time>
      </trkpt>
      <trkpt lat="49.59319" lon="3.68113">
        <ele>109.8</ele>
        <time>2015-01-05T13:28:14.544Z</time>
      </trkpt>
      <trkpt lat="49.59325" lon="3.68108">
        <ele>109.4</ele>
        <time>2015-01-05T13:28:20.501Z</time>
      </trkpt>
      <trkpt lat="49.59328" lon="3.68108">
        <ele>109.4</ele>
        <time>2015-01-05T13:28:21.507Z</time>
      </trkpt>
      <trkpt lat="49.59336" lon="3.68105">
        <ele>109.7</ele>
        <time>2015-01-05T13:28:27.449Z</time>
      </trkpt>
      <trkpt lat="49.59337" lon="3.68104">
        <ele>109.6</ele>
        <time>2015-01-05T13:28:28.446Z</time>
      </trkpt>
      <trkpt lat="49.59344" lon="3.68097">
        <ele>110.4</ele>
        <time>2015-01-05T13:28:36.527Z</time>
      </trkpt>
      <trkpt lat="49.59345" lon="3.68096">
        <ele>110.6</ele>
        <time>2015-01-05T13:28:37.532Z</time>
      </trkpt>
      <trkpt lat="49.59352" lon="3.68088">
        <ele>110.6</ele>
        <time>2015-01-05T13:28:45.505Z</time>
      </trkpt>
      <trkpt lat="49.59353" lon="3.68087">
        <ele>110.6</ele>
        <time>2015-01-05T13:28:46.521Z</time>
      </trkpt>
      <trkpt lat="49.59361" lon="3.68081">
        <ele>111.2</ele>
        <time>2015-01-05T13:28:54.534Z</time>
      </trkpt>
      <trkpt lat="49.59362" lon="3.6808">
        <ele>111.2</ele>
        <time>2015-01-05T13:28:55.433Z</time>
      </trkpt>
      <trkpt lat="49.5937" lon="3.68079">
        <ele>111.1</ele>
        <time>2015-01-05T13:29:04.447Z</time>
      </trkpt>
      <trkpt lat="49.59372" lon="3.68079">
        <ele>111.1</ele>
        <time>2015-01-05T13:29:05.449Z</time>
      </trkpt>
      <trkpt lat="49.5938" lon="3.68076">
        <ele>111.5</ele>
        <time>2015-01-05T13:29:11.645Z</time>
      </trkpt>
      <trkpt lat="49.59381" lon="3.68075">
        <ele>111.5</ele>
        <time>2015-01-05T13:29:12.530Z</time>
      </trkpt>
      <trkpt lat="49.59389" lon="3.68072">
        <ele>110.9</ele>
        <time>2015-01-05T13:29:20.513Z</time>
      </trkpt>
      <trkpt lat="49.5939" lon="3.68072">
        <ele>110.8</ele>
        <time>2015-01-05T13:29:21.514Z</time>
      </trkpt>
      <trkpt lat="49.59398" lon="3.6807">
        <ele>110</ele>
        <time>2015-01-05T13:29:29.505Z</time>
      </trkpt>
      <trkpt lat="49.59398" lon="3.6807">
        <ele>109.9</ele>
        <time>2015-01-05T13:29:30.518Z</time>
      </trkpt>
      <trkpt lat="49.59399" lon="3.68069">
        <ele>110.5</ele>
        <time>2015-01-05T13:29:37.437Z</time>
      </trkpt>
      <trkpt lat="49.594" lon="3.68067">
        <ele>111.1</ele>
        <time>2015-01-05T13:29:38.483Z</time>
      </trkpt>
      <trkpt lat="49.59406" lon="3.68057">
        <ele>109.6</ele>
        <time>2015-01-05T13:29:47.451Z</time>
      </trkpt>
      <trkpt lat="49.59406" lon="3.68056">
        <ele>109.6</ele>
        <time>2015-01-05T13:29:48.456Z</time>
      </trkpt>
      <trkpt lat="49.59415" lon="3.68052">
        <ele>108.9</ele>
        <time>2015-01-05T13:29:56.672Z</time>
      </trkpt>
      <trkpt lat="49.59416" lon="3.68051">
        <ele>108.8</ele>
        <time>2015-01-05T13:29:57.445Z</time>
      </trkpt>
      <trkpt lat="49.59422" lon="3.68042">
        <ele>109.3</ele>
        <time>2015-01-05T13:30:06.716Z</time>
      </trkpt>
      <trkpt lat="49.59423" lon="3.68041">
        <ele>109.5</ele>
        <time>2015-01-05T13:30:07.545Z</time>
      </trkpt>
      <trkpt lat="49.5943" lon="3.68035">
        <ele>109.8</ele>
        <time>2015-01-05T13:30:13.473Z</time>
      </trkpt>
      <trkpt lat="49.59432" lon="3.68035">
        <ele>109.8</ele>
        <time>2015-01-05T13:30:14.516Z</time>
      </trkpt>
      <trkpt lat="49.5944" lon="3.68033">
        <ele>109.6</ele>
        <time>2015-01-05T13:30:18.460Z</time>
      </trkpt>
      <trkpt lat="49.59441" lon="3.68031">
        <ele>109.6</ele>
        <time>2015-01-05T13:30:19.466Z</time>
      </trkpt>
      <trkpt lat="49.59448" lon="3.68025">
        <ele>109.4</ele>
        <time>2015-01-05T13:30:26.556Z</time>
      </trkpt>
      <trkpt lat="49.5945" lon="3.68024">
        <ele>109.5</ele>
        <time>2015-01-05T13:30:27.456Z</time>
      </trkpt>
      <trkpt lat="49.59457" lon="3.68016">
        <ele>109.7</ele>
        <time>2015-01-05T13:30:34.534Z</time>
      </trkpt>
      <trkpt lat="49.59458" lon="3.68015">
        <ele>109.8</ele>
        <time>2015-01-05T13:30:35.543Z</time>
      </trkpt>
      <trkpt lat="49.59466" lon="3.6801">
        <ele>110.1</ele>
        <time>2015-01-05T13:30:43.543Z</time>
      </trkpt>
      <trkpt lat="49.59467" lon="3.6801">
        <ele>110</ele>
        <time>2015-01-05T13:30:44.552Z</time>
      </trkpt>
      <trkpt lat="49.59475" lon="3.68009">
        <ele>109.6</ele>
        <time>2015-01-05T13:30:50.515Z</time>
      </trkpt>
      <trkpt lat="49.59476" lon="3.6801">
        <ele>109.6</ele>
        <time>2015-01-05T13:30:51.516Z</time>
      </trkpt>
      <trkpt lat="49.59485" lon="3.68005">
        <ele>110.6</ele>
        <time>2015-01-05T13:30:59.534Z</time>
      </trkpt>
      <trkpt lat="49.59485" lon="3.68003">
        <ele>110.6</ele>
        <time>2015-01-05T13:31:00.547Z</time>
      </trkpt>
      <trkpt lat="49.59491" lon="3.67994">
        <ele>111.3</ele>
        <time>2015-01-05T13:31:13.461Z</time>
      </trkpt>
      <trkpt lat="49.59491" lon="3.67993">
        <ele>111.3</ele>
        <time>2015-01-05T13:31:14.515Z</time>
      </trkpt>
      <trkpt lat="49.59492" lon="3.67993">
        <ele>111.3</ele>
        <time>2015-01-05T13:31:15.517Z</time>
      </trkpt>
      <trkpt lat="49.59492" lon="3.67993">
        <ele>111.2</ele>
        <time>2015-01-05T13:31:16.555Z</time>
      </trkpt>
      <trkpt lat="49.59492" lon="3.67993">
        <ele>111.2</ele>
        <time>2015-01-05T13:31:16.753Z</time>
      </trkpt>
      <trkpt lat="49.59492" lon="3.67993">
        <ele>111.1</ele>
        <time>2015-01-05T13:31:17.460Z</time>
      </trkpt>
      <trkpt lat="49.59501" lon="3.6799">
        <ele>111.3</ele>
        <time>2015-01-05T13:31:26.406Z</time>
      </trkpt>
      <trkpt lat="49.59502" lon="3.67989">
        <ele>111.3</ele>
        <time>2015-01-05T13:31:26.511Z</time>
      </trkpt>
      <trkpt lat="49.59509" lon="3.67982">
        <ele>111.6</ele>
        <time>2015-01-05T13:31:33.532Z</time>
      </trkpt>
      <trkpt lat="49.5951" lon="3.67982">
        <ele>111.7</ele>
        <time>2015-01-05T13:31:34.536Z</time>
      </trkpt>
      <trkpt lat="49.59518" lon="3.6798">
        <ele>111.5</ele>
        <time>2015-01-05T13:31:41.530Z</time>
      </trkpt>
      <trkpt lat="49.59519" lon="3.6798">
        <ele>111.5</ele>
        <time>2015-01-05T13:31:42.442Z</time>
      </trkpt>
      <trkpt lat="49.59527" lon="3.67978">
        <ele>110.9</ele>
        <time>2015-01-05T13:31:47.540Z</time>
      </trkpt>
      <trkpt lat="49.59529" lon="3.67979">
        <ele>110.8</ele>
        <time>2015-01-05T13:31:48.457Z</time>
      </trkpt>
      <trkpt lat="49.59537" lon="3.67978">
        <ele>110.7</ele>
        <time>2015-01-05T13:31:54.458Z</time>
      </trkpt>
      <trkpt lat="49.59539" lon="3.67978">
        <ele>110.8</ele>
        <time>2015-01-05T13:31:55.462Z</time>
      </trkpt>
      <trkpt lat="49.59546" lon="3.67975">
        <ele>110.9</ele>
        <time>2015-01-05T13:32:02.524Z</time>
      </trkpt>
      <trkpt lat="49.59547" lon="3.67974">
        <ele>110.9</ele>
        <time>2015-01-05T13:32:03.527Z</time>
      </trkpt>
      <trkpt lat="49.59555" lon="3.67968">
        <ele>112.1</ele>
        <time>2015-01-05T13:32:10.529Z</time>
      </trkpt>
      <trkpt lat="49.59556" lon="3.67968">
        <ele>112.1</ele>
        <time>2015-01-05T13:32:11.533Z</time>
      </trkpt>
      <trkpt lat="49.59564" lon="3.67961">
        <ele>112.5</ele>
        <time>2015-01-05T13:32:20.516Z</time>
      </trkpt>
      <trkpt lat="49.59565" lon="3.67961">
        <ele>112.6</ele>
        <time>2015-01-05T13:32:21.527Z</time>
      </trkpt>
      <trkpt lat="49.59572" lon="3.67956">
        <ele>112.6</ele>
        <time>2015-01-05T13:32:30.456Z</time>
      </trkpt>
      <trkpt lat="49.59573" lon="3.67956">
        <ele>112.5</ele>
        <time>2015-01-05T13:32:31.460Z</time>
      </trkpt>
      <trkpt lat="49.59581" lon="3.67952">
        <ele>113.6</ele>
        <time>2015-01-05T13:32:38.515Z</time>
      </trkpt>
      <trkpt lat="49.59582" lon="3.67951">
        <ele>113.7</ele>
        <time>2015-01-05T13:32:39.520Z</time>
      </trkpt>
      <trkpt lat="49.59589" lon="3.67947">
        <ele>113.3</ele>
        <time>2015-01-05T13:32:45.517Z</time>
      </trkpt>
      <trkpt lat="49.59591" lon="3.67946">
        <ele>113.3</ele>
        <time>2015-01-05T13:32:46.537Z</time>
      </trkpt>
      <trkpt lat="49.59598" lon="3.67942">
        <ele>113.3</ele>
        <time>2015-01-05T13:32:53.464Z</time>
      </trkpt>
      <trkpt lat="49.59599" lon="3.67941">
        <ele>113.4</ele>
        <time>2015-01-05T13:32:54.469Z</time>
      </trkpt>
      <trkpt lat="49.59607" lon="3.67937">
        <ele>113.3</ele>
        <time>2015-01-05T13:33:00.538Z</time>
      </trkpt>
      <trkpt lat="49.59608" lon="3.67936">
        <ele>113.2</ele>
        <time>2015-01-05T13:33:01.456Z</time>
      </trkpt>
      <trkpt lat="49.59616" lon="3.6793">
        <ele>114.5</ele>
        <time>2015-01-05T13:33:09.518Z</time>
      </trkpt>
      <trkpt lat="49.59617" lon="3.67929">
        <ele>114.6</ele>
        <time>2015-01-05T13:33:10.531Z</time>
      </trkpt>
      <trkpt lat="49.59624" lon="3.67924">
        <ele>114.8</ele>
        <time>2015-01-05T13:33:17.542Z</time>
      </trkpt>
      <trkpt lat="49.59626" lon="3.67923">
        <ele>114.7</ele>
        <time>2015-01-05T13:33:18.456Z</time>
      </trkpt>
      <trkpt lat="49.59632" lon="3.67918">
        <ele>114.8</ele>
        <time>2015-01-05T13:33:26.407Z</time>
      </trkpt>
      <trkpt lat="49.59634" lon="3.67918">
        <ele>114.8</ele>
        <time>2015-01-05T13:33:26.552Z</time>
      </trkpt>
      <trkpt lat="49.59642" lon="3.67911">
        <ele>114.8</ele>
        <time>2015-01-05T13:33:33.526Z</time>
      </trkpt>
      <trkpt lat="49.59643" lon="3.67911">
        <ele>114.8</ele>
        <time>2015-01-05T13:33:34.541Z</time>
      </trkpt>
      <trkpt lat="49.59651" lon="3.67905">
        <ele>113.8</ele>
        <time>2015-01-05T13:33:41.532Z</time>
      </trkpt>
      <trkpt lat="49.59652" lon="3.67904">
        <ele>113.8</ele>
        <time>2015-01-05T13:33:42.543Z</time>
      </trkpt>
      <trkpt lat="49.5966" lon="3.679">
        <ele>113.9</ele>
        <time>2015-01-05T13:33:47.444Z</time>
      </trkpt>
      <trkpt lat="49.59661" lon="3.679">
        <ele>113.8</ele>
        <time>2015-01-05T13:33:48.452Z</time>
      </trkpt>
      <trkpt lat="49.59668" lon="3.67895">
        <ele>113.1</ele>
        <time>2015-01-05T13:33:56.560Z</time>
      </trkpt>
      <trkpt lat="49.5967" lon="3.67894">
        <ele>113</ele>
        <time>2015-01-05T13:33:57.446Z</time>
      </trkpt>
      <trkpt lat="49.59677" lon="3.67891">
        <ele>113</ele>
        <time>2015-01-05T13:34:05.530Z</time>
      </trkpt>
      <trkpt lat="49.59679" lon="3.6789">
        <ele>113</ele>
        <time>2015-01-05T13:34:06.540Z</time>
      </trkpt>
      <trkpt lat="49.59685" lon="3.67883">
        <ele>112.8</ele>
        <time>2015-01-05T13:34:14.549Z</time>
      </trkpt>
      <trkpt lat="49.59687" lon="3.67882">
        <ele>112.8</ele>
        <time>2015-01-05T13:34:15.450Z</time>
      </trkpt>
      <trkpt lat="49.59694" lon="3.67875">
        <ele>113.2</ele>
        <time>2015-01-05T13:34:21.952Z</time>
      </trkpt>
      <trkpt lat="49.59695" lon="3.67873">
        <ele>113.2</ele>
        <time>2015-01-05T13:34:22.513Z</time>
      </trkpt>
      <trkpt lat="49.59703" lon="3.67869">
        <ele>113.4</ele>
        <time>2015-01-05T13:34:28.459Z</time>
      </trkpt>
      <trkpt lat="49.59704" lon="3.67868">
        <ele>113.2</ele>
        <time>2015-01-05T13:34:29.462Z</time>
      </trkpt>
      <trkpt lat="49.59711" lon="3.6786">
        <ele>113.1</ele>
        <time>2015-01-05T13:34:35.458Z</time>
      </trkpt>
      <trkpt lat="49.59712" lon="3.67858">
        <ele>113.1</ele>
        <time>2015-01-05T13:34:36.454Z</time>
      </trkpt>
      <trkpt lat="49.59718" lon="3.67848">
        <ele>113.3</ele>
        <time>2015-01-05T13:34:42.544Z</time>
      </trkpt>
      <trkpt lat="49.59719" lon="3.67847">
        <ele>113.2</ele>
        <time>2015-01-05T13:34:43.456Z</time>
      </trkpt>
      <trkpt lat="49.59726" lon="3.67843">
        <ele>112.4</ele>
        <time>2015-01-05T13:34:48.470Z</time>
      </trkpt>
      <trkpt lat="49.59727" lon="3.67842">
        <ele>112.5</ele>
        <time>2015-01-05T13:34:49.480Z</time>
      </trkpt>
      <trkpt lat="49.59734" lon="3.67835">
        <ele>112.3</ele>
        <time>2015-01-05T13:34:55.462Z</time>
      </trkpt>
      <trkpt lat="49.59734" lon="3.67833">
        <ele>112.4</ele>
        <time>2015-01-05T13:34:56.515Z</time>
      </trkpt>
      <trkpt lat="49.59742" lon="3.67825">
        <ele>111.6</ele>
        <time>2015-01-05T13:35:03.438Z</time>
      </trkpt>
      <trkpt lat="49.59743" lon="3.67825">
        <ele>111.4</ele>
        <time>2015-01-05T13:35:04.452Z</time>
      </trkpt>
      <trkpt lat="49.59749" lon="3.67819">
        <ele>110.8</ele>
        <time>2015-01-05T13:35:09.518Z</time>
      </trkpt>
      <trkpt lat="49.59751" lon="3.67818">
        <ele>110.7</ele>
        <time>2015-01-05T13:35:10.528Z</time>
      </trkpt>
      <trkpt lat="49.59759" lon="3.67817">
        <ele>110.4</ele>
        <time>2015-01-05T13:35:14.517Z</time>
      </trkpt>
      <trkpt lat="49.5976" lon="3.67816">
        <ele>110.5</ele>
        <time>2015-01-05T13:35:15.522Z</time>
      </trkpt>
      <trkpt lat="49.59767" lon="3.67812">
        <ele>110.8</ele>
        <time>2015-01-05T13:35:20.516Z</time>
      </trkpt>
      <trkpt lat="49.59769" lon="3.67811">
        <ele>110.8</ele>
        <time>2015-01-05T13:35:21.518Z</time>
      </trkpt>
      <trkpt lat="49.59776" lon="3.67807">
        <ele>110.8</ele>
        <time>2015-01-05T13:35:26.514Z</time>
      </trkpt>
      <trkpt lat="49.59777" lon="3.67806">
        <ele>110.8</ele>
        <time>2015-01-05T13:35:27.522Z</time>
      </trkpt>
      <trkpt lat="49.59785" lon="3.678">
        <ele>110.2</ele>
        <time>2015-01-05T13:35:33.458Z</time>
      </trkpt>
      <trkpt lat="49.59786" lon="3.67799">
        <ele>110</ele>
        <time>2015-01-05T13:35:34.467Z</time>
      </trkpt>
      <trkpt lat="49.59793" lon="3.67793">
        <ele>109.2</ele>
        <time>2015-01-05T13:35:39.521Z</time>
      </trkpt>
      <trkpt lat="49.59795" lon="3.67792">
        <ele>109.2</ele>
        <time>2015-01-05T13:35:40.529Z</time>
      </trkpt>
      <trkpt lat="49.59801" lon="3.67784">
        <ele>109</ele>
        <time>2015-01-05T13:35:46.468Z</time>
      </trkpt>
      <trkpt lat="49.59802" lon="3.67783">
        <ele>109</ele>
        <time>2015-01-05T13:35:46.527Z</time>
      </trkpt>
      <trkpt lat="49.59809" lon="3.67775">
        <ele>108.9</ele>
        <time>2015-01-05T13:35:52.464Z</time>
      </trkpt>
      <trkpt lat="49.59809" lon="3.67773">
        <ele>109.1</ele>
        <time>2015-01-05T13:35:53.471Z</time>
      </trkpt>
      <trkpt lat="49.59816" lon="3.67767">
        <ele>109.5</ele>
        <time>2015-01-05T13:35:58.520Z</time>
      </trkpt>
      <trkpt lat="49.59817" lon="3.67766">
        <ele>109.6</ele>
        <time>2015-01-05T13:35:59.527Z</time>
      </trkpt>
      <trkpt lat="49.59825" lon="3.67762">
        <ele>109.9</ele>
        <time>2015-01-05T13:36:05.455Z</time>
      </trkpt>
      <trkpt lat="49.59826" lon="3.67762">
        <ele>109.9</ele>
        <time>2015-01-05T13:36:06.465Z</time>
      </trkpt>
      <trkpt lat="49.59833" lon="3.67753">
        <ele>109.8</ele>
        <time>2015-01-05T13:36:12.458Z</time>
      </trkpt>
      <trkpt lat="49.59834" lon="3.67752">
        <ele>109.8</ele>
        <time>2015-01-05T13:36:13.459Z</time>
      </trkpt>
      <trkpt lat="49.5984" lon="3.67744">
        <ele>110.1</ele>
        <time>2015-01-05T13:36:18.543Z</time>
      </trkpt>
      <trkpt lat="49.59841" lon="3.67743">
        <ele>110.1</ele>
        <time>2015-01-05T13:36:19.456Z</time>
      </trkpt>
      <trkpt lat="49.59847" lon="3.67735">
        <ele>110.4</ele>
        <time>2015-01-05T13:36:24.473Z</time>
      </trkpt>
      <trkpt lat="49.59848" lon="3.67733">
        <ele>110.5</ele>
        <time>2015-01-05T13:36:25.478Z</time>
      </trkpt>
      <trkpt lat="49.59855" lon="3.67728">
        <ele>110.7</ele>
        <time>2015-01-05T13:36:30.541Z</time>
      </trkpt>
      <trkpt lat="49.59856" lon="3.67727">
        <ele>110.7</ele>
        <time>2015-01-05T13:36:31.464Z</time>
      </trkpt>
      <trkpt lat="49.59864" lon="3.67721">
        <ele>110.9</ele>
        <time>2015-01-05T13:36:37.481Z</time>
      </trkpt>
      <trkpt lat="49.59865" lon="3.6772">
        <ele>110.9</ele>
        <time>2015-01-05T13:36:38.516Z</time>
      </trkpt>
      <trkpt lat="49.59872" lon="3.67712">
        <ele>111.7</ele>
        <time>2015-01-05T13:36:44.520Z</time>
      </trkpt>
      <trkpt lat="49.59873" lon="3.6771">
        <ele>111.7</ele>
        <time>2015-01-05T13:36:45.524Z</time>
      </trkpt>
      <trkpt lat="49.59881" lon="3.67706">
        <ele>111.4</ele>
        <time>2015-01-05T13:36:50.562Z</time>
      </trkpt>
      <trkpt lat="49.59882" lon="3.67705">
        <ele>111.4</ele>
        <time>2015-01-05T13:36:51.456Z</time>
      </trkpt>
      <trkpt lat="49.59889" lon="3.67697">
        <ele>111.6</ele>
        <time>2015-01-05T13:36:57.536Z</time>
      </trkpt>
      <trkpt lat="49.5989" lon="3.67696">
        <ele>111.6</ele>
        <time>2015-01-05T13:36:58.521Z</time>
      </trkpt>
      <trkpt lat="49.59897" lon="3.67689">
        <ele>110.7</ele>
        <time>2015-01-05T13:37:04.459Z</time>
      </trkpt>
      <trkpt lat="49.59898" lon="3.67688">
        <ele>110.5</ele>
        <time>2015-01-05T13:37:05.469Z</time>
      </trkpt>
      <trkpt lat="49.59905" lon="3.67681">
        <ele>109.4</ele>
        <time>2015-01-05T13:37:13.462Z</time>
      </trkpt>
      <trkpt lat="49.59907" lon="3.6768">
        <ele>109.3</ele>
        <time>2015-01-05T13:37:14.520Z</time>
      </trkpt>
      <trkpt lat="49.59913" lon="3.67671">
        <ele>109</ele>
        <time>2015-01-05T13:37:21.453Z</time>
      </trkpt>
      <trkpt lat="49.59913" lon="3.67669">
        <ele>108.9</ele>
        <time>2015-01-05T13:37:22.458Z</time>
      </trkpt>
      <trkpt lat="49.59917" lon="3.67659">
        <ele>109.3</ele>
        <time>2015-01-05T13:37:29.530Z</time>
      </trkpt>
      <trkpt lat="49.59918" lon="3.67658">
        <ele>109.4</ele>
        <time>2015-01-05T13:37:30.540Z</time>
      </trkpt>
      <trkpt lat="49.59925" lon="3.6765">
        <ele>109.7</ele>
        <time>2015-01-05T13:37:37.445Z</time>
      </trkpt>
      <trkpt lat="49.59926" lon="3.67649">
        <ele>109.7</ele>
        <time>2015-01-05T13:37:38.549Z</time>
      </trkpt>
      <trkpt lat="49.59933" lon="3.67641">
        <ele>109.8</ele>
        <time>2015-01-05T13:37:46.541Z</time>
      </trkpt>
      <trkpt lat="49.59934" lon="3.6764">
        <ele>109.8</ele>
        <time>2015-01-05T13:37:47.525Z</time>
      </trkpt>
      <trkpt lat="49.59941" lon="3.67633">
        <ele>110.1</ele>
        <time>2015-01-05T13:37:54.463Z</time>
      </trkpt>
      <trkpt lat="49.59943" lon="3.67633">
        <ele>110</ele>
        <time>2015-01-05T13:37:55.470Z</time>
      </trkpt>
      <trkpt lat="49.5995" lon="3.67628">
        <ele>110.2</ele>
        <time>2015-01-05T13:38:02.553Z</time>
      </trkpt>
      <trkpt lat="49.59951" lon="3.67627">
        <ele>110.3</ele>
        <time>2015-01-05T13:38:03.458Z</time>
      </trkpt>
      <trkpt lat="49.59957" lon="3.67619">
        <ele>110.8</ele>
        <time>2015-01-05T13:38:12.540Z</time>
      </trkpt>
      <trkpt lat="49.59958" lon="3.67618">
        <ele>110.7</ele>
        <time>2015-01-05T13:38:13.452Z</time>
      </trkpt>
      <trkpt lat="49.59966" lon="3.67616">
        <ele>110.4</ele>
        <time>2015-01-05T13:38:20.514Z</time>
      </trkpt>
      <trkpt lat="49.59967" lon="3.67614">
        <ele>110.5</ele>
        <time>2015-01-05T13:38:21.518Z</time>
      </trkpt>
      <trkpt lat="49.59974" lon="3.67608">
        <ele>110.1</ele>
        <time>2015-01-05T13:38:27.519Z</time>
      </trkpt>
      <trkpt lat="49.59976" lon="3.67608">
        <ele>110.1</ele>
        <time>2015-01-05T13:38:28.537Z</time>
      </trkpt>
      <trkpt lat="49.59983" lon="3.67603">
        <ele>109.9</ele>
        <time>2015-01-05T13:38:34.520Z</time>
      </trkpt>
      <trkpt lat="49.59984" lon="3.67602">
        <ele>110</ele>
        <time>2015-01-05T13:38:35.530Z</time>
      </trkpt>
      <trkpt lat="49.59991" lon="3.67595">
        <ele>110.2</ele>
        <time>2015-01-05T13:38:41.533Z</time>
      </trkpt>
      <trkpt lat="49.59992" lon="3.67593">
        <ele>110.3</ele>
        <time>2015-01-05T13:38:42.527Z</time>
      </trkpt>
      <trkpt lat="49.59999" lon="3.67585">
        <ele>110.4</ele>
        <time>2015-01-05T13:38:48.479Z</time>
      </trkpt>
      <trkpt lat="49.60001" lon="3.67584">
        <ele>110.3</ele>
        <time>2015-01-05T13:38:49.489Z</time>
      </trkpt>
      <trkpt lat="49.60008" lon="3.67579">
        <ele>110</ele>
        <time>2015-01-05T13:38:55.449Z</time>
      </trkpt>
      <trkpt lat="49.60009" lon="3.67578">
        <ele>109.9</ele>
        <time>2015-01-05T13:38:56.506Z</time>
      </trkpt>
      <trkpt lat="49.60015" lon="3.67568">
        <ele>109</ele>
        <time>2015-01-05T13:39:03.445Z</time>
      </trkpt>
      <trkpt lat="49.60016" lon="3.67567">
        <ele>108.8</ele>
        <time>2015-01-05T13:39:04.447Z</time>
      </trkpt>
      <trkpt lat="49.60023" lon="3.6756">
        <ele>108</ele>
        <time>2015-01-05T13:39:10.508Z</time>
      </trkpt>
      <trkpt lat="49.60026" lon="3.6756">
        <ele>108</ele>
        <time>2015-01-05T13:39:11.513Z</time>
      </trkpt>
      <trkpt lat="49.60033" lon="3.67555">
        <ele>108.1</ele>
        <time>2015-01-05T13:39:18.470Z</time>
      </trkpt>
      <trkpt lat="49.60034" lon="3.67554">
        <ele>108.1</ele>
        <time>2015-01-05T13:39:19.477Z</time>
      </trkpt>
      <trkpt lat="49.60041" lon="3.67551">
        <ele>107.8</ele>
        <time>2015-01-05T13:39:24.538Z</time>
      </trkpt>
      <trkpt lat="49.60043" lon="3.67551">
        <ele>107.7</ele>
        <time>2015-01-05T13:39:25.454Z</time>
      </trkpt>
      <trkpt lat="49.6005" lon="3.67543">
        <ele>107.8</ele>
        <time>2015-01-05T13:39:31.480Z</time>
      </trkpt>
      <trkpt lat="49.60052" lon="3.67542">
        <ele>108</ele>
        <time>2015-01-05T13:39:32.520Z</time>
      </trkpt>
      <trkpt lat="49.60059" lon="3.67537">
        <ele>108.6</ele>
        <time>2015-01-05T13:39:38.514Z</time>
      </trkpt>
      <trkpt lat="49.6006" lon="3.67536">
        <ele>108.5</ele>
        <time>2015-01-05T13:39:39.509Z</time>
      </trkpt>
      <trkpt lat="49.60068" lon="3.67531">
        <ele>108.2</ele>
        <time>2015-01-05T13:39:46.755Z</time>
      </trkpt>
      <trkpt lat="49.60069" lon="3.6753">
        <ele>108.2</ele>
        <time>2015-01-05T13:39:47.461Z</time>
      </trkpt>
      <trkpt lat="49.60075" lon="3.67521">
        <ele>108.3</ele>
        <time>2015-01-05T13:39:54.539Z</time>
      </trkpt>
      <trkpt lat="49.60076" lon="3.6752">
        <ele>108.2</ele>
        <time>2015-01-05T13:39:55.456Z</time>
      </trkpt>
      <trkpt lat="49.60081" lon="3.6751">
        <ele>107.6</ele>
        <time>2015-01-05T13:40:05.534Z</time>
      </trkpt>
      <trkpt lat="49.60082" lon="3.67509">
        <ele>107.4</ele>
        <time>2015-01-05T13:40:06.541Z</time>
      </trkpt>
      <trkpt lat="49.60089" lon="3.67505">
        <ele>108.3</ele>
        <time>2015-01-05T13:40:19.464Z</time>
      </trkpt>
      <trkpt lat="49.60089" lon="3.67505">
        <ele>108.3</ele>
        <time>2015-01-05T13:40:20.518Z</time>
      </trkpt>
      <trkpt lat="49.60089" lon="3.67505">
        <ele>108.6</ele>
        <time>2015-01-05T13:40:54.452Z</time>
      </trkpt>
      <trkpt lat="49.60089" lon="3.67504">
        <ele>109</ele>
        <time>2015-01-05T13:40:55.457Z</time>
      </trkpt>
      <trkpt lat="49.60089" lon="3.67504">
        <ele>109.1</ele>
        <time>2015-01-05T13:40:56.502Z</time>
      </trkpt>
      <trkpt lat="49.60089" lon="3.67504">
        <ele>109.1</ele>
        <time>2015-01-05T13:41:00.450Z</time>
      </trkpt>
      <trkpt lat="49.60087" lon="3.67503">
        <ele>109.4</ele>
        <time>2015-01-05T13:41:01.448Z</time>
      </trkpt>
      <trkpt lat="49.60087" lon="3.67503">
        <ele>109.4</ele>
        <time>2015-01-05T13:41:01.621Z</time>
      </trkpt>
      <trkpt lat="49.60087" lon="3.67503">
        <ele>109.5</ele>
        <time>2015-01-05T13:41:02.502Z</time>
      </trkpt>
      <trkpt lat="49.60088" lon="3.67503">
        <ele>108.8</ele>
        <time>2015-01-05T13:41:11.638Z</time>
      </trkpt>
      <trkpt lat="49.60087" lon="3.67504">
        <ele>109.3</ele>
        <time>2015-01-05T13:41:12.451Z</time>
      </trkpt>
      <trkpt lat="49.60087" lon="3.67504">
        <ele>109.4</ele>
        <time>2015-01-05T13:41:13.456Z</time>
      </trkpt>
      <trkpt lat="49.60087" lon="3.67503">
        <ele>109.5</ele>
        <time>2015-01-05T13:41:43.451Z</time>
      </trkpt>
      <trkpt lat="49.60087" lon="3.67503">
        <ele>111.6</ele>
        <time>2015-01-05T13:41:44.504Z</time>
      </trkpt>
      <trkpt lat="49.60088" lon="3.67501">
        <ele>112.1</ele>
        <time>2015-01-05T13:41:57.430Z</time>
      </trkpt>
      <trkpt lat="49.60088" lon="3.675">
        <ele>112.1</ele>
        <time>2015-01-05T13:41:58.435Z</time>
      </trkpt>
      <trkpt lat="49.60088" lon="3.675">
        <ele>112.1</ele>
        <time>2015-01-05T13:41:59.447Z</time>
      </trkpt>
      <trkpt lat="49.6009" lon="3.67503">
        <ele>112.1</ele>
        <time>2015-01-05T13:42:04.503Z</time>
      </trkpt>
      <trkpt lat="49.6009" lon="3.67503">
        <ele>112.1</ele>
        <time>2015-01-05T13:42:05.509Z</time>
      </trkpt>
      <trkpt lat="49.6009" lon="3.67503">
        <ele>112.1</ele>
        <time>2015-01-05T13:42:08.484Z</time>
      </trkpt>
      <trkpt lat="49.60092" lon="3.67505">
        <ele>112.2</ele>
        <time>2015-01-05T13:42:09.484Z</time>
      </trkpt>
      <trkpt lat="49.6009" lon="3.67502">
        <ele>113.2</ele>
        <time>2015-01-05T13:42:31.521Z</time>
      </trkpt>
      <trkpt lat="49.6009" lon="3.67502">
        <ele>113.2</ele>
        <time>2015-01-05T13:42:32.532Z</time>
      </trkpt>
      <trkpt lat="49.6009" lon="3.67502">
        <ele>112.6</ele>
        <time>2015-01-05T13:43:09.438Z</time>
      </trkpt>
      <trkpt lat="49.6009" lon="3.67502">
        <ele>110.7</ele>
        <time>2015-01-05T13:43:10.441Z</time>
      </trkpt>
      <trkpt lat="49.60095" lon="3.67495">
        <ele>108.8</ele>
        <time>2015-01-05T13:43:26.515Z</time>
      </trkpt>
      <trkpt lat="49.60095" lon="3.67495">
        <ele>108.8</ele>
        <time>2015-01-05T13:43:27.516Z</time>
      </trkpt>
      <trkpt lat="49.60095" lon="3.67495">
        <ele>108.9</ele>
        <time>2015-01-05T13:43:31.454Z</time>
      </trkpt>
      <trkpt lat="49.60095" lon="3.67495">
        <ele>108.8</ele>
        <time>2015-01-05T13:43:32.557Z</time>
      </trkpt>
      <trkpt lat="49.60095" lon="3.67496">
        <ele>108.9</ele>
        <time>2015-01-05T13:43:33.455Z</time>
      </trkpt>
      <trkpt lat="49.60095" lon="3.67496">
        <ele>108.9</ele>
        <time>2015-01-05T13:43:34.460Z</time>
      </trkpt>
      <trkpt lat="49.60096" lon="3.67496">
        <ele>109</ele>
        <time>2015-01-05T13:43:39.515Z</time>
      </trkpt>
      <trkpt lat="49.60097" lon="3.67496">
        <ele>109</ele>
        <time>2015-01-05T13:43:40.525Z</time>
      </trkpt>
      <trkpt lat="49.60105" lon="3.67492">
        <ele>107.9</ele>
        <time>2015-01-05T13:43:50.513Z</time>
      </trkpt>
      <trkpt lat="49.60106" lon="3.67491">
        <ele>107.7</ele>
        <time>2015-01-05T13:43:51.516Z</time>
      </trkpt>
      <trkpt lat="49.60113" lon="3.67486">
        <ele>107.9</ele>
        <time>2015-01-05T13:43:58.518Z</time>
      </trkpt>
      <trkpt lat="49.60114" lon="3.67485">
        <ele>108</ele>
        <time>2015-01-05T13:43:59.525Z</time>
      </trkpt>
      <trkpt lat="49.60121" lon="3.67476">
        <ele>108</ele>
        <time>2015-01-05T13:44:07.467Z</time>
      </trkpt>
      <trkpt lat="49.60122" lon="3.67475">
        <ele>108</ele>
        <time>2015-01-05T13:44:08.502Z</time>
      </trkpt>
      <trkpt lat="49.6013" lon="3.67469">
        <ele>107.9</ele>
        <time>2015-01-05T13:44:15.512Z</time>
      </trkpt>
      <trkpt lat="49.60131" lon="3.67468">
        <ele>108.1</ele>
        <time>2015-01-05T13:44:16.517Z</time>
      </trkpt>
      <trkpt lat="49.60137" lon="3.67458">
        <ele>108.5</ele>
        <time>2015-01-05T13:44:24.528Z</time>
      </trkpt>
      <trkpt lat="49.60138" lon="3.67457">
        <ele>108.6</ele>
        <time>2015-01-05T13:44:25.538Z</time>
      </trkpt>
      <trkpt lat="49.60143" lon="3.67446">
        <ele>109</ele>
        <time>2015-01-05T13:44:33.513Z</time>
      </trkpt>
      <trkpt lat="49.60144" lon="3.67445">
        <ele>109.1</ele>
        <time>2015-01-05T13:44:34.518Z</time>
      </trkpt>
      <trkpt lat="49.60151" lon="3.67438">
        <ele>109.2</ele>
        <time>2015-01-05T13:44:42.460Z</time>
      </trkpt>
      <trkpt lat="49.60152" lon="3.67437">
        <ele>109.2</ele>
        <time>2015-01-05T13:44:43.469Z</time>
      </trkpt>
      <trkpt lat="49.60159" lon="3.6743">
        <ele>109</ele>
        <time>2015-01-05T13:44:51.558Z</time>
      </trkpt>
      <trkpt lat="49.6016" lon="3.6743">
        <ele>109</ele>
        <time>2015-01-05T13:44:52.519Z</time>
      </trkpt>
      <trkpt lat="49.60168" lon="3.67422">
        <ele>108.8</ele>
        <time>2015-01-05T13:45:00.525Z</time>
      </trkpt>
      <trkpt lat="49.60168" lon="3.6742">
        <ele>108.7</ele>
        <time>2015-01-05T13:45:01.440Z</time>
      </trkpt>
      <trkpt lat="49.60173" lon="3.67409">
        <ele>107.7</ele>
        <time>2015-01-05T13:45:08.530Z</time>
      </trkpt>
      <trkpt lat="49.60174" lon="3.67408">
        <ele>107.5</ele>
        <time>2015-01-05T13:45:09.450Z</time>
      </trkpt>
      <trkpt lat="49.6018" lon="3.67398">
        <ele>104</ele>
        <time>2015-01-05T13:45:19.519Z</time>
      </trkpt>
      <trkpt lat="49.6018" lon="3.67397">
        <ele>103.8</ele>
        <time>2015-01-05T13:45:20.520Z</time>
      </trkpt>
      <trkpt lat="49.60188" lon="3.67391">
        <ele>102.8</ele>
        <time>2015-01-05T13:45:26.631Z</time>
      </trkpt>
      <trkpt lat="49.60189" lon="3.6739">
        <ele>102.4</ele>
        <time>2015-01-05T13:45:27.513Z</time>
      </trkpt>
      <trkpt lat="49.60197" lon="3.67384">
        <ele>100.6</ele>
        <time>2015-01-05T13:45:34.510Z</time>
      </trkpt>
      <trkpt lat="49.60199" lon="3.67384">
        <ele>100.4</ele>
        <time>2015-01-05T13:45:35.516Z</time>
      </trkpt>
      <trkpt lat="49.60207" lon="3.67379">
        <ele>99.9</ele>
        <time>2015-01-05T13:45:41.718Z</time>
      </trkpt>
      <trkpt lat="49.60208" lon="3.67379">
        <ele>99.7</ele>
        <time>2015-01-05T13:45:42.466Z</time>
      </trkpt>
      <trkpt lat="49.60215" lon="3.67372">
        <ele>98.5</ele>
        <time>2015-01-05T13:45:49.447Z</time>
      </trkpt>
      <trkpt lat="49.60216" lon="3.67371">
        <ele>98.3</ele>
        <time>2015-01-05T13:45:50.503Z</time>
      </trkpt>
      <trkpt lat="49.60222" lon="3.67363">
        <ele>96.2</ele>
        <time>2015-01-05T13:45:57.445Z</time>
      </trkpt>
      <trkpt lat="49.60223" lon="3.67362">
        <ele>96.2</ele>
        <time>2015-01-05T13:45:58.438Z</time>
      </trkpt>
      <trkpt lat="49.6023" lon="3.67354">
        <ele>97.2</ele>
        <time>2015-01-05T13:46:05.520Z</time>
      </trkpt>
      <trkpt lat="49.60232" lon="3.67353">
        <ele>97.5</ele>
        <time>2015-01-05T13:46:06.523Z</time>
      </trkpt>
      <trkpt lat="49.6024" lon="3.67348">
        <ele>98.7</ele>
        <time>2015-01-05T13:46:12.472Z</time>
      </trkpt>
      <trkpt lat="49.60241" lon="3.67347">
        <ele>99</ele>
        <time>2015-01-05T13:46:13.479Z</time>
      </trkpt>
      <trkpt lat="49.60244" lon="3.67335">
        <ele>99.7</ele>
        <time>2015-01-05T13:46:20.540Z</time>
      </trkpt>
      <trkpt lat="49.60245" lon="3.67333">
        <ele>100.1</ele>
        <time>2015-01-05T13:46:21.449Z</time>
      </trkpt>
      <trkpt lat="49.60252" lon="3.67327">
        <ele>101.8</ele>
        <time>2015-01-05T13:46:26.522Z</time>
      </trkpt>
      <trkpt lat="49.60254" lon="3.67326">
        <ele>101.9</ele>
        <time>2015-01-05T13:46:27.510Z</time>
      </trkpt>
      <trkpt lat="49.60261" lon="3.67318">
        <ele>103.3</ele>
        <time>2015-01-05T13:46:34.454Z</time>
      </trkpt>
      <trkpt lat="49.60262" lon="3.67316">
        <ele>103.6</ele>
        <time>2015-01-05T13:46:35.466Z</time>
      </trkpt>
      <trkpt lat="49.60266" lon="3.67305">
        <ele>105.2</ele>
        <time>2015-01-05T13:46:41.518Z</time>
      </trkpt>
      <trkpt lat="49.60267" lon="3.67304">
        <ele>105.4</ele>
        <time>2015-01-05T13:46:42.526Z</time>
      </trkpt>
      <trkpt lat="49.60272" lon="3.67293">
        <ele>106.6</ele>
        <time>2015-01-05T13:46:48.467Z</time>
      </trkpt>
      <trkpt lat="49.60273" lon="3.67292">
        <ele>106.6</ele>
        <time>2015-01-05T13:46:49.472Z</time>
      </trkpt>
      <trkpt lat="49.60278" lon="3.67282">
        <ele>107.6</ele>
        <time>2015-01-05T13:46:56.891Z</time>
      </trkpt>
      <trkpt lat="49.60278" lon="3.67282">
        <ele>107.6</ele>
        <time>2015-01-05T13:46:57.507Z</time>
      </trkpt>
      <trkpt lat="49.60279" lon="3.67282">
        <ele>107.7</ele>
        <time>2015-01-05T13:46:58.514Z</time>
      </trkpt>
      <trkpt lat="49.6028" lon="3.67282">
        <ele>107.7</ele>
        <time>2015-01-05T13:46:59.529Z</time>
      </trkpt>
      <trkpt lat="49.60281" lon="3.67282">
        <ele>107.8</ele>
        <time>2015-01-05T13:47:02.010Z</time>
      </trkpt>
      <trkpt lat="49.60281" lon="3.67282">
        <ele>107.8</ele>
        <time>2015-01-05T13:47:02.493Z</time>
      </trkpt>
      <trkpt lat="49.60282" lon="3.67281">
        <ele>107.9</ele>
        <time>2015-01-05T13:47:03.446Z</time>
      </trkpt>
      <trkpt lat="49.6029" lon="3.67276">
        <ele>108.5</ele>
        <time>2015-01-05T13:47:08.482Z</time>
      </trkpt>
      <trkpt lat="49.60291" lon="3.67275">
        <ele>108.6</ele>
        <time>2015-01-05T13:47:09.532Z</time>
      </trkpt>
      <trkpt lat="49.60297" lon="3.67265">
        <ele>109</ele>
        <time>2015-01-05T13:47:14.481Z</time>
      </trkpt>
      <trkpt lat="49.60297" lon="3.67263">
        <ele>109</ele>
        <time>2015-01-05T13:47:15.498Z</time>
      </trkpt>
      <trkpt lat="49.60301" lon="3.67254">
        <ele>108.8</ele>
        <time>2015-01-05T13:47:20.562Z</time>
      </trkpt>
      <trkpt lat="49.60302" lon="3.67252">
        <ele>109</ele>
        <time>2015-01-05T13:47:21.449Z</time>
      </trkpt>
      <trkpt lat="49.60307" lon="3.67241">
        <ele>110.3</ele>
        <time>2015-01-05T13:47:27.502Z</time>
      </trkpt>
      <trkpt lat="49.60308" lon="3.6724">
        <ele>110.5</ele>
        <time>2015-01-05T13:47:28.513Z</time>
      </trkpt>
      <trkpt lat="49.60315" lon="3.67233">
        <ele>110.9</ele>
        <time>2015-01-05T13:47:35.464Z</time>
      </trkpt>
      <trkpt lat="49.60316" lon="3.67232">
        <ele>110.8</ele>
        <time>2015-01-05T13:47:36.472Z</time>
      </trkpt>
      <trkpt lat="49.60324" lon="3.67226">
        <ele>111.3</ele>
        <time>2015-01-05T13:47:43.473Z</time>
      </trkpt>
      <trkpt lat="49.60324" lon="3.67225">
        <ele>111.4</ele>
        <time>2015-01-05T13:47:44.519Z</time>
      </trkpt>
      <trkpt lat="49.60331" lon="3.67218">
        <ele>111.3</ele>
        <time>2015-01-05T13:47:52.464Z</time>
      </trkpt>
      <trkpt lat="49.60333" lon="3.67217">
        <ele>111.3</ele>
        <time>2015-01-05T13:47:53.469Z</time>
      </trkpt>
      <trkpt lat="49.60339" lon="3.67209">
        <ele>111.8</ele>
        <time>2015-01-05T13:48:00.459Z</time>
      </trkpt>
      <trkpt lat="49.6034" lon="3.67208">
        <ele>111.8</ele>
        <time>2015-01-05T13:48:01.460Z</time>
      </trkpt>
      <trkpt lat="49.60348" lon="3.67202">
        <ele>111.7</ele>
        <time>2015-01-05T13:48:08.506Z</time>
      </trkpt>
      <trkpt lat="49.60349" lon="3.67201">
        <ele>111.7</ele>
        <time>2015-01-05T13:48:09.515Z</time>
      </trkpt>
      <trkpt lat="49.60356" lon="3.67194">
        <ele>111.8</ele>
        <time>2015-01-05T13:48:16.772Z</time>
      </trkpt>
      <trkpt lat="49.60357" lon="3.67193">
        <ele>111.3</ele>
        <time>2015-01-05T13:48:17.481Z</time>
      </trkpt>
      <trkpt lat="49.60363" lon="3.67185">
        <ele>110.1</ele>
        <time>2015-01-05T13:48:24.462Z</time>
      </trkpt>
      <trkpt lat="49.60364" lon="3.67184">
        <ele>111.1</ele>
        <time>2015-01-05T13:48:25.445Z</time>
      </trkpt>
      <trkpt lat="49.60371" lon="3.67179">
        <ele>113.8</ele>
        <time>2015-01-05T13:48:32.560Z</time>
      </trkpt>
      <trkpt lat="49.60372" lon="3.67178">
        <ele>114.1</ele>
        <time>2015-01-05T13:48:33.451Z</time>
      </trkpt>
      <trkpt lat="49.60378" lon="3.67169">
        <ele>114.8</ele>
        <time>2015-01-05T13:48:41.531Z</time>
      </trkpt>
      <trkpt lat="49.60379" lon="3.67167">
        <ele>114.8</ele>
        <time>2015-01-05T13:48:42.546Z</time>
      </trkpt>
      <trkpt lat="49.60385" lon="3.67158">
        <ele>115.2</ele>
        <time>2015-01-05T13:48:49.457Z</time>
      </trkpt>
      <trkpt lat="49.60386" lon="3.67157">
        <ele>115.2</ele>
        <time>2015-01-05T13:48:50.504Z</time>
      </trkpt>
      <trkpt lat="49.60393" lon="3.6715">
        <ele>115.3</ele>
        <time>2015-01-05T13:48:57.460Z</time>
      </trkpt>
      <trkpt lat="49.60394" lon="3.67149">
        <ele>115.3</ele>
        <time>2015-01-05T13:48:58.463Z</time>
      </trkpt>
      <trkpt lat="49.60401" lon="3.67142">
        <ele>115.2</ele>
        <time>2015-01-05T13:49:05.531Z</time>
      </trkpt>
      <trkpt lat="49.60403" lon="3.67141">
        <ele>114.8</ele>
        <time>2015-01-05T13:49:06.433Z</time>
      </trkpt>
      <trkpt lat="49.6041" lon="3.67136">
        <ele>114.2</ele>
        <time>2015-01-05T13:49:13.458Z</time>
      </trkpt>
      <trkpt lat="49.60411" lon="3.67136">
        <ele>114.1</ele>
        <time>2015-01-05T13:49:14.517Z</time>
      </trkpt>
      <trkpt lat="49.60419" lon="3.67138">
        <ele>114.1</ele>
        <time>2015-01-05T13:49:21.880Z</time>
      </trkpt>
      <trkpt lat="49.6042" lon="3.67139">
        <ele>114.1</ele>
        <time>2015-01-05T13:49:22.529Z</time>
      </trkpt>
      <trkpt lat="49.60427" lon="3.67145">
        <ele>114.4</ele>
        <time>2015-01-05T13:49:30.457Z</time>
      </trkpt>
      <trkpt lat="49.60428" lon="3.67146">
        <ele>114.4</ele>
        <time>2015-01-05T13:49:31.468Z</time>
      </trkpt>
      <trkpt lat="49.60435" lon="3.67155">
        <ele>114.8</ele>
        <time>2015-01-05T13:49:38.519Z</time>
      </trkpt>
      <trkpt lat="49.60436" lon="3.67156">
        <ele>114.8</ele>
        <time>2015-01-05T13:49:39.522Z</time>
      </trkpt>
      <trkpt lat="49.60442" lon="3.67166">
        <ele>114.8</ele>
        <time>2015-01-05T13:49:46.559Z</time>
      </trkpt>
      <trkpt lat="49.60442" lon="3.67167">
        <ele>114.9</ele>
        <time>2015-01-05T13:49:47.537Z</time>
      </trkpt>
      <trkpt lat="49.60448" lon="3.67176">
        <ele>115</ele>
        <time>2015-01-05T13:49:53.474Z</time>
      </trkpt>
      <trkpt lat="49.60449" lon="3.67177">
        <ele>115.1</ele>
        <time>2015-01-05T13:49:54.482Z</time>
      </trkpt>
      <trkpt lat="49.60454" lon="3.67188">
        <ele>114.4</ele>
        <time>2015-01-05T13:50:02.518Z</time>
      </trkpt>
      <trkpt lat="49.60454" lon="3.6719">
        <ele>114.3</ele>
        <time>2015-01-05T13:50:03.522Z</time>
      </trkpt>
      <trkpt lat="49.60459" lon="3.67199">
        <ele>114.8</ele>
        <time>2015-01-05T13:50:10.530Z</time>
      </trkpt>
      <trkpt lat="49.6046" lon="3.67201">
        <ele>115</ele>
        <time>2015-01-05T13:50:11.542Z</time>
      </trkpt>
      <trkpt lat="49.60466" lon="3.67211">
        <ele>115.4</ele>
        <time>2015-01-05T13:50:18.461Z</time>
      </trkpt>
      <trkpt lat="49.60467" lon="3.67212">
        <ele>115.3</ele>
        <time>2015-01-05T13:50:19.460Z</time>
      </trkpt>
      <trkpt lat="49.60472" lon="3.67221">
        <ele>115.6</ele>
        <time>2015-01-05T13:50:25.457Z</time>
      </trkpt>
      <trkpt lat="49.60473" lon="3.67223">
        <ele>115.6</ele>
        <time>2015-01-05T13:50:26.515Z</time>
      </trkpt>
      <trkpt lat="49.60477" lon="3.67233">
        <ele>115.6</ele>
        <time>2015-01-05T13:50:33.523Z</time>
      </trkpt>
      <trkpt lat="49.60478" lon="3.67234">
        <ele>115.6</ele>
        <time>2015-01-05T13:50:34.524Z</time>
      </trkpt>
      <trkpt lat="49.60483" lon="3.67245">
        <ele>115.4</ele>
        <time>2015-01-05T13:50:41.526Z</time>
      </trkpt>
      <trkpt lat="49.60484" lon="3.67246">
        <ele>115.5</ele>
        <time>2015-01-05T13:50:42.536Z</time>
      </trkpt>
      <trkpt lat="49.6049" lon="3.67256">
        <ele>115.7</ele>
        <time>2015-01-05T13:50:49.473Z</time>
      </trkpt>
      <trkpt lat="49.60491" lon="3.67258">
        <ele>115.8</ele>
        <time>2015-01-05T13:50:50.517Z</time>
      </trkpt>
      <trkpt lat="49.60495" lon="3.67268">
        <ele>115.8</ele>
        <time>2015-01-05T13:50:57.518Z</time>
      </trkpt>
      <trkpt lat="49.60496" lon="3.67269">
        <ele>115.7</ele>
        <time>2015-01-05T13:50:58.526Z</time>
      </trkpt>
      <trkpt lat="49.60501" lon="3.67278">
        <ele>115.8</ele>
        <time>2015-01-05T13:51:04.540Z</time>
      </trkpt>
      <trkpt lat="49.60502" lon="3.67279">
        <ele>115.8</ele>
        <time>2015-01-05T13:51:05.454Z</time>
      </trkpt>
      <trkpt lat="49.60507" lon="3.6729">
        <ele>115.6</ele>
        <time>2015-01-05T13:51:13.459Z</time>
      </trkpt>
      <trkpt lat="49.60508" lon="3.67292">
        <ele>115.6</ele>
        <time>2015-01-05T13:51:14.516Z</time>
      </trkpt>
      <trkpt lat="49.60513" lon="3.67303">
        <ele>115.3</ele>
        <time>2015-01-05T13:51:22.528Z</time>
      </trkpt>
      <trkpt lat="49.60513" lon="3.67304">
        <ele>115.3</ele>
        <time>2015-01-05T13:51:23.538Z</time>
      </trkpt>
      <trkpt lat="49.60519" lon="3.67314">
        <ele>115.1</ele>
        <time>2015-01-05T13:51:30.485Z</time>
      </trkpt>
      <trkpt lat="49.6052" lon="3.67316">
        <ele>115</ele>
        <time>2015-01-05T13:51:31.491Z</time>
      </trkpt>
      <trkpt lat="49.60525" lon="3.67325">
        <ele>114.6</ele>
        <time>2015-01-05T13:51:38.517Z</time>
      </trkpt>
      <trkpt lat="49.60526" lon="3.67327">
        <ele>114.6</ele>
        <time>2015-01-05T13:51:39.520Z</time>
      </trkpt>
      <trkpt lat="49.60532" lon="3.67336">
        <ele>114.7</ele>
        <time>2015-01-05T13:51:48.535Z</time>
      </trkpt>
      <trkpt lat="49.60533" lon="3.67337">
        <ele>114.7</ele>
        <time>2015-01-05T13:51:49.457Z</time>
      </trkpt>
      <trkpt lat="49.60538" lon="3.67346">
        <ele>115.8</ele>
        <time>2015-01-05T13:51:59.458Z</time>
      </trkpt>
      <trkpt lat="49.60539" lon="3.67347">
        <ele>115.8</ele>
        <time>2015-01-05T13:52:00.466Z</time>
      </trkpt>
      <trkpt lat="49.60544" lon="3.67357">
        <ele>115.4</ele>
        <time>2015-01-05T13:52:07.458Z</time>
      </trkpt>
      <trkpt lat="49.60545" lon="3.67358">
        <ele>115.3</ele>
        <time>2015-01-05T13:52:08.514Z</time>
      </trkpt>
      <trkpt lat="49.6055" lon="3.67368">
        <ele>115.3</ele>
        <time>2015-01-05T13:52:15.524Z</time>
      </trkpt>
      <trkpt lat="49.60551" lon="3.67369">
        <ele>115.3</ele>
        <time>2015-01-05T13:52:16.533Z</time>
      </trkpt>
      <trkpt lat="49.60556" lon="3.67378">
        <ele>115.1</ele>
        <time>2015-01-05T13:52:23.487Z</time>
      </trkpt>
      <trkpt lat="49.60557" lon="3.67379">
        <ele>115</ele>
        <time>2015-01-05T13:52:24.495Z</time>
      </trkpt>
      <trkpt lat="49.60563" lon="3.67389">
        <ele>114.1</ele>
        <time>2015-01-05T13:52:33.533Z</time>
      </trkpt>
      <trkpt lat="49.60563" lon="3.6739">
        <ele>114.1</ele>
        <time>2015-01-05T13:52:34.539Z</time>
      </trkpt>
      <trkpt lat="49.60569" lon="3.67401">
        <ele>113.2</ele>
        <time>2015-01-05T13:52:45.459Z</time>
      </trkpt>
      <trkpt lat="49.60569" lon="3.67401">
        <ele>113</ele>
        <time>2015-01-05T13:52:46.464Z</time>
      </trkpt>
      <trkpt lat="49.60575" lon="3.67412">
        <ele>113.3</ele>
        <time>2015-01-05T13:52:54.543Z</time>
      </trkpt>
      <trkpt lat="49.60575" lon="3.67413">
        <ele>113.3</ele>
        <time>2015-01-05T13:52:55.458Z</time>
      </trkpt>
      <trkpt lat="49.60575" lon="3.67414">
        <ele>113.3</ele>
        <time>2015-01-05T13:52:56.557Z</time>
      </trkpt>
      <trkpt lat="49.60575" lon="3.67414">
        <ele>113.2</ele>
        <time>2015-01-05T13:52:58.462Z</time>
      </trkpt>
      <trkpt lat="49.60575" lon="3.67414">
        <ele>113.2</ele>
        <time>2015-01-05T13:52:59.468Z</time>
      </trkpt>
      <trkpt lat="49.60579" lon="3.67424">
        <ele>112.7</ele>
        <time>2015-01-05T13:53:07.463Z</time>
      </trkpt>
      <trkpt lat="49.60579" lon="3.67425">
        <ele>112.7</ele>
        <time>2015-01-05T13:53:08.523Z</time>
      </trkpt>
      <trkpt lat="49.60579" lon="3.67425">
        <ele>112.7</ele>
        <time>2015-01-05T13:53:09.529Z</time>
      </trkpt>
      <trkpt lat="49.60585" lon="3.67435">
        <ele>112.4</ele>
        <time>2015-01-05T13:53:20.516Z</time>
      </trkpt>
      <trkpt lat="49.60586" lon="3.67436">
        <ele>112.4</ele>
        <time>2015-01-05T13:53:21.517Z</time>
      </trkpt>
      <trkpt lat="49.60591" lon="3.67445">
        <ele>113</ele>
        <time>2015-01-05T13:53:30.453Z</time>
      </trkpt>
      <trkpt lat="49.60592" lon="3.67447">
        <ele>113.1</ele>
        <time>2015-01-05T13:53:31.454Z</time>
      </trkpt>
      <trkpt lat="49.60596" lon="3.67457">
        <ele>113.7</ele>
        <time>2015-01-05T13:53:39.514Z</time>
      </trkpt>
      <trkpt lat="49.60597" lon="3.67458">
        <ele>113.7</ele>
        <time>2015-01-05T13:53:40.532Z</time>
      </trkpt>
      <trkpt lat="49.60602" lon="3.67469">
        <ele>113.7</ele>
        <time>2015-01-05T13:53:48.459Z</time>
      </trkpt>
      <trkpt lat="49.60602" lon="3.6747">
        <ele>113.7</ele>
        <time>2015-01-05T13:53:49.460Z</time>
      </trkpt>
      <trkpt lat="49.60608" lon="3.6748">
        <ele>113.9</ele>
        <time>2015-01-05T13:53:57.532Z</time>
      </trkpt>
      <trkpt lat="49.60609" lon="3.67481">
        <ele>114</ele>
        <time>2015-01-05T13:53:58.459Z</time>
      </trkpt>
      <trkpt lat="49.60613" lon="3.67492">
        <ele>114.1</ele>
        <time>2015-01-05T13:54:07.456Z</time>
      </trkpt>
      <trkpt lat="49.60614" lon="3.67493">
        <ele>114</ele>
        <time>2015-01-05T13:54:08.516Z</time>
      </trkpt>
      <trkpt lat="49.60619" lon="3.67503">
        <ele>114.1</ele>
        <time>2015-01-05T13:54:16.709Z</time>
      </trkpt>
      <trkpt lat="49.60619" lon="3.67504">
        <ele>114.2</ele>
        <time>2015-01-05T13:54:17.465Z</time>
      </trkpt>
      <trkpt lat="49.60624" lon="3.67514">
        <ele>114.6</ele>
        <time>2015-01-05T13:54:26.421Z</time>
      </trkpt>
      <trkpt lat="49.60625" lon="3.67516">
        <ele>114.7</ele>
        <time>2015-01-05T13:54:26.653Z</time>
      </trkpt>
      <trkpt lat="49.6063" lon="3.67524">
        <ele>115.1</ele>
        <time>2015-01-05T13:54:33.525Z</time>
      </trkpt>
      <trkpt lat="49.60631" lon="3.67525">
        <ele>115.2</ele>
        <time>2015-01-05T13:54:34.531Z</time>
      </trkpt>
      <trkpt lat="49.60637" lon="3.67535">
        <ele>115.3</ele>
        <time>2015-01-05T13:54:42.481Z</time>
      </trkpt>
      <trkpt lat="49.60637" lon="3.67537">
        <ele>115.3</ele>
        <time>2015-01-05T13:54:43.490Z</time>
      </trkpt>
      <trkpt lat="49.60642" lon="3.67547">
        <ele>115.5</ele>
        <time>2015-01-05T13:54:52.525Z</time>
      </trkpt>
      <trkpt lat="49.60642" lon="3.67549">
        <ele>115.6</ele>
        <time>2015-01-05T13:54:53.531Z</time>
      </trkpt>
      <trkpt lat="49.60648" lon="3.67558">
        <ele>116.2</ele>
        <time>2015-01-05T13:55:01.881Z</time>
      </trkpt>
      <trkpt lat="49.60648" lon="3.67559">
        <ele>116.3</ele>
        <time>2015-01-05T13:55:02.519Z</time>
      </trkpt>
      <trkpt lat="49.60653" lon="3.67569">
        <ele>116.5</ele>
        <time>2015-01-05T13:55:09.515Z</time>
      </trkpt>
      <trkpt lat="49.60654" lon="3.6757">
        <ele>116.4</ele>
        <time>2015-01-05T13:55:10.520Z</time>
      </trkpt>
      <trkpt lat="49.60659" lon="3.6758">
        <ele>116.5</ele>
        <time>2015-01-05T13:55:18.476Z</time>
      </trkpt>
      <trkpt lat="49.6066" lon="3.67582">
        <ele>116.5</ele>
        <time>2015-01-05T13:55:19.486Z</time>
      </trkpt>
      <trkpt lat="49.60666" lon="3.67592">
        <ele>116.6</ele>
        <time>2015-01-05T13:55:27.450Z</time>
      </trkpt>
      <trkpt lat="49.60666" lon="3.67593">
        <ele>116.7</ele>
        <time>2015-01-05T13:55:28.462Z</time>
      </trkpt>
      <trkpt lat="49.60671" lon="3.67603">
        <ele>117.1</ele>
        <time>2015-01-05T13:55:36.479Z</time>
      </trkpt>
      <trkpt lat="49.60672" lon="3.67604">
        <ele>117.1</ele>
        <time>2015-01-05T13:55:37.460Z</time>
      </trkpt>
      <trkpt lat="49.60677" lon="3.67614">
        <ele>117.6</ele>
        <time>2015-01-05T13:55:45.456Z</time>
      </trkpt>
      <trkpt lat="49.60678" lon="3.67616">
        <ele>117.6</ele>
        <time>2015-01-05T13:55:46.465Z</time>
      </trkpt>
      <trkpt lat="49.60684" lon="3.67626">
        <ele>118</ele>
        <time>2015-01-05T13:55:54.543Z</time>
      </trkpt>
      <trkpt lat="49.60684" lon="3.67627">
        <ele>117.9</ele>
        <time>2015-01-05T13:55:55.458Z</time>
      </trkpt>
      <trkpt lat="49.60689" lon="3.67638">
        <ele>117.7</ele>
        <time>2015-01-05T13:56:04.542Z</time>
      </trkpt>
      <trkpt lat="49.60689" lon="3.67639">
        <ele>117.5</ele>
        <time>2015-01-05T13:56:05.457Z</time>
      </trkpt>
      <trkpt lat="49.60695" lon="3.6765">
        <ele>117.7</ele>
        <time>2015-01-05T13:56:13.494Z</time>
      </trkpt>
      <trkpt lat="49.60695" lon="3.67652">
        <ele>117.7</ele>
        <time>2015-01-05T13:56:14.519Z</time>
      </trkpt>
      <trkpt lat="49.607" lon="3.67662">
        <ele>117.4</ele>
        <time>2015-01-05T13:56:22.528Z</time>
      </trkpt>
      <trkpt lat="49.60701" lon="3.67664">
        <ele>117.3</ele>
        <time>2015-01-05T13:56:23.537Z</time>
      </trkpt>
      <trkpt lat="49.60707" lon="3.67673">
        <ele>117.3</ele>
        <time>2015-01-05T13:56:31.486Z</time>
      </trkpt>
      <trkpt lat="49.60707" lon="3.67674">
        <ele>117.3</ele>
        <time>2015-01-05T13:56:32.515Z</time>
      </trkpt>
      <trkpt lat="49.60714" lon="3.67683">
        <ele>116.4</ele>
        <time>2015-01-05T13:56:39.453Z</time>
      </trkpt>
      <trkpt lat="49.60714" lon="3.67684">
        <ele>116.3</ele>
        <time>2015-01-05T13:56:40.462Z</time>
      </trkpt>
      <trkpt lat="49.60721" lon="3.67692">
        <ele>115.8</ele>
        <time>2015-01-05T13:56:47.458Z</time>
      </trkpt>
      <trkpt lat="49.60722" lon="3.67694">
        <ele>115.9</ele>
        <time>2015-01-05T13:56:48.457Z</time>
      </trkpt>
      <trkpt lat="49.60728" lon="3.67703">
        <ele>116</ele>
        <time>2015-01-05T13:56:55.459Z</time>
      </trkpt>
      <trkpt lat="49.60729" lon="3.67704">
        <ele>116</ele>
        <time>2015-01-05T13:56:56.515Z</time>
      </trkpt>
      <trkpt lat="49.60735" lon="3.67714">
        <ele>115.8</ele>
        <time>2015-01-05T13:57:03.524Z</time>
      </trkpt>
      <trkpt lat="49.60736" lon="3.67716">
        <ele>115.8</ele>
        <time>2015-01-05T13:57:04.533Z</time>
      </trkpt>
      <trkpt lat="49.60741" lon="3.67725">
        <ele>116.4</ele>
        <time>2015-01-05T13:57:11.639Z</time>
      </trkpt>
      <trkpt lat="49.60742" lon="3.67726">
        <ele>116.4</ele>
        <time>2015-01-05T13:57:12.543Z</time>
      </trkpt>
      <trkpt lat="49.60746" lon="3.67737">
        <ele>116.5</ele>
        <time>2015-01-05T13:57:20.519Z</time>
      </trkpt>
      <trkpt lat="49.60746" lon="3.67738">
        <ele>116.6</ele>
        <time>2015-01-05T13:57:21.523Z</time>
      </trkpt>
      <trkpt lat="49.60752" lon="3.67749">
        <ele>117.1</ele>
        <time>2015-01-05T13:57:29.533Z</time>
      </trkpt>
      <trkpt lat="49.60752" lon="3.6775">
        <ele>117.1</ele>
        <time>2015-01-05T13:57:30.538Z</time>
      </trkpt>
      <trkpt lat="49.60756" lon="3.67762">
        <ele>117</ele>
        <time>2015-01-05T13:57:40.532Z</time>
      </trkpt>
      <trkpt lat="49.60757" lon="3.67763">
        <ele>117</ele>
        <time>2015-01-05T13:57:41.538Z</time>
      </trkpt>
      <trkpt lat="49.60763" lon="3.67771">
        <ele>116.7</ele>
        <time>2015-01-05T13:57:49.454Z</time>
      </trkpt>
      <trkpt lat="49.60764" lon="3.67773">
        <ele>116.6</ele>
        <time>2015-01-05T13:57:50.558Z</time>
      </trkpt>
      <trkpt lat="49.60769" lon="3.67783">
        <ele>116.2</ele>
        <time>2015-01-05T13:57:58.532Z</time>
      </trkpt>
      <trkpt lat="49.6077" lon="3.67784">
        <ele>116.1</ele>
        <time>2015-01-05T13:57:59.542Z</time>
      </trkpt>
      <trkpt lat="49.60776" lon="3.67795">
        <ele>116.1</ele>
        <time>2015-01-05T13:58:07.458Z</time>
      </trkpt>
      <trkpt lat="49.60776" lon="3.67796">
        <ele>116.2</ele>
        <time>2015-01-05T13:58:08.518Z</time>
      </trkpt>
      <trkpt lat="49.60781" lon="3.67806">
        <ele>116</ele>
        <time>2015-01-05T13:58:17.320Z</time>
      </trkpt>
      <trkpt lat="49.60782" lon="3.67807">
        <ele>116</ele>
        <time>2015-01-05T13:58:17.550Z</time>
      </trkpt>
      <trkpt lat="49.60788" lon="3.67818">
        <ele>115.4</ele>
        <time>2015-01-05T13:58:26.518Z</time>
      </trkpt>
      <trkpt lat="49.60788" lon="3.67819">
        <ele>115.3</ele>
        <time>2015-01-05T13:58:27.524Z</time>
      </trkpt>
      <trkpt lat="49.60794" lon="3.67828">
        <ele>114.5</ele>
        <time>2015-01-05T13:58:34.460Z</time>
      </trkpt>
      <trkpt lat="49.60794" lon="3.6783">
        <ele>114.5</ele>
        <time>2015-01-05T13:58:35.469Z</time>
      </trkpt>
      <trkpt lat="49.608" lon="3.6784">
        <ele>114.6</ele>
        <time>2015-01-05T13:58:43.462Z</time>
      </trkpt>
      <trkpt lat="49.60801" lon="3.67841">
        <ele>114.7</ele>
        <time>2015-01-05T13:58:44.515Z</time>
      </trkpt>
      <trkpt lat="49.60806" lon="3.6785">
        <ele>114.9</ele>
        <time>2015-01-05T13:58:51.542Z</time>
      </trkpt>
      <trkpt lat="49.60807" lon="3.67852">
        <ele>115</ele>
        <time>2015-01-05T13:58:52.526Z</time>
      </trkpt>
      <trkpt lat="49.60812" lon="3.67862">
        <ele>114.9</ele>
        <time>2015-01-05T13:59:00.480Z</time>
      </trkpt>
      <trkpt lat="49.60813" lon="3.67863">
        <ele>115</ele>
        <time>2015-01-05T13:59:01.487Z</time>
      </trkpt>
      <trkpt lat="49.60818" lon="3.67873">
        <ele>115.3</ele>
        <time>2015-01-05T13:59:09.513Z</time>
      </trkpt>
      <trkpt lat="49.60819" lon="3.67875">
        <ele>115.1</ele>
        <time>2015-01-05T13:59:10.520Z</time>
      </trkpt>
      <trkpt lat="49.60824" lon="3.67884">
        <ele>115.4</ele>
        <time>2015-01-05T13:59:17.463Z</time>
      </trkpt>
      <trkpt lat="49.60825" lon="3.67885">
        <ele>115.5</ele>
        <time>2015-01-05T13:59:18.471Z</time>
      </trkpt>
      <trkpt lat="49.60831" lon="3.67895">
        <ele>116.3</ele>
        <time>2015-01-05T13:59:26.514Z</time>
      </trkpt>
      <trkpt lat="49.60832" lon="3.67897">
        <ele>116.4</ele>
        <time>2015-01-05T13:59:27.516Z</time>
      </trkpt>
      <trkpt lat="49.60836" lon="3.67907">
        <ele>116.7</ele>
        <time>2015-01-05T13:59:35.466Z</time>
      </trkpt>
      <trkpt lat="49.60837" lon="3.67909">
        <ele>116.7</ele>
        <time>2015-01-05T13:59:36.493Z</time>
      </trkpt>
      <trkpt lat="49.60842" lon="3.6792">
        <ele>116.3</ele>
        <time>2015-01-05T13:59:45.452Z</time>
      </trkpt>
      <trkpt lat="49.60842" lon="3.67921">
        <ele>116.4</ele>
        <time>2015-01-05T13:59:46.453Z</time>
      </trkpt>
      <trkpt lat="49.60842" lon="3.67921">
        <ele>116.4</ele>
        <time>2015-01-05T13:59:46.536Z</time>
      </trkpt>
      <trkpt lat="49.60842" lon="3.67922">
        <ele>116.3</ele>
        <time>2015-01-05T13:59:47.454Z</time>
      </trkpt>
      <trkpt lat="49.60842" lon="3.67922">
        <ele>116.1</ele>
        <time>2015-01-05T13:59:48.469Z</time>
      </trkpt>
      <trkpt lat="49.60842" lon="3.67923">
        <ele>115.9</ele>
        <time>2015-01-05T13:59:49.485Z</time>
      </trkpt>
      <trkpt lat="49.60847" lon="3.67933">
        <ele>115.3</ele>
        <time>2015-01-05T13:59:58.523Z</time>
      </trkpt>
      <trkpt lat="49.60848" lon="3.67935">
        <ele>115.3</ele>
        <time>2015-01-05T13:59:59.458Z</time>
      </trkpt>
      <trkpt lat="49.60852" lon="3.67945">
        <ele>115.6</ele>
        <time>2015-01-05T14:00:07.481Z</time>
      </trkpt>
      <trkpt lat="49.60853" lon="3.67947">
        <ele>115.7</ele>
        <time>2015-01-05T14:00:08.521Z</time>
      </trkpt>
      <trkpt lat="49.60858" lon="3.67957">
        <ele>115.7</ele>
        <time>2015-01-05T14:00:16.740Z</time>
      </trkpt>
      <trkpt lat="49.60858" lon="3.67958">
        <ele>115.7</ele>
        <time>2015-01-05T14:00:17.531Z</time>
      </trkpt>
      <trkpt lat="49.60864" lon="3.67968">
        <ele>115.6</ele>
        <time>2015-01-05T14:00:26.510Z</time>
      </trkpt>
      <trkpt lat="49.60865" lon="3.67969">
        <ele>115.7</ele>
        <time>2015-01-05T14:00:27.518Z</time>
      </trkpt>
      <trkpt lat="49.6087" lon="3.6798">
        <ele>116.1</ele>
        <time>2015-01-05T14:00:35.467Z</time>
      </trkpt>
      <trkpt lat="49.60871" lon="3.67981">
        <ele>116.2</ele>
        <time>2015-01-05T14:00:36.483Z</time>
      </trkpt>
      <trkpt lat="49.60877" lon="3.67992">
        <ele>116.6</ele>
        <time>2015-01-05T14:00:43.455Z</time>
      </trkpt>
      <trkpt lat="49.60877" lon="3.67993">
        <ele>116.7</ele>
        <time>2015-01-05T14:00:44.519Z</time>
      </trkpt>
      <trkpt lat="49.60883" lon="3.68003">
        <ele>116.7</ele>
        <time>2015-01-05T14:00:52.528Z</time>
      </trkpt>
      <trkpt lat="49.60884" lon="3.68004">
        <ele>116.8</ele>
        <time>2015-01-05T14:00:53.538Z</time>
      </trkpt>
      <trkpt lat="49.60889" lon="3.68014">
        <ele>117.1</ele>
        <time>2015-01-05T14:01:00.463Z</time>
      </trkpt>
      <trkpt lat="49.60889" lon="3.68016">
        <ele>117.1</ele>
        <time>2015-01-05T14:01:01.461Z</time>
      </trkpt>
      <trkpt lat="49.60894" lon="3.68026">
        <ele>117.3</ele>
        <time>2015-01-05T14:01:08.520Z</time>
      </trkpt>
      <trkpt lat="49.60895" lon="3.68028">
        <ele>117.3</ele>
        <time>2015-01-05T14:01:09.517Z</time>
      </trkpt>
      <trkpt lat="49.609" lon="3.68037">
        <ele>117.4</ele>
        <time>2015-01-05T14:01:16.928Z</time>
      </trkpt>
      <trkpt lat="49.60901" lon="3.68039">
        <ele>117.4</ele>
        <time>2015-01-05T14:01:17.468Z</time>
      </trkpt>
      <trkpt lat="49.60906" lon="3.68048">
        <ele>117.9</ele>
        <time>2015-01-05T14:01:23.534Z</time>
      </trkpt>
      <trkpt lat="49.60907" lon="3.68049">
        <ele>118.1</ele>
        <time>2015-01-05T14:01:24.545Z</time>
      </trkpt>
      <trkpt lat="49.60912" lon="3.68059">
        <ele>118.5</ele>
        <time>2015-01-05T14:01:30.459Z</time>
      </trkpt>
      <trkpt lat="49.60913" lon="3.6806">
        <ele>118.6</ele>
        <time>2015-01-05T14:01:31.462Z</time>
      </trkpt>
      <trkpt lat="49.60919" lon="3.68071">
        <ele>118.8</ele>
        <time>2015-01-05T14:01:38.514Z</time>
      </trkpt>
      <trkpt lat="49.60919" lon="3.68073">
        <ele>118.8</ele>
        <time>2015-01-05T14:01:39.522Z</time>
      </trkpt>
      <trkpt lat="49.60921" lon="3.68076">
        <ele>118.9</ele>
        <time>2015-01-05T14:01:42.456Z</time>
      </trkpt>
      <trkpt lat="49.60921" lon="3.68077">
        <ele>118.7</ele>
        <time>2015-01-05T14:01:43.457Z</time>
      </trkpt>
      <trkpt lat="49.60921" lon="3.68077">
        <ele>118.6</ele>
        <time>2015-01-05T14:01:45.525Z</time>
      </trkpt>
      <trkpt lat="49.60921" lon="3.68077">
        <ele>118.4</ele>
        <time>2015-01-05T14:01:46.538Z</time>
      </trkpt>
      <trkpt lat="49.60926" lon="3.68086">
        <ele>118.8</ele>
        <time>2015-01-05T14:01:53.535Z</time>
      </trkpt>
      <trkpt lat="49.60926" lon="3.68088">
        <ele>118.8</ele>
        <time>2015-01-05T14:01:54.542Z</time>
      </trkpt>
      <trkpt lat="49.60931" lon="3.68098">
        <ele>118.8</ele>
        <time>2015-01-05T14:02:01.632Z</time>
      </trkpt>
      <trkpt lat="49.60932" lon="3.68099">
        <ele>118.8</ele>
        <time>2015-01-05T14:02:02.520Z</time>
      </trkpt>
      <trkpt lat="49.60937" lon="3.68109">
        <ele>118.6</ele>
        <time>2015-01-05T14:02:09.520Z</time>
      </trkpt>
      <trkpt lat="49.60937" lon="3.68111">
        <ele>118.5</ele>
        <time>2015-01-05T14:02:10.534Z</time>
      </trkpt>
      <trkpt lat="49.60942" lon="3.6812">
        <ele>118.4</ele>
        <time>2015-01-05T14:02:17.455Z</time>
      </trkpt>
      <trkpt lat="49.60943" lon="3.68122">
        <ele>118.3</ele>
        <time>2015-01-05T14:02:18.460Z</time>
      </trkpt>
      <trkpt lat="49.60948" lon="3.68132">
        <ele>118.2</ele>
        <time>2015-01-05T14:02:26.444Z</time>
      </trkpt>
      <trkpt lat="49.60949" lon="3.68133">
        <ele>118.2</ele>
        <time>2015-01-05T14:02:26.561Z</time>
      </trkpt>
      <trkpt lat="49.60954" lon="3.68143">
        <ele>118.6</ele>
        <time>2015-01-05T14:02:33.517Z</time>
      </trkpt>
      <trkpt lat="49.60955" lon="3.68144">
        <ele>118.6</ele>
        <time>2015-01-05T14:02:34.523Z</time>
      </trkpt>
      <trkpt lat="49.60961" lon="3.68154">
        <ele>118.2</ele>
        <time>2015-01-05T14:02:43.478Z</time>
      </trkpt>
      <trkpt lat="49.60962" lon="3.68155">
        <ele>118.3</ele>
        <time>2015-01-05T14:02:44.518Z</time>
      </trkpt>
      <trkpt lat="49.60965" lon="3.68164">
        <ele>118.1</ele>
        <time>2015-01-05T14:02:51.755Z</time>
      </trkpt>
      <trkpt lat="49.60965" lon="3.68164">
        <ele>118.2</ele>
        <time>2015-01-05T14:02:52.534Z</time>
      </trkpt>
      <trkpt lat="49.60966" lon="3.68165">
        <ele>118.2</ele>
        <time>2015-01-05T14:02:53.458Z</time>
      </trkpt>
      <trkpt lat="49.60971" lon="3.68175">
        <ele>118.8</ele>
        <time>2015-01-05T14:03:02.517Z</time>
      </trkpt>
      <trkpt lat="49.60972" lon="3.68176">
        <ele>118.9</ele>
        <time>2015-01-05T14:03:03.516Z</time>
      </trkpt>
      <trkpt lat="49.60977" lon="3.68187">
        <ele>118.8</ele>
        <time>2015-01-05T14:03:10.543Z</time>
      </trkpt>
      <trkpt lat="49.60978" lon="3.68188">
        <ele>118.9</ele>
        <time>2015-01-05T14:03:11.458Z</time>
      </trkpt>
      <trkpt lat="49.60983" lon="3.68198">
        <ele>119</ele>
        <time>2015-01-05T14:03:18.460Z</time>
      </trkpt>
      <trkpt lat="49.60983" lon="3.68199">
        <ele>119.1</ele>
        <time>2015-01-05T14:03:19.458Z</time>
      </trkpt>
      <trkpt lat="49.60989" lon="3.68209">
        <ele>119.5</ele>
        <time>2015-01-05T14:03:26.510Z</time>
      </trkpt>
      <trkpt lat="49.6099" lon="3.6821">
        <ele>119.5</ele>
        <time>2015-01-05T14:03:27.515Z</time>
      </trkpt>
      <trkpt lat="49.60995" lon="3.68221">
        <ele>119.5</ele>
        <time>2015-01-05T14:03:34.468Z</time>
      </trkpt>
      <trkpt lat="49.60996" lon="3.68222">
        <ele>119.5</ele>
        <time>2015-01-05T14:03:35.480Z</time>
      </trkpt>
      <trkpt lat="49.61" lon="3.68232">
        <ele>119.7</ele>
        <time>2015-01-05T14:03:42.460Z</time>
      </trkpt>
      <trkpt lat="49.61001" lon="3.68234">
        <ele>119.9</ele>
        <time>2015-01-05T14:03:43.458Z</time>
      </trkpt>
      <trkpt lat="49.61006" lon="3.68243">
        <ele>120.2</ele>
        <time>2015-01-05T14:03:49.459Z</time>
      </trkpt>
      <trkpt lat="49.61007" lon="3.68244">
        <ele>120.3</ele>
        <time>2015-01-05T14:03:50.516Z</time>
      </trkpt>
      <trkpt lat="49.61012" lon="3.68255">
        <ele>120.7</ele>
        <time>2015-01-05T14:03:57.527Z</time>
      </trkpt>
      <trkpt lat="49.61014" lon="3.68257">
        <ele>120.8</ele>
        <time>2015-01-05T14:03:58.533Z</time>
      </trkpt>
      <trkpt lat="49.61019" lon="3.68266">
        <ele>121.2</ele>
        <time>2015-01-05T14:04:04.529Z</time>
      </trkpt>
      <trkpt lat="49.61019" lon="3.68267">
        <ele>121.2</ele>
        <time>2015-01-05T14:04:05.530Z</time>
      </trkpt>
      <trkpt lat="49.61025" lon="3.68277">
        <ele>121</ele>
        <time>2015-01-05T14:04:12.543Z</time>
      </trkpt>
      <trkpt lat="49.61026" lon="3.68279">
        <ele>120.9</ele>
        <time>2015-01-05T14:04:13.460Z</time>
      </trkpt>
      <trkpt lat="49.61031" lon="3.68288">
        <ele>120.9</ele>
        <time>2015-01-05T14:04:19.469Z</time>
      </trkpt>
      <trkpt lat="49.61032" lon="3.68289">
        <ele>121</ele>
        <time>2015-01-05T14:04:20.516Z</time>
      </trkpt>
      <trkpt lat="49.61037" lon="3.68299">
        <ele>121.2</ele>
        <time>2015-01-05T14:04:26.507Z</time>
      </trkpt>
      <trkpt lat="49.61038" lon="3.68301">
        <ele>121.3</ele>
        <time>2015-01-05T14:04:27.519Z</time>
      </trkpt>
      <trkpt lat="49.61044" lon="3.68311">
        <ele>122.3</ele>
        <time>2015-01-05T14:04:33.524Z</time>
      </trkpt>
      <trkpt lat="49.61045" lon="3.68312">
        <ele>122.4</ele>
        <time>2015-01-05T14:04:34.530Z</time>
      </trkpt>
      <trkpt lat="49.6105" lon="3.68322">
        <ele>122.8</ele>
        <time>2015-01-05T14:04:40.467Z</time>
      </trkpt>
      <trkpt lat="49.61051" lon="3.68323">
        <ele>122.8</ele>
        <time>2015-01-05T14:04:41.473Z</time>
      </trkpt>
      <trkpt lat="49.61056" lon="3.68333">
        <ele>122.9</ele>
        <time>2015-01-05T14:04:47.457Z</time>
      </trkpt>
      <trkpt lat="49.61057" lon="3.68334">
        <ele>122.9</ele>
        <time>2015-01-05T14:04:48.459Z</time>
      </trkpt>
      <trkpt lat="49.61063" lon="3.68344">
        <ele>123.2</ele>
        <time>2015-01-05T14:04:54.541Z</time>
      </trkpt>
      <trkpt lat="49.61063" lon="3.68345">
        <ele>123.2</ele>
        <time>2015-01-05T14:04:55.458Z</time>
      </trkpt>
      <trkpt lat="49.61069" lon="3.68353">
        <ele>123.5</ele>
        <time>2015-01-05T14:05:01.743Z</time>
      </trkpt>
      <trkpt lat="49.6107" lon="3.68355">
        <ele>123.6</ele>
        <time>2015-01-05T14:05:02.518Z</time>
      </trkpt>
      <trkpt lat="49.61075" lon="3.68365">
        <ele>124.1</ele>
        <time>2015-01-05T14:05:08.563Z</time>
      </trkpt>
      <trkpt lat="49.61075" lon="3.68366">
        <ele>124.2</ele>
        <time>2015-01-05T14:05:09.458Z</time>
      </trkpt>
      <trkpt lat="49.6108" lon="3.68377">
        <ele>124.5</ele>
        <time>2015-01-05T14:05:16.749Z</time>
      </trkpt>
      <trkpt lat="49.61081" lon="3.68379">
        <ele>124.4</ele>
        <time>2015-01-05T14:05:17.457Z</time>
      </trkpt>
      <trkpt lat="49.61086" lon="3.68389">
        <ele>124.8</ele>
        <time>2015-01-05T14:05:24.458Z</time>
      </trkpt>
      <trkpt lat="49.61087" lon="3.6839">
        <ele>124.8</ele>
        <time>2015-01-05T14:05:25.460Z</time>
      </trkpt>
      <trkpt lat="49.61092" lon="3.684">
        <ele>125.2</ele>
        <time>2015-01-05T14:05:32.549Z</time>
      </trkpt>
      <trkpt lat="49.61092" lon="3.68402">
        <ele>125.2</ele>
        <time>2015-01-05T14:05:33.455Z</time>
      </trkpt>
      <trkpt lat="49.61098" lon="3.68412">
        <ele>125.3</ele>
        <time>2015-01-05T14:05:41.556Z</time>
      </trkpt>
      <trkpt lat="49.61099" lon="3.68413">
        <ele>125.2</ele>
        <time>2015-01-05T14:05:42.458Z</time>
      </trkpt>
      <trkpt lat="49.61103" lon="3.68424">
        <ele>125.2</ele>
        <time>2015-01-05T14:05:49.547Z</time>
      </trkpt>
      <trkpt lat="49.61104" lon="3.68426">
        <ele>125.2</ele>
        <time>2015-01-05T14:05:50.558Z</time>
      </trkpt>
      <trkpt lat="49.61109" lon="3.68435">
        <ele>125.2</ele>
        <time>2015-01-05T14:05:56.586Z</time>
      </trkpt>
      <trkpt lat="49.6111" lon="3.68437">
        <ele>125.2</ele>
        <time>2015-01-05T14:05:57.517Z</time>
      </trkpt>
      <trkpt lat="49.61114" lon="3.68447">
        <ele>125</ele>
        <time>2015-01-05T14:06:03.459Z</time>
      </trkpt>
      <trkpt lat="49.61115" lon="3.68448">
        <ele>125</ele>
        <time>2015-01-05T14:06:04.463Z</time>
      </trkpt>
      <trkpt lat="49.6112" lon="3.68458">
        <ele>124.9</ele>
        <time>2015-01-05T14:06:10.530Z</time>
      </trkpt>
      <trkpt lat="49.6112" lon="3.6846">
        <ele>124.9</ele>
        <time>2015-01-05T14:06:11.542Z</time>
      </trkpt>
      <trkpt lat="49.61125" lon="3.6847">
        <ele>124.3</ele>
        <time>2015-01-05T14:06:17.539Z</time>
      </trkpt>
      <trkpt lat="49.61126" lon="3.68471">
        <ele>124.3</ele>
        <time>2015-01-05T14:06:18.547Z</time>
      </trkpt>
      <trkpt lat="49.61131" lon="3.68481">
        <ele>124.2</ele>
        <time>2015-01-05T14:06:24.546Z</time>
      </trkpt>
      <trkpt lat="49.61132" lon="3.68483">
        <ele>124.2</ele>
        <time>2015-01-05T14:06:25.445Z</time>
      </trkpt>
      <trkpt lat="49.61137" lon="3.68493">
        <ele>123.9</ele>
        <time>2015-01-05T14:06:31.475Z</time>
      </trkpt>
      <trkpt lat="49.61138" lon="3.68494">
        <ele>123.8</ele>
        <time>2015-01-05T14:06:32.544Z</time>
      </trkpt>
      <trkpt lat="49.61143" lon="3.68505">
        <ele>123.5</ele>
        <time>2015-01-05T14:06:38.516Z</time>
      </trkpt>
      <trkpt lat="49.61144" lon="3.68506">
        <ele>123.5</ele>
        <time>2015-01-05T14:06:39.522Z</time>
      </trkpt>
      <trkpt lat="49.61149" lon="3.68516">
        <ele>123.7</ele>
        <time>2015-01-05T14:06:45.519Z</time>
      </trkpt>
      <trkpt lat="49.6115" lon="3.68518">
        <ele>123.7</ele>
        <time>2015-01-05T14:06:46.526Z</time>
      </trkpt>
      <trkpt lat="49.61154" lon="3.68527">
        <ele>123.6</ele>
        <time>2015-01-05T14:06:52.521Z</time>
      </trkpt>
      <trkpt lat="49.61155" lon="3.68529">
        <ele>123.7</ele>
        <time>2015-01-05T14:06:53.532Z</time>
      </trkpt>
      <trkpt lat="49.6116" lon="3.68539">
        <ele>124.1</ele>
        <time>2015-01-05T14:06:59.477Z</time>
      </trkpt>
      <trkpt lat="49.61161" lon="3.6854">
        <ele>124.1</ele>
        <time>2015-01-05T14:07:00.484Z</time>
      </trkpt>
      <trkpt lat="49.61165" lon="3.6855">
        <ele>124.5</ele>
        <time>2015-01-05T14:07:07.104Z</time>
      </trkpt>
      <trkpt lat="49.61166" lon="3.68552">
        <ele>124.6</ele>
        <time>2015-01-05T14:07:07.549Z</time>
      </trkpt>
      <trkpt lat="49.61171" lon="3.68563">
        <ele>124.5</ele>
        <time>2015-01-05T14:07:14.517Z</time>
      </trkpt>
      <trkpt lat="49.61172" lon="3.68564">
        <ele>124.6</ele>
        <time>2015-01-05T14:07:15.514Z</time>
      </trkpt>
      <trkpt lat="49.61178" lon="3.68573">
        <ele>124.9</ele>
        <time>2015-01-05T14:07:22.255Z</time>
      </trkpt>
      <trkpt lat="49.61179" lon="3.68575">
        <ele>125</ele>
        <time>2015-01-05T14:07:22.457Z</time>
      </trkpt>
      <trkpt lat="49.61184" lon="3.68584">
        <ele>125.4</ele>
        <time>2015-01-05T14:07:28.524Z</time>
      </trkpt>
      <trkpt lat="49.61185" lon="3.68586">
        <ele>125.5</ele>
        <time>2015-01-05T14:07:29.537Z</time>
      </trkpt>
      <trkpt lat="49.6119" lon="3.68596">
        <ele>125.6</ele>
        <time>2015-01-05T14:07:35.549Z</time>
      </trkpt>
      <trkpt lat="49.61191" lon="3.68598">
        <ele>125.6</ele>
        <time>2015-01-05T14:07:36.456Z</time>
      </trkpt>
      <trkpt lat="49.61195" lon="3.68609">
        <ele>125.9</ele>
        <time>2015-01-05T14:07:43.459Z</time>
      </trkpt>
      <trkpt lat="49.61196" lon="3.6861">
        <ele>125.9</ele>
        <time>2015-01-05T14:07:44.514Z</time>
      </trkpt>
      <trkpt lat="49.61201" lon="3.6862">
        <ele>126.3</ele>
        <time>2015-01-05T14:07:52.525Z</time>
      </trkpt>
      <trkpt lat="49.61202" lon="3.68622">
        <ele>126.4</ele>
        <time>2015-01-05T14:07:53.532Z</time>
      </trkpt>
      <trkpt lat="49.61208" lon="3.68632">
        <ele>126.4</ele>
        <time>2015-01-05T14:08:01.649Z</time>
      </trkpt>
      <trkpt lat="49.61208" lon="3.68633">
        <ele>126.4</ele>
        <time>2015-01-05T14:08:02.521Z</time>
      </trkpt>
      <trkpt lat="49.61213" lon="3.68644">
        <ele>126.6</ele>
        <time>2015-01-05T14:08:09.525Z</time>
      </trkpt>
      <trkpt lat="49.61214" lon="3.68645">
        <ele>126.6</ele>
        <time>2015-01-05T14:08:10.537Z</time>
      </trkpt>
      <trkpt lat="49.6122" lon="3.68655">
        <ele>126.6</ele>
        <time>2015-01-05T14:08:18.546Z</time>
      </trkpt>
      <trkpt lat="49.6122" lon="3.68656">
        <ele>126.7</ele>
        <time>2015-01-05T14:08:19.460Z</time>
      </trkpt>
      <trkpt lat="49.61225" lon="3.68667">
        <ele>126.9</ele>
        <time>2015-01-05T14:08:26.510Z</time>
      </trkpt>
      <trkpt lat="49.61226" lon="3.68668">
        <ele>127</ele>
        <time>2015-01-05T14:08:27.538Z</time>
      </trkpt>
      <trkpt lat="49.61231" lon="3.68678">
        <ele>127.4</ele>
        <time>2015-01-05T14:08:34.455Z</time>
      </trkpt>
      <trkpt lat="49.61231" lon="3.6868">
        <ele>127.3</ele>
        <time>2015-01-05T14:08:35.460Z</time>
      </trkpt>
      <trkpt lat="49.61236" lon="3.6869">
        <ele>127.7</ele>
        <time>2015-01-05T14:08:42.456Z</time>
      </trkpt>
      <trkpt lat="49.61237" lon="3.68691">
        <ele>127.6</ele>
        <time>2015-01-05T14:08:43.458Z</time>
      </trkpt>
      <trkpt lat="49.61242" lon="3.68702">
        <ele>128</ele>
        <time>2015-01-05T14:08:51.779Z</time>
      </trkpt>
      <trkpt lat="49.61242" lon="3.68704">
        <ele>128.1</ele>
        <time>2015-01-05T14:08:52.532Z</time>
      </trkpt>
      <trkpt lat="49.61248" lon="3.68713">
        <ele>128.5</ele>
        <time>2015-01-05T14:09:00.470Z</time>
      </trkpt>
      <trkpt lat="49.61249" lon="3.68715">
        <ele>128.6</ele>
        <time>2015-01-05T14:09:01.472Z</time>
      </trkpt>
      <trkpt lat="49.61254" lon="3.68725">
        <ele>128.5</ele>
        <time>2015-01-05T14:09:10.522Z</time>
      </trkpt>
      <trkpt lat="49.61255" lon="3.68727">
        <ele>128.5</ele>
        <time>2015-01-05T14:09:11.530Z</time>
      </trkpt>
      <trkpt lat="49.61259" lon="3.68736">
        <ele>129</ele>
        <time>2015-01-05T14:09:17.469Z</time>
      </trkpt>
      <trkpt lat="49.6126" lon="3.68738">
        <ele>129</ele>
        <time>2015-01-05T14:09:18.480Z</time>
      </trkpt>
      <trkpt lat="49.61264" lon="3.68748">
        <ele>128.9</ele>
        <time>2015-01-05T14:09:26.434Z</time>
      </trkpt>
      <trkpt lat="49.61265" lon="3.6875">
        <ele>128.9</ele>
        <time>2015-01-05T14:09:26.518Z</time>
      </trkpt>
      <trkpt lat="49.6127" lon="3.6876">
        <ele>129.2</ele>
        <time>2015-01-05T14:09:33.455Z</time>
      </trkpt>
      <trkpt lat="49.61271" lon="3.68761">
        <ele>129.2</ele>
        <time>2015-01-05T14:09:34.462Z</time>
      </trkpt>
      <trkpt lat="49.61276" lon="3.68771">
        <ele>129.4</ele>
        <time>2015-01-05T14:09:41.529Z</time>
      </trkpt>
      <trkpt lat="49.61277" lon="3.68773">
        <ele>129.3</ele>
        <time>2015-01-05T14:09:42.548Z</time>
      </trkpt>
      <trkpt lat="49.61282" lon="3.68783">
        <ele>129.2</ele>
        <time>2015-01-05T14:09:50.519Z</time>
      </trkpt>
      <trkpt lat="49.61283" lon="3.68785">
        <ele>129.2</ele>
        <time>2015-01-05T14:09:51.520Z</time>
      </trkpt>
      <trkpt lat="49.61288" lon="3.68795">
        <ele>129.3</ele>
        <time>2015-01-05T14:09:58.527Z</time>
      </trkpt>
      <trkpt lat="49.61288" lon="3.68796">
        <ele>129.6</ele>
        <time>2015-01-05T14:09:59.528Z</time>
      </trkpt>
      <trkpt lat="49.61293" lon="3.68807">
        <ele>129.6</ele>
        <time>2015-01-05T14:10:06.873Z</time>
      </trkpt>
      <trkpt lat="49.61294" lon="3.68808">
        <ele>129.7</ele>
        <time>2015-01-05T14:10:07.479Z</time>
      </trkpt>
      <trkpt lat="49.61299" lon="3.6882">
        <ele>129.8</ele>
        <time>2015-01-05T14:10:15.522Z</time>
      </trkpt>
      <trkpt lat="49.61299" lon="3.68821">
        <ele>129.8</ele>
        <time>2015-01-05T14:10:16.528Z</time>
      </trkpt>
      <trkpt lat="49.61304" lon="3.68831">
        <ele>130</ele>
        <time>2015-01-05T14:10:23.536Z</time>
      </trkpt>
      <trkpt lat="49.61304" lon="3.68833">
        <ele>129.9</ele>
        <time>2015-01-05T14:10:24.539Z</time>
      </trkpt>
      <trkpt lat="49.61308" lon="3.68843">
        <ele>129.6</ele>
        <time>2015-01-05T14:10:31.467Z</time>
      </trkpt>
      <trkpt lat="49.61309" lon="3.68845">
        <ele>129.6</ele>
        <time>2015-01-05T14:10:32.531Z</time>
      </trkpt>
      <trkpt lat="49.61314" lon="3.68854">
        <ele>129.9</ele>
        <time>2015-01-05T14:10:39.526Z</time>
      </trkpt>
      <trkpt lat="49.61315" lon="3.68855">
        <ele>129.9</ele>
        <time>2015-01-05T14:10:40.544Z</time>
      </trkpt>
      <trkpt lat="49.61321" lon="3.68865">
        <ele>130.4</ele>
        <time>2015-01-05T14:10:47.539Z</time>
      </trkpt>
      <trkpt lat="49.61321" lon="3.68867">
        <ele>130.5</ele>
        <time>2015-01-05T14:10:48.545Z</time>
      </trkpt>
      <trkpt lat="49.61326" lon="3.68877">
        <ele>130.9</ele>
        <time>2015-01-05T14:10:55.501Z</time>
      </trkpt>
      <trkpt lat="49.61327" lon="3.68878">
        <ele>130.9</ele>
        <time>2015-01-05T14:10:56.519Z</time>
      </trkpt>
      <trkpt lat="49.61332" lon="3.68888">
        <ele>131.2</ele>
        <time>2015-01-05T14:11:03.527Z</time>
      </trkpt>
      <trkpt lat="49.61333" lon="3.6889">
        <ele>131.2</ele>
        <time>2015-01-05T14:11:04.537Z</time>
      </trkpt>
      <trkpt lat="49.61338" lon="3.68899">
        <ele>131.4</ele>
        <time>2015-01-05T14:11:11.732Z</time>
      </trkpt>
      <trkpt lat="49.61339" lon="3.68901">
        <ele>131.4</ele>
        <time>2015-01-05T14:11:12.532Z</time>
      </trkpt>
      <trkpt lat="49.61344" lon="3.68911">
        <ele>131.5</ele>
        <time>2015-01-05T14:11:19.492Z</time>
      </trkpt>
      <trkpt lat="49.61344" lon="3.68912">
        <ele>131.6</ele>
        <time>2015-01-05T14:11:20.516Z</time>
      </trkpt>
      <trkpt lat="49.61349" lon="3.68922">
        <ele>131.4</ele>
        <time>2015-01-05T14:11:27.456Z</time>
      </trkpt>
      <trkpt lat="49.61349" lon="3.68923">
        <ele>131.5</ele>
        <time>2015-01-05T14:11:28.462Z</time>
      </trkpt>
      <trkpt lat="49.61354" lon="3.68934">
        <ele>131.4</ele>
        <time>2015-01-05T14:11:36.717Z</time>
      </trkpt>
      <trkpt lat="49.61355" lon="3.68936">
        <ele>131.3</ele>
        <time>2015-01-05T14:11:37.458Z</time>
      </trkpt>
      <trkpt lat="49.6136" lon="3.68946">
        <ele>131.7</ele>
        <time>2015-01-05T14:11:44.516Z</time>
      </trkpt>
      <trkpt lat="49.6136" lon="3.68947">
        <ele>131.6</ele>
        <time>2015-01-05T14:11:45.520Z</time>
      </trkpt>
      <trkpt lat="49.61366" lon="3.68957">
        <ele>132</ele>
        <time>2015-01-05T14:11:53.542Z</time>
      </trkpt>
      <trkpt lat="49.61367" lon="3.68959">
        <ele>132</ele>
        <time>2015-01-05T14:11:54.546Z</time>
      </trkpt>
      <trkpt lat="49.61372" lon="3.68969">
        <ele>132.4</ele>
        <time>2015-01-05T14:12:01.858Z</time>
      </trkpt>
      <trkpt lat="49.61373" lon="3.6897">
        <ele>132.5</ele>
        <time>2015-01-05T14:12:02.557Z</time>
      </trkpt>
      <trkpt lat="49.61378" lon="3.68981">
        <ele>132.8</ele>
        <time>2015-01-05T14:12:09.522Z</time>
      </trkpt>
      <trkpt lat="49.61378" lon="3.68982">
        <ele>132.9</ele>
        <time>2015-01-05T14:12:10.530Z</time>
      </trkpt>
      <trkpt lat="49.61383" lon="3.68992">
        <ele>133.2</ele>
        <time>2015-01-05T14:12:17.537Z</time>
      </trkpt>
      <trkpt lat="49.61384" lon="3.68993">
        <ele>133.1</ele>
        <time>2015-01-05T14:12:18.546Z</time>
      </trkpt>
      <trkpt lat="49.61389" lon="3.69003">
        <ele>133.8</ele>
        <time>2015-01-05T14:12:26.452Z</time>
      </trkpt>
      <trkpt lat="49.6139" lon="3.69005">
        <ele>133.9</ele>
        <time>2015-01-05T14:12:26.506Z</time>
      </trkpt>
      <trkpt lat="49.61395" lon="3.69015">
        <ele>133.9</ele>
        <time>2015-01-05T14:12:33.464Z</time>
      </trkpt>
      <trkpt lat="49.61396" lon="3.69016">
        <ele>133.9</ele>
        <time>2015-01-05T14:12:34.461Z</time>
      </trkpt>
      <trkpt lat="49.61401" lon="3.69027">
        <ele>133.9</ele>
        <time>2015-01-05T14:12:42.459Z</time>
      </trkpt>
      <trkpt lat="49.61402" lon="3.69029">
        <ele>134</ele>
        <time>2015-01-05T14:12:43.459Z</time>
      </trkpt>
      <trkpt lat="49.61407" lon="3.69039">
        <ele>133.8</ele>
        <time>2015-01-05T14:12:50.551Z</time>
      </trkpt>
      <trkpt lat="49.61408" lon="3.6904">
        <ele>133.9</ele>
        <time>2015-01-05T14:12:51.446Z</time>
      </trkpt>
      <trkpt lat="49.61413" lon="3.6905">
        <ele>134.6</ele>
        <time>2015-01-05T14:12:58.525Z</time>
      </trkpt>
      <trkpt lat="49.61413" lon="3.69051">
        <ele>134.4</ele>
        <time>2015-01-05T14:12:59.534Z</time>
      </trkpt>
      <trkpt lat="49.61419" lon="3.69061">
        <ele>134.7</ele>
        <time>2015-01-05T14:13:07.106Z</time>
      </trkpt>
      <trkpt lat="49.6142" lon="3.69062">
        <ele>134.6</ele>
        <time>2015-01-05T14:13:07.468Z</time>
      </trkpt>
      <trkpt lat="49.61424" lon="3.69074">
        <ele>134.7</ele>
        <time>2015-01-05T14:13:15.462Z</time>
      </trkpt>
      <trkpt lat="49.61425" lon="3.69075">
        <ele>134.8</ele>
        <time>2015-01-05T14:13:16.459Z</time>
      </trkpt>
      <trkpt lat="49.61429" lon="3.69086">
        <ele>134.5</ele>
        <time>2015-01-05T14:13:24.459Z</time>
      </trkpt>
      <trkpt lat="49.6143" lon="3.69087">
        <ele>134.5</ele>
        <time>2015-01-05T14:13:25.460Z</time>
      </trkpt>
      <trkpt lat="49.61435" lon="3.69097">
        <ele>134</ele>
        <time>2015-01-05T14:13:33.461Z</time>
      </trkpt>
      <trkpt lat="49.61436" lon="3.69098">
        <ele>134</ele>
        <time>2015-01-05T14:13:34.460Z</time>
      </trkpt>
      <trkpt lat="49.61441" lon="3.69109">
        <ele>134.3</ele>
        <time>2015-01-05T14:13:42.456Z</time>
      </trkpt>
      <trkpt lat="49.61441" lon="3.6911">
        <ele>134.2</ele>
        <time>2015-01-05T14:13:43.459Z</time>
      </trkpt>
      <trkpt lat="49.61446" lon="3.69122">
        <ele>134.2</ele>
        <time>2015-01-05T14:13:51.594Z</time>
      </trkpt>
      <trkpt lat="49.61446" lon="3.69124">
        <ele>134.2</ele>
        <time>2015-01-05T14:13:52.535Z</time>
      </trkpt>
      <trkpt lat="49.61451" lon="3.69135">
        <ele>134.4</ele>
        <time>2015-01-05T14:13:59.525Z</time>
      </trkpt>
      <trkpt lat="49.61452" lon="3.69137">
        <ele>134.4</ele>
        <time>2015-01-05T14:14:00.530Z</time>
      </trkpt>
      <trkpt lat="49.61456" lon="3.69148">
        <ele>133.9</ele>
        <time>2015-01-05T14:14:07.477Z</time>
      </trkpt>
      <trkpt lat="49.61456" lon="3.69149">
        <ele>134</ele>
        <time>2015-01-05T14:14:08.519Z</time>
      </trkpt>
      <trkpt lat="49.61461" lon="3.69161">
        <ele>134.2</ele>
        <time>2015-01-05T14:14:15.525Z</time>
      </trkpt>
      <trkpt lat="49.61461" lon="3.69162">
        <ele>134.1</ele>
        <time>2015-01-05T14:14:16.531Z</time>
      </trkpt>
      <trkpt lat="49.61465" lon="3.69173">
        <ele>133.8</ele>
        <time>2015-01-05T14:14:23.542Z</time>
      </trkpt>
      <trkpt lat="49.61466" lon="3.69174">
        <ele>133.7</ele>
        <time>2015-01-05T14:14:24.551Z</time>
      </trkpt>
      <trkpt lat="49.61469" lon="3.69185">
        <ele>133.6</ele>
        <time>2015-01-05T14:14:31.503Z</time>
      </trkpt>
      <trkpt lat="49.6147" lon="3.69187">
        <ele>133.5</ele>
        <time>2015-01-05T14:14:32.517Z</time>
      </trkpt>
      <trkpt lat="49.61475" lon="3.69198">
        <ele>133.6</ele>
        <time>2015-01-05T14:14:40.531Z</time>
      </trkpt>
      <trkpt lat="49.61475" lon="3.69199">
        <ele>133.6</ele>
        <time>2015-01-05T14:14:41.536Z</time>
      </trkpt>
      <trkpt lat="49.6148" lon="3.69209">
        <ele>133.4</ele>
        <time>2015-01-05T14:14:48.456Z</time>
      </trkpt>
      <trkpt lat="49.6148" lon="3.69211">
        <ele>133.5</ele>
        <time>2015-01-05T14:14:49.458Z</time>
      </trkpt>
      <trkpt lat="49.61485" lon="3.69222">
        <ele>133.6</ele>
        <time>2015-01-05T14:14:56.859Z</time>
      </trkpt>
      <trkpt lat="49.61486" lon="3.69224">
        <ele>133.6</ele>
        <time>2015-01-05T14:14:57.459Z</time>
      </trkpt>
      <trkpt lat="49.61491" lon="3.69234">
        <ele>133.6</ele>
        <time>2015-01-05T14:15:04.532Z</time>
      </trkpt>
      <trkpt lat="49.61492" lon="3.69236">
        <ele>133.6</ele>
        <time>2015-01-05T14:15:05.540Z</time>
      </trkpt>
      <trkpt lat="49.61496" lon="3.69246">
        <ele>133.6</ele>
        <time>2015-01-05T14:15:12.461Z</time>
      </trkpt>
      <trkpt lat="49.61497" lon="3.69248">
        <ele>133.7</ele>
        <time>2015-01-05T14:15:13.461Z</time>
      </trkpt>
      <trkpt lat="49.61502" lon="3.69259">
        <ele>134.1</ele>
        <time>2015-01-05T14:15:22.222Z</time>
      </trkpt>
      <trkpt lat="49.61502" lon="3.69261">
        <ele>134</ele>
        <time>2015-01-05T14:15:22.444Z</time>
      </trkpt>
      <trkpt lat="49.61506" lon="3.69273">
        <ele>134.1</ele>
        <time>2015-01-05T14:15:30.542Z</time>
      </trkpt>
      <trkpt lat="49.61506" lon="3.69274">
        <ele>134</ele>
        <time>2015-01-05T14:15:31.447Z</time>
      </trkpt>
      <trkpt lat="49.61511" lon="3.69284">
        <ele>133.8</ele>
        <time>2015-01-05T14:15:38.569Z</time>
      </trkpt>
      <trkpt lat="49.61512" lon="3.69286">
        <ele>133.8</ele>
        <time>2015-01-05T14:15:39.462Z</time>
      </trkpt>
      <trkpt lat="49.61516" lon="3.69297">
        <ele>133.3</ele>
        <time>2015-01-05T14:15:46.526Z</time>
      </trkpt>
      <trkpt lat="49.61516" lon="3.69299">
        <ele>133.4</ele>
        <time>2015-01-05T14:15:47.540Z</time>
      </trkpt>
      <trkpt lat="49.61517" lon="3.69312">
        <ele>133</ele>
        <time>2015-01-05T14:15:55.460Z</time>
      </trkpt>
      <trkpt lat="49.61517" lon="3.69313">
        <ele>133</ele>
        <time>2015-01-05T14:15:56.563Z</time>
      </trkpt>
      <trkpt lat="49.61518" lon="3.69327">
        <ele>132.8</ele>
        <time>2015-01-05T14:16:04.523Z</time>
      </trkpt>
      <trkpt lat="49.61519" lon="3.69329">
        <ele>132.9</ele>
        <time>2015-01-05T14:16:05.527Z</time>
      </trkpt>
      <trkpt lat="49.61518" lon="3.69341">
        <ele>132.6</ele>
        <time>2015-01-05T14:16:12.479Z</time>
      </trkpt>
      <trkpt lat="49.61518" lon="3.69343">
        <ele>132.5</ele>
        <time>2015-01-05T14:16:13.484Z</time>
      </trkpt>
      <trkpt lat="49.6152" lon="3.69356">
        <ele>132.8</ele>
        <time>2015-01-05T14:16:21.729Z</time>
      </trkpt>
      <trkpt lat="49.6152" lon="3.69358">
        <ele>132.7</ele>
        <time>2015-01-05T14:16:22.534Z</time>
      </trkpt>
      <trkpt lat="49.61521" lon="3.69371">
        <ele>132.4</ele>
        <time>2015-01-05T14:16:30.546Z</time>
      </trkpt>
      <trkpt lat="49.61521" lon="3.69373">
        <ele>132.4</ele>
        <time>2015-01-05T14:16:31.457Z</time>
      </trkpt>
      <trkpt lat="49.61522" lon="3.69384">
        <ele>132.6</ele>
        <time>2015-01-05T14:16:38.518Z</time>
      </trkpt>
      <trkpt lat="49.61523" lon="3.69386">
        <ele>132.8</ele>
        <time>2015-01-05T14:16:39.519Z</time>
      </trkpt>
      <trkpt lat="49.61523" lon="3.694">
        <ele>133</ele>
        <time>2015-01-05T14:16:46.710Z</time>
      </trkpt>
      <trkpt lat="49.61523" lon="3.69401">
        <ele>133</ele>
        <time>2015-01-05T14:16:47.535Z</time>
      </trkpt>
      <trkpt lat="49.61524" lon="3.69414">
        <ele>132.6</ele>
        <time>2015-01-05T14:16:54.463Z</time>
      </trkpt>
      <trkpt lat="49.61525" lon="3.69416">
        <ele>132.7</ele>
        <time>2015-01-05T14:16:55.475Z</time>
      </trkpt>
      <trkpt lat="49.61526" lon="3.69428">
        <ele>132.7</ele>
        <time>2015-01-05T14:17:02.520Z</time>
      </trkpt>
      <trkpt lat="49.61526" lon="3.6943">
        <ele>132.7</ele>
        <time>2015-01-05T14:17:03.516Z</time>
      </trkpt>
      <trkpt lat="49.61527" lon="3.69443">
        <ele>132.8</ele>
        <time>2015-01-05T14:17:10.464Z</time>
      </trkpt>
      <trkpt lat="49.61527" lon="3.69445">
        <ele>132.7</ele>
        <time>2015-01-05T14:17:11.468Z</time>
      </trkpt>
      <trkpt lat="49.61529" lon="3.69457">
        <ele>132.9</ele>
        <time>2015-01-05T14:17:19.459Z</time>
      </trkpt>
      <trkpt lat="49.61529" lon="3.69458">
        <ele>133</ele>
        <time>2015-01-05T14:17:20.571Z</time>
      </trkpt>
      <trkpt lat="49.61529" lon="3.69471">
        <ele>133.5</ele>
        <time>2015-01-05T14:17:27.520Z</time>
      </trkpt>
      <trkpt lat="49.61529" lon="3.69473">
        <ele>133.5</ele>
        <time>2015-01-05T14:17:28.533Z</time>
      </trkpt>
      <trkpt lat="49.61531" lon="3.69486">
        <ele>133.7</ele>
        <time>2015-01-05T14:17:36.506Z</time>
      </trkpt>
      <trkpt lat="49.61531" lon="3.69487">
        <ele>133.8</ele>
        <time>2015-01-05T14:17:36.542Z</time>
      </trkpt>
      <trkpt lat="49.61532" lon="3.69499">
        <ele>133.2</ele>
        <time>2015-01-05T14:17:43.459Z</time>
      </trkpt>
      <trkpt lat="49.61532" lon="3.69501">
        <ele>133.1</ele>
        <time>2015-01-05T14:17:44.516Z</time>
      </trkpt>
      <trkpt lat="49.61533" lon="3.69513">
        <ele>132.4</ele>
        <time>2015-01-05T14:17:51.774Z</time>
      </trkpt>
      <trkpt lat="49.61533" lon="3.69515">
        <ele>132.4</ele>
        <time>2015-01-05T14:17:52.459Z</time>
      </trkpt>
      <trkpt lat="49.61535" lon="3.69528">
        <ele>131.8</ele>
        <time>2015-01-05T14:18:00.539Z</time>
      </trkpt>
      <trkpt lat="49.61535" lon="3.6953">
        <ele>131.8</ele>
        <time>2015-01-05T14:18:01.548Z</time>
      </trkpt>
      <trkpt lat="49.61537" lon="3.69544">
        <ele>131.6</ele>
        <time>2015-01-05T14:18:08.492Z</time>
      </trkpt>
      <trkpt lat="49.61537" lon="3.69546">
        <ele>131.6</ele>
        <time>2015-01-05T14:18:09.501Z</time>
      </trkpt>
      <trkpt lat="49.61539" lon="3.69559">
        <ele>131.4</ele>
        <time>2015-01-05T14:18:17.455Z</time>
      </trkpt>
      <trkpt lat="49.61539" lon="3.69561">
        <ele>131.4</ele>
        <time>2015-01-05T14:18:18.460Z</time>
      </trkpt>
      <trkpt lat="49.6154" lon="3.69574">
        <ele>131.4</ele>
        <time>2015-01-05T14:18:26.463Z</time>
      </trkpt>
      <trkpt lat="49.6154" lon="3.69576">
        <ele>131.4</ele>
        <time>2015-01-05T14:18:26.511Z</time>
      </trkpt>
      <trkpt lat="49.61542" lon="3.69589">
        <ele>131.4</ele>
        <time>2015-01-05T14:18:33.524Z</time>
      </trkpt>
      <trkpt lat="49.61542" lon="3.69591">
        <ele>131.5</ele>
        <time>2015-01-05T14:18:34.536Z</time>
      </trkpt>
      <trkpt lat="49.61544" lon="3.69604">
        <ele>131.8</ele>
        <time>2015-01-05T14:18:41.625Z</time>
      </trkpt>
      <trkpt lat="49.61544" lon="3.69606">
        <ele>131.9</ele>
        <time>2015-01-05T14:18:42.553Z</time>
      </trkpt>
      <trkpt lat="49.61545" lon="3.6962">
        <ele>131.9</ele>
        <time>2015-01-05T14:18:49.459Z</time>
      </trkpt>
      <trkpt lat="49.61545" lon="3.69621">
        <ele>131.9</ele>
        <time>2015-01-05T14:18:50.521Z</time>
      </trkpt>
      <trkpt lat="49.61545" lon="3.69634">
        <ele>131.3</ele>
        <time>2015-01-05T14:18:57.460Z</time>
      </trkpt>
      <trkpt lat="49.61546" lon="3.69636">
        <ele>131.3</ele>
        <time>2015-01-05T14:18:58.452Z</time>
      </trkpt>
      <trkpt lat="49.61547" lon="3.69648">
        <ele>131.4</ele>
        <time>2015-01-05T14:19:05.558Z</time>
      </trkpt>
      <trkpt lat="49.61548" lon="3.6965">
        <ele>131.4</ele>
        <time>2015-01-05T14:19:06.470Z</time>
      </trkpt>
      <trkpt lat="49.61549" lon="3.69663">
        <ele>131.4</ele>
        <time>2015-01-05T14:19:13.469Z</time>
      </trkpt>
      <trkpt lat="49.61549" lon="3.69664">
        <ele>131.5</ele>
        <time>2015-01-05T14:19:14.530Z</time>
      </trkpt>
      <trkpt lat="49.61551" lon="3.69676">
        <ele>131.7</ele>
        <time>2015-01-05T14:19:22.219Z</time>
      </trkpt>
      <trkpt lat="49.61551" lon="3.69678">
        <ele>131.7</ele>
        <time>2015-01-05T14:19:22.544Z</time>
      </trkpt>
      <trkpt lat="49.61552" lon="3.69691">
        <ele>131.5</ele>
        <time>2015-01-05T14:19:29.538Z</time>
      </trkpt>
      <trkpt lat="49.61552" lon="3.69693">
        <ele>131.5</ele>
        <time>2015-01-05T14:19:30.553Z</time>
      </trkpt>
      <trkpt lat="49.61553" lon="3.69705">
        <ele>131.6</ele>
        <time>2015-01-05T14:19:37.495Z</time>
      </trkpt>
      <trkpt lat="49.61553" lon="3.69707">
        <ele>131.7</ele>
        <time>2015-01-05T14:19:38.531Z</time>
      </trkpt>
      <trkpt lat="49.61554" lon="3.69719">
        <ele>131.8</ele>
        <time>2015-01-05T14:19:45.525Z</time>
      </trkpt>
      <trkpt lat="49.61555" lon="3.69721">
        <ele>131.8</ele>
        <time>2015-01-05T14:19:46.536Z</time>
      </trkpt>
      <trkpt lat="49.61555" lon="3.69734">
        <ele>130.9</ele>
        <time>2015-01-05T14:19:53.469Z</time>
      </trkpt>
      <trkpt lat="49.61555" lon="3.69736">
        <ele>130.9</ele>
        <time>2015-01-05T14:19:54.467Z</time>
      </trkpt>
      <trkpt lat="49.61556" lon="3.69749">
        <ele>131.1</ele>
        <time>2015-01-05T14:20:01.668Z</time>
      </trkpt>
      <trkpt lat="49.61557" lon="3.69751">
        <ele>131.2</ele>
        <time>2015-01-05T14:20:02.536Z</time>
      </trkpt>
      <trkpt lat="49.61558" lon="3.69763">
        <ele>131.7</ele>
        <time>2015-01-05T14:20:08.570Z</time>
      </trkpt>
      <trkpt lat="49.61559" lon="3.69765">
        <ele>131.7</ele>
        <time>2015-01-05T14:20:09.470Z</time>
      </trkpt>
      <trkpt lat="49.6156" lon="3.69777">
        <ele>131.4</ele>
        <time>2015-01-05T14:20:15.533Z</time>
      </trkpt>
      <trkpt lat="49.6156" lon="3.69779">
        <ele>131.4</ele>
        <time>2015-01-05T14:20:16.538Z</time>
      </trkpt>
      <trkpt lat="49.61561" lon="3.69792">
        <ele>131.1</ele>
        <time>2015-01-05T14:20:23.556Z</time>
      </trkpt>
      <trkpt lat="49.61561" lon="3.69794">
        <ele>131.1</ele>
        <time>2015-01-05T14:20:24.468Z</time>
      </trkpt>
      <trkpt lat="49.61562" lon="3.69807">
        <ele>131.1</ele>
        <time>2015-01-05T14:20:31.488Z</time>
      </trkpt>
      <trkpt lat="49.61562" lon="3.69809">
        <ele>131</ele>
        <time>2015-01-05T14:20:32.532Z</time>
      </trkpt>
      <trkpt lat="49.61565" lon="3.69821">
        <ele>130.8</ele>
        <time>2015-01-05T14:20:39.539Z</time>
      </trkpt>
      <trkpt lat="49.61566" lon="3.69823">
        <ele>130.8</ele>
        <time>2015-01-05T14:20:40.546Z</time>
      </trkpt>
      <trkpt lat="49.61568" lon="3.69836">
        <ele>131</ele>
        <time>2015-01-05T14:20:46.562Z</time>
      </trkpt>
      <trkpt lat="49.61568" lon="3.69838">
        <ele>131.1</ele>
        <time>2015-01-05T14:20:47.553Z</time>
      </trkpt>
      <trkpt lat="49.6157" lon="3.69851">
        <ele>131.2</ele>
        <time>2015-01-05T14:20:53.456Z</time>
      </trkpt>
      <trkpt lat="49.6157" lon="3.69853">
        <ele>131.3</ele>
        <time>2015-01-05T14:20:54.459Z</time>
      </trkpt>
      <trkpt lat="49.6157" lon="3.69865">
        <ele>131</ele>
        <time>2015-01-05T14:21:00.467Z</time>
      </trkpt>
      <trkpt lat="49.61571" lon="3.69867">
        <ele>131</ele>
        <time>2015-01-05T14:21:01.473Z</time>
      </trkpt>
      <trkpt lat="49.61571" lon="3.6988">
        <ele>131</ele>
        <time>2015-01-05T14:21:07.548Z</time>
      </trkpt>
      <trkpt lat="49.61572" lon="3.69882">
        <ele>131.1</ele>
        <time>2015-01-05T14:21:08.563Z</time>
      </trkpt>
      <trkpt lat="49.61573" lon="3.69896">
        <ele>130.7</ele>
        <time>2015-01-05T14:21:15.543Z</time>
      </trkpt>
      <trkpt lat="49.61573" lon="3.69898">
        <ele>130.8</ele>
        <time>2015-01-05T14:21:16.558Z</time>
      </trkpt>
      <trkpt lat="49.61575" lon="3.69909">
        <ele>130.7</ele>
        <time>2015-01-05T14:21:22.557Z</time>
      </trkpt>
      <trkpt lat="49.61575" lon="3.69912">
        <ele>130.8</ele>
        <time>2015-01-05T14:21:23.553Z</time>
      </trkpt>
      <trkpt lat="49.61577" lon="3.69924">
        <ele>131</ele>
        <time>2015-01-05T14:21:29.555Z</time>
      </trkpt>
      <trkpt lat="49.61578" lon="3.69926">
        <ele>131.2</ele>
        <time>2015-01-05T14:21:30.467Z</time>
      </trkpt>
      <trkpt lat="49.6158" lon="3.69939">
        <ele>131.9</ele>
        <time>2015-01-05T14:21:36.494Z</time>
      </trkpt>
      <trkpt lat="49.6158" lon="3.69941">
        <ele>131.9</ele>
        <time>2015-01-05T14:21:37.463Z</time>
      </trkpt>
      <trkpt lat="49.61583" lon="3.69954">
        <ele>131.7</ele>
        <time>2015-01-05T14:21:43.466Z</time>
      </trkpt>
      <trkpt lat="49.61583" lon="3.69956">
        <ele>131.7</ele>
        <time>2015-01-05T14:21:44.531Z</time>
      </trkpt>
      <trkpt lat="49.61584" lon="3.69968">
        <ele>131.4</ele>
        <time>2015-01-05T14:21:50.534Z</time>
      </trkpt>
      <trkpt lat="49.61584" lon="3.69971">
        <ele>131.4</ele>
        <time>2015-01-05T14:21:51.550Z</time>
      </trkpt>
      <trkpt lat="49.61586" lon="3.69983">
        <ele>132.1</ele>
        <time>2015-01-05T14:21:57.539Z</time>
      </trkpt>
      <trkpt lat="49.61587" lon="3.69985">
        <ele>132.1</ele>
        <time>2015-01-05T14:21:58.549Z</time>
      </trkpt>
      <trkpt lat="49.61588" lon="3.69998">
        <ele>131.9</ele>
        <time>2015-01-05T14:22:04.476Z</time>
      </trkpt>
      <trkpt lat="49.61588" lon="3.7">
        <ele>131.6</ele>
        <time>2015-01-05T14:22:05.469Z</time>
      </trkpt>
      <trkpt lat="49.61588" lon="3.70012">
        <ele>131.5</ele>
        <time>2015-01-05T14:22:11.695Z</time>
      </trkpt>
      <trkpt lat="49.61588" lon="3.70014">
        <ele>131.5</ele>
        <time>2015-01-05T14:22:12.555Z</time>
      </trkpt>
      <trkpt lat="49.61583" lon="3.70024">
        <ele>131</ele>
        <time>2015-01-05T14:22:19.564Z</time>
      </trkpt>
      <trkpt lat="49.61581" lon="3.70024">
        <ele>131</ele>
        <time>2015-01-05T14:22:20.575Z</time>
      </trkpt>
      <trkpt lat="49.61573" lon="3.70023">
        <ele>131.2</ele>
        <time>2015-01-05T14:22:26.534Z</time>
      </trkpt>
      <trkpt lat="49.61571" lon="3.70023">
        <ele>131.2</ele>
        <time>2015-01-05T14:22:27.544Z</time>
      </trkpt>
      <trkpt lat="49.61563" lon="3.70021">
        <ele>130.8</ele>
        <time>2015-01-05T14:22:33.547Z</time>
      </trkpt>
      <trkpt lat="49.61561" lon="3.70021">
        <ele>130.9</ele>
        <time>2015-01-05T14:22:34.553Z</time>
      </trkpt>
      <trkpt lat="49.61553" lon="3.70019">
        <ele>131.5</ele>
        <time>2015-01-05T14:22:40.543Z</time>
      </trkpt>
      <trkpt lat="49.61551" lon="3.70019">
        <ele>131.4</ele>
        <time>2015-01-05T14:22:41.464Z</time>
      </trkpt>
      <trkpt lat="49.61543" lon="3.70017">
        <ele>131.7</ele>
        <time>2015-01-05T14:22:47.550Z</time>
      </trkpt>
      <trkpt lat="49.61541" lon="3.70017">
        <ele>131.7</ele>
        <time>2015-01-05T14:22:48.466Z</time>
      </trkpt>
      <trkpt lat="49.61534" lon="3.70015">
        <ele>131.5</ele>
        <time>2015-01-05T14:22:53.554Z</time>
      </trkpt>
      <trkpt lat="49.61532" lon="3.70014">
        <ele>131.6</ele>
        <time>2015-01-05T14:22:54.467Z</time>
      </trkpt>
      <trkpt lat="49.61524" lon="3.70013">
        <ele>131.6</ele>
        <time>2015-01-05T14:23:00.478Z</time>
      </trkpt>
      <trkpt lat="49.61522" lon="3.70013">
        <ele>131.7</ele>
        <time>2015-01-05T14:23:01.483Z</time>
      </trkpt>
      <trkpt lat="49.61515" lon="3.70012">
        <ele>132.1</ele>
        <time>2015-01-05T14:23:06.728Z</time>
      </trkpt>
      <trkpt lat="49.61513" lon="3.70012">
        <ele>132.1</ele>
        <time>2015-01-05T14:23:07.486Z</time>
      </trkpt>
      <trkpt lat="49.61506" lon="3.70011">
        <ele>132.3</ele>
        <time>2015-01-05T14:23:12.467Z</time>
      </trkpt>
      <trkpt lat="49.61504" lon="3.70011">
        <ele>132.5</ele>
        <time>2015-01-05T14:23:13.473Z</time>
      </trkpt>
      <trkpt lat="49.61495" lon="3.7001">
        <ele>133.2</ele>
        <time>2015-01-05T14:23:19.559Z</time>
      </trkpt>
      <trkpt lat="49.61494" lon="3.7001">
        <ele>133.1</ele>
        <time>2015-01-05T14:23:20.566Z</time>
      </trkpt>
      <trkpt lat="49.61486" lon="3.70009">
        <ele>132.8</ele>
        <time>2015-01-05T14:23:32.563Z</time>
      </trkpt>
      <trkpt lat="49.61484" lon="3.70009">
        <ele>132.7</ele>
        <time>2015-01-05T14:23:33.456Z</time>
      </trkpt>
      <trkpt lat="49.61477" lon="3.70007">
        <ele>132.8</ele>
        <time>2015-01-05T14:23:38.520Z</time>
      </trkpt>
      <trkpt lat="49.61475" lon="3.70007">
        <ele>132.8</ele>
        <time>2015-01-05T14:23:39.519Z</time>
      </trkpt>
      <trkpt lat="49.61467" lon="3.70006">
        <ele>133.1</ele>
        <time>2015-01-05T14:23:44.555Z</time>
      </trkpt>
      <trkpt lat="49.61466" lon="3.70005">
        <ele>133.3</ele>
        <time>2015-01-05T14:23:45.473Z</time>
      </trkpt>
      <trkpt lat="49.61458" lon="3.70004">
        <ele>133.5</ele>
        <time>2015-01-05T14:23:50.513Z</time>
      </trkpt>
      <trkpt lat="49.61457" lon="3.70004">
        <ele>133.6</ele>
        <time>2015-01-05T14:23:51.518Z</time>
      </trkpt>
      <trkpt lat="49.61448" lon="3.70003">
        <ele>133.4</ele>
        <time>2015-01-05T14:23:57.520Z</time>
      </trkpt>
      <trkpt lat="49.61447" lon="3.70002">
        <ele>133.5</ele>
        <time>2015-01-05T14:23:58.529Z</time>
      </trkpt>
      <trkpt lat="49.61439" lon="3.70003">
        <ele>133.8</ele>
        <time>2015-01-05T14:24:04.537Z</time>
      </trkpt>
      <trkpt lat="49.61437" lon="3.70002">
        <ele>133.7</ele>
        <time>2015-01-05T14:24:05.546Z</time>
      </trkpt>
      <trkpt lat="49.61429" lon="3.70001">
        <ele>133.7</ele>
        <time>2015-01-05T14:24:11.999Z</time>
      </trkpt>
      <trkpt lat="49.61427" lon="3.70001">
        <ele>133.5</ele>
        <time>2015-01-05T14:24:12.539Z</time>
      </trkpt>
      <trkpt lat="49.61418" lon="3.69999">
        <ele>132.8</ele>
        <time>2015-01-05T14:24:18.475Z</time>
      </trkpt>
      <trkpt lat="49.61417" lon="3.69999">
        <ele>132.6</ele>
        <time>2015-01-05T14:24:19.479Z</time>
      </trkpt>
      <trkpt lat="49.61409" lon="3.69997">
        <ele>131.8</ele>
        <time>2015-01-05T14:24:24.449Z</time>
      </trkpt>
      <trkpt lat="49.61408" lon="3.69997">
        <ele>131.6</ele>
        <time>2015-01-05T14:24:25.458Z</time>
      </trkpt>
      <trkpt lat="49.61399" lon="3.69996">
        <ele>131.8</ele>
        <time>2015-01-05T14:24:31.544Z</time>
      </trkpt>
      <trkpt lat="49.61398" lon="3.69996">
        <ele>131.7</ele>
        <time>2015-01-05T14:24:32.555Z</time>
      </trkpt>
      <trkpt lat="49.61389" lon="3.69995">
        <ele>131.5</ele>
        <time>2015-01-05T14:24:38.503Z</time>
      </trkpt>
      <trkpt lat="49.61388" lon="3.69995">
        <ele>131.6</ele>
        <time>2015-01-05T14:24:39.513Z</time>
      </trkpt>
      <trkpt lat="49.6138" lon="3.69993">
        <ele>131.3</ele>
        <time>2015-01-05T14:24:45.458Z</time>
      </trkpt>
      <trkpt lat="49.61378" lon="3.69993">
        <ele>131.3</ele>
        <time>2015-01-05T14:24:46.459Z</time>
      </trkpt>
      <trkpt lat="49.61369" lon="3.69992">
        <ele>130.9</ele>
        <time>2015-01-05T14:24:52.525Z</time>
      </trkpt>
      <trkpt lat="49.61367" lon="3.69992">
        <ele>130.8</ele>
        <time>2015-01-05T14:24:53.533Z</time>
      </trkpt>
      <trkpt lat="49.6136" lon="3.69991">
        <ele>130.6</ele>
        <time>2015-01-05T14:24:58.460Z</time>
      </trkpt>
      <trkpt lat="49.61358" lon="3.69991">
        <ele>130.7</ele>
        <time>2015-01-05T14:24:59.464Z</time>
      </trkpt>
      <trkpt lat="49.61351" lon="3.6999">
        <ele>130.8</ele>
        <time>2015-01-05T14:25:04.454Z</time>
      </trkpt>
      <trkpt lat="49.61349" lon="3.6999">
        <ele>130.9</ele>
        <time>2015-01-05T14:25:05.462Z</time>
      </trkpt>
      <trkpt lat="49.61341" lon="3.69989">
        <ele>130.9</ele>
        <time>2015-01-05T14:25:10.454Z</time>
      </trkpt>
      <trkpt lat="49.6134" lon="3.69988">
        <ele>131</ele>
        <time>2015-01-05T14:25:11.465Z</time>
      </trkpt>
      <trkpt lat="49.61331" lon="3.69987">
        <ele>130.8</ele>
        <time>2015-01-05T14:25:17.548Z</time>
      </trkpt>
      <trkpt lat="49.6133" lon="3.69987">
        <ele>130.8</ele>
        <time>2015-01-05T14:25:18.466Z</time>
      </trkpt>
      <trkpt lat="49.61321" lon="3.69986">
        <ele>129.9</ele>
        <time>2015-01-05T14:25:26.452Z</time>
      </trkpt>
      <trkpt lat="49.6132" lon="3.69985">
        <ele>130.1</ele>
        <time>2015-01-05T14:25:26.518Z</time>
      </trkpt>
      <trkpt lat="49.61312" lon="3.69983">
        <ele>129.7</ele>
        <time>2015-01-05T14:25:33.517Z</time>
      </trkpt>
      <trkpt lat="49.6131" lon="3.69983">
        <ele>129.4</ele>
        <time>2015-01-05T14:25:34.522Z</time>
      </trkpt>
      <trkpt lat="49.61302" lon="3.69982">
        <ele>129.8</ele>
        <time>2015-01-05T14:25:41.656Z</time>
      </trkpt>
      <trkpt lat="49.613" lon="3.69981">
        <ele>129.8</ele>
        <time>2015-01-05T14:25:42.467Z</time>
      </trkpt>
      <trkpt lat="49.61292" lon="3.69979">
        <ele>129.7</ele>
        <time>2015-01-05T14:25:49.469Z</time>
      </trkpt>
      <trkpt lat="49.61291" lon="3.69978">
        <ele>129.5</ele>
        <time>2015-01-05T14:25:50.520Z</time>
      </trkpt>
      <trkpt lat="49.61282" lon="3.69977">
        <ele>128.9</ele>
        <time>2015-01-05T14:25:57.521Z</time>
      </trkpt>
      <trkpt lat="49.61281" lon="3.69977">
        <ele>128.8</ele>
        <time>2015-01-05T14:25:58.532Z</time>
      </trkpt>
      <trkpt lat="49.61273" lon="3.69977">
        <ele>128.4</ele>
        <time>2015-01-05T14:26:04.538Z</time>
      </trkpt>
      <trkpt lat="49.61272" lon="3.69976">
        <ele>128.3</ele>
        <time>2015-01-05T14:26:05.544Z</time>
      </trkpt>
      <trkpt lat="49.61264" lon="3.69976">
        <ele>127.8</ele>
        <time>2015-01-05T14:26:11.800Z</time>
      </trkpt>
      <trkpt lat="49.61263" lon="3.69976">
        <ele>127.7</ele>
        <time>2015-01-05T14:26:12.540Z</time>
      </trkpt>
      <trkpt lat="49.61255" lon="3.69975">
        <ele>127.5</ele>
        <time>2015-01-05T14:26:18.474Z</time>
      </trkpt>
      <trkpt lat="49.61253" lon="3.69975">
        <ele>127.5</ele>
        <time>2015-01-05T14:26:19.484Z</time>
      </trkpt>
      <trkpt lat="49.61245" lon="3.69973">
        <ele>127.5</ele>
        <time>2015-01-05T14:26:26.460Z</time>
      </trkpt>
      <trkpt lat="49.61244" lon="3.69973">
        <ele>127.6</ele>
        <time>2015-01-05T14:26:26.550Z</time>
      </trkpt>
      <trkpt lat="49.61235" lon="3.69972">
        <ele>127.8</ele>
        <time>2015-01-05T14:26:33.516Z</time>
      </trkpt>
      <trkpt lat="49.61234" lon="3.69972">
        <ele>127.9</ele>
        <time>2015-01-05T14:26:34.524Z</time>
      </trkpt>
      <trkpt lat="49.61225" lon="3.69971">
        <ele>127.1</ele>
        <time>2015-01-05T14:26:41.537Z</time>
      </trkpt>
      <trkpt lat="49.61223" lon="3.6997">
        <ele>127</ele>
        <time>2015-01-05T14:26:42.486Z</time>
      </trkpt>
      <trkpt lat="49.61215" lon="3.69969">
        <ele>126.8</ele>
        <time>2015-01-05T14:26:49.460Z</time>
      </trkpt>
      <trkpt lat="49.61214" lon="3.69969">
        <ele>126.8</ele>
        <time>2015-01-05T14:26:50.518Z</time>
      </trkpt>
      <trkpt lat="49.61206" lon="3.69968">
        <ele>126.7</ele>
        <time>2015-01-05T14:26:56.638Z</time>
      </trkpt>
      <trkpt lat="49.61204" lon="3.69968">
        <ele>126.6</ele>
        <time>2015-01-05T14:26:57.520Z</time>
      </trkpt>
      <trkpt lat="49.61196" lon="3.69967">
        <ele>126.9</ele>
        <time>2015-01-05T14:27:04.521Z</time>
      </trkpt>
      <trkpt lat="49.61194" lon="3.69967">
        <ele>126.9</ele>
        <time>2015-01-05T14:27:05.534Z</time>
      </trkpt>
      <trkpt lat="49.61185" lon="3.69967">
        <ele>127.7</ele>
        <time>2015-01-05T14:27:12.538Z</time>
      </trkpt>
      <trkpt lat="49.61184" lon="3.69966">
        <ele>127.7</ele>
        <time>2015-01-05T14:27:13.540Z</time>
      </trkpt>
      <trkpt lat="49.61175" lon="3.69964">
        <ele>127</ele>
        <time>2015-01-05T14:27:22.145Z</time>
      </trkpt>
      <trkpt lat="49.61174" lon="3.69964">
        <ele>126.9</ele>
        <time>2015-01-05T14:27:22.530Z</time>
      </trkpt>
      <trkpt lat="49.61165" lon="3.69963">
        <ele>126.2</ele>
        <time>2015-01-05T14:27:30.536Z</time>
      </trkpt>
      <trkpt lat="49.61164" lon="3.69962">
        <ele>126.2</ele>
        <time>2015-01-05T14:27:31.556Z</time>
      </trkpt>
      <trkpt lat="49.61156" lon="3.69961">
        <ele>126.3</ele>
        <time>2015-01-05T14:27:38.517Z</time>
      </trkpt>
      <trkpt lat="49.61155" lon="3.69961">
        <ele>126.3</ele>
        <time>2015-01-05T14:27:39.515Z</time>
      </trkpt>
      <trkpt lat="49.61146" lon="3.69959">
        <ele>126.1</ele>
        <time>2015-01-05T14:27:47.482Z</time>
      </trkpt>
      <trkpt lat="49.61145" lon="3.69959">
        <ele>126</ele>
        <time>2015-01-05T14:27:48.504Z</time>
      </trkpt>
      <trkpt lat="49.61136" lon="3.69958">
        <ele>125.8</ele>
        <time>2015-01-05T14:27:56.521Z</time>
      </trkpt>
      <trkpt lat="49.61135" lon="3.69958">
        <ele>125.8</ele>
        <time>2015-01-05T14:27:57.537Z</time>
      </trkpt>
      <trkpt lat="49.61127" lon="3.69957">
        <ele>126.4</ele>
        <time>2015-01-05T14:28:04.544Z</time>
      </trkpt>
      <trkpt lat="49.61126" lon="3.69957">
        <ele>126.4</ele>
        <time>2015-01-05T14:28:05.457Z</time>
      </trkpt>
      <trkpt lat="49.61118" lon="3.69956">
        <ele>126.4</ele>
        <time>2015-01-05T14:28:11.530Z</time>
      </trkpt>
      <trkpt lat="49.61117" lon="3.69956">
        <ele>126.4</ele>
        <time>2015-01-05T14:28:12.538Z</time>
      </trkpt>
      <trkpt lat="49.61108" lon="3.69956">
        <ele>126.5</ele>
        <time>2015-01-05T14:28:20.518Z</time>
      </trkpt>
      <trkpt lat="49.61107" lon="3.69955">
        <ele>126.5</ele>
        <time>2015-01-05T14:28:21.522Z</time>
      </trkpt>
      <trkpt lat="49.61099" lon="3.69955">
        <ele>126.2</ele>
        <time>2015-01-05T14:28:27.519Z</time>
      </trkpt>
      <trkpt lat="49.61098" lon="3.69954">
        <ele>126.2</ele>
        <time>2015-01-05T14:28:28.533Z</time>
      </trkpt>
      <trkpt lat="49.61089" lon="3.69953">
        <ele>125.9</ele>
        <time>2015-01-05T14:28:35.465Z</time>
      </trkpt>
      <trkpt lat="49.61088" lon="3.69953">
        <ele>125.8</ele>
        <time>2015-01-05T14:28:36.477Z</time>
      </trkpt>
      <trkpt lat="49.61079" lon="3.69952">
        <ele>125.8</ele>
        <time>2015-01-05T14:28:43.459Z</time>
      </trkpt>
      <trkpt lat="49.61078" lon="3.69952">
        <ele>125.7</ele>
        <time>2015-01-05T14:28:44.563Z</time>
      </trkpt>
      <trkpt lat="49.6107" lon="3.69951">
        <ele>125.8</ele>
        <time>2015-01-05T14:28:51.553Z</time>
      </trkpt>
      <trkpt lat="49.61069" lon="3.69951">
        <ele>125.7</ele>
        <time>2015-01-05T14:28:52.527Z</time>
      </trkpt>
      <trkpt lat="49.6106" lon="3.6995">
        <ele>125.4</ele>
        <time>2015-01-05T14:28:59.538Z</time>
      </trkpt>
      <trkpt lat="49.61059" lon="3.6995">
        <ele>125.4</ele>
        <time>2015-01-05T14:29:00.459Z</time>
      </trkpt>
      <trkpt lat="49.61051" lon="3.69949">
        <ele>125.4</ele>
        <time>2015-01-05T14:29:07.460Z</time>
      </trkpt>
      <trkpt lat="49.6105" lon="3.69949">
        <ele>125.5</ele>
        <time>2015-01-05T14:29:08.516Z</time>
      </trkpt>
      <trkpt lat="49.61041" lon="3.69948">
        <ele>125.8</ele>
        <time>2015-01-05T14:29:15.454Z</time>
      </trkpt>
      <trkpt lat="49.6104" lon="3.69948">
        <ele>125.9</ele>
        <time>2015-01-05T14:29:16.462Z</time>
      </trkpt>
      <trkpt lat="49.61032" lon="3.69946">
        <ele>125.8</ele>
        <time>2015-01-05T14:29:23.539Z</time>
      </trkpt>
      <trkpt lat="49.6103" lon="3.69946">
        <ele>125.7</ele>
        <time>2015-01-05T14:29:24.553Z</time>
      </trkpt>
      <trkpt lat="49.61022" lon="3.69945">
        <ele>125.7</ele>
        <time>2015-01-05T14:29:31.535Z</time>
      </trkpt>
      <trkpt lat="49.61021" lon="3.69944">
        <ele>125.7</ele>
        <time>2015-01-05T14:29:32.556Z</time>
      </trkpt>
      <trkpt lat="49.61013" lon="3.69944">
        <ele>125.6</ele>
        <time>2015-01-05T14:29:38.522Z</time>
      </trkpt>
      <trkpt lat="49.61012" lon="3.69944">
        <ele>125.9</ele>
        <time>2015-01-05T14:29:39.519Z</time>
      </trkpt>
      <trkpt lat="49.61003" lon="3.69944">
        <ele>126.2</ele>
        <time>2015-01-05T14:29:46.802Z</time>
      </trkpt>
      <trkpt lat="49.61002" lon="3.69944">
        <ele>126.2</ele>
        <time>2015-01-05T14:29:47.531Z</time>
      </trkpt>
      <trkpt lat="49.60994" lon="3.69942">
        <ele>126.4</ele>
        <time>2015-01-05T14:29:54.458Z</time>
      </trkpt>
      <trkpt lat="49.60993" lon="3.69942">
        <ele>126.4</ele>
        <time>2015-01-05T14:29:55.469Z</time>
      </trkpt>
      <trkpt lat="49.60984" lon="3.69941">
        <ele>126.2</ele>
        <time>2015-01-05T14:30:02.518Z</time>
      </trkpt>
      <trkpt lat="49.60983" lon="3.69941">
        <ele>126.3</ele>
        <time>2015-01-05T14:30:03.522Z</time>
      </trkpt>
      <trkpt lat="49.60975" lon="3.6994">
        <ele>126.1</ele>
        <time>2015-01-05T14:30:09.521Z</time>
      </trkpt>
      <trkpt lat="49.60974" lon="3.6994">
        <ele>126.1</ele>
        <time>2015-01-05T14:30:10.528Z</time>
      </trkpt>
      <trkpt lat="49.60965" lon="3.69938">
        <ele>125.6</ele>
        <time>2015-01-05T14:30:17.465Z</time>
      </trkpt>
      <trkpt lat="49.60964" lon="3.69938">
        <ele>125.7</ele>
        <time>2015-01-05T14:30:18.479Z</time>
      </trkpt>
      <trkpt lat="49.60955" lon="3.69937">
        <ele>125.1</ele>
        <time>2015-01-05T14:30:26.468Z</time>
      </trkpt>
      <trkpt lat="49.60954" lon="3.69937">
        <ele>125.2</ele>
        <time>2015-01-05T14:30:26.702Z</time>
      </trkpt>
      <trkpt lat="49.60945" lon="3.69935">
        <ele>124.9</ele>
        <time>2015-01-05T14:30:33.459Z</time>
      </trkpt>
      <trkpt lat="49.60944" lon="3.69935">
        <ele>124.9</ele>
        <time>2015-01-05T14:30:34.455Z</time>
      </trkpt>
      <trkpt lat="49.60936" lon="3.69933">
        <ele>124.4</ele>
        <time>2015-01-05T14:30:41.618Z</time>
      </trkpt>
      <trkpt lat="49.60935" lon="3.69933">
        <ele>124.4</ele>
        <time>2015-01-05T14:30:42.542Z</time>
      </trkpt>
      <trkpt lat="49.60926" lon="3.69932">
        <ele>124.1</ele>
        <time>2015-01-05T14:30:49.550Z</time>
      </trkpt>
      <trkpt lat="49.60925" lon="3.69932">
        <ele>124</ele>
        <time>2015-01-05T14:30:50.559Z</time>
      </trkpt>
      <trkpt lat="49.60916" lon="3.69931">
        <ele>124.2</ele>
        <time>2015-01-05T14:30:57.531Z</time>
      </trkpt>
      <trkpt lat="49.60915" lon="3.69931">
        <ele>124.2</ele>
        <time>2015-01-05T14:30:58.538Z</time>
      </trkpt>
      <trkpt lat="49.60907" lon="3.6993">
        <ele>123.8</ele>
        <time>2015-01-05T14:31:07.547Z</time>
      </trkpt>
      <trkpt lat="49.60906" lon="3.69929">
        <ele>123.8</ele>
        <time>2015-01-05T14:31:08.550Z</time>
      </trkpt>
      <trkpt lat="49.60902" lon="3.69929">
        <ele>123.8</ele>
        <time>2015-01-05T14:31:19.458Z</time>
      </trkpt>
      <trkpt lat="49.60903" lon="3.69929">
        <ele>123.6</ele>
        <time>2015-01-05T14:31:20.567Z</time>
      </trkpt>
      <trkpt lat="49.60902" lon="3.69929">
        <ele>123.4</ele>
        <time>2015-01-05T14:31:57.524Z</time>
      </trkpt>
      <trkpt lat="49.609" lon="3.69929">
        <ele>123.3</ele>
        <time>2015-01-05T14:31:58.531Z</time>
      </trkpt>
      <trkpt lat="49.609" lon="3.69929">
        <ele>123.2</ele>
        <time>2015-01-05T14:31:59.544Z</time>
      </trkpt>
      <trkpt lat="49.609" lon="3.69928">
        <ele>123.3</ele>
        <time>2015-01-05T14:32:00.460Z</time>
      </trkpt>
      <trkpt lat="49.609" lon="3.69929">
        <ele>123.3</ele>
        <time>2015-01-05T14:32:01.461Z</time>
      </trkpt>
      <trkpt lat="49.60899" lon="3.69929">
        <ele>123.8</ele>
        <time>2015-01-05T14:32:24.477Z</time>
      </trkpt>
      <trkpt lat="49.60899" lon="3.69929">
        <ele>124</ele>
        <time>2015-01-05T14:32:25.488Z</time>
      </trkpt>
      <trkpt lat="49.60899" lon="3.6993">
        <ele>124.4</ele>
        <time>2015-01-05T14:33:22.532Z</time>
      </trkpt>
      <trkpt lat="49.60897" lon="3.6993">
        <ele>124.3</ele>
        <time>2015-01-05T14:33:23.541Z</time>
      </trkpt>
      <trkpt lat="49.60892" lon="3.69927">
        <ele>122.9</ele>
        <time>2015-01-05T14:33:33.462Z</time>
      </trkpt>
      <trkpt lat="49.60892" lon="3.69927">
        <ele>122.7</ele>
        <time>2015-01-05T14:33:34.466Z</time>
      </trkpt>
      <trkpt lat="49.60892" lon="3.69927">
        <ele>122.6</ele>
        <time>2015-01-05T14:33:35.476Z</time>
      </trkpt>
      <trkpt lat="49.60891" lon="3.69925">
        <ele>122.7</ele>
        <time>2015-01-05T14:33:38.519Z</time>
      </trkpt>
      <trkpt lat="49.6089" lon="3.69925">
        <ele>122.9</ele>
        <time>2015-01-05T14:33:39.518Z</time>
      </trkpt>
      <trkpt lat="49.6089" lon="3.69925">
        <ele>123</ele>
        <time>2015-01-05T14:33:40.525Z</time>
      </trkpt>
      <trkpt lat="49.60887" lon="3.69926">
        <ele>122.9</ele>
        <time>2015-01-05T14:33:45.461Z</time>
      </trkpt>
      <trkpt lat="49.60887" lon="3.69926">
        <ele>123.1</ele>
        <time>2015-01-05T14:33:46.461Z</time>
      </trkpt>
      <trkpt lat="49.60888" lon="3.69925">
        <ele>123.2</ele>
        <time>2015-01-05T14:33:51.585Z</time>
      </trkpt>
      <trkpt lat="49.60888" lon="3.69926">
        <ele>123</ele>
        <time>2015-01-05T14:33:52.530Z</time>
      </trkpt>
      <trkpt lat="49.60886" lon="3.69939">
        <ele>120.3</ele>
        <time>2015-01-05T14:34:51.795Z</time>
      </trkpt>
      <trkpt lat="49.60886" lon="3.69939">
        <ele>120.3</ele>
        <time>2015-01-05T14:34:52.483Z</time>
      </trkpt>
      <trkpt lat="49.60878" lon="3.69936">
        <ele>120</ele>
        <time>2015-01-05T14:35:02.545Z</time>
      </trkpt>
      <trkpt lat="49.60877" lon="3.69936">
        <ele>120.1</ele>
        <time>2015-01-05T14:35:03.547Z</time>
      </trkpt>
      <trkpt lat="49.60868" lon="3.69933">
        <ele>120.3</ele>
        <time>2015-01-05T14:35:11.912Z</time>
      </trkpt>
      <trkpt lat="49.60867" lon="3.69933">
        <ele>120.3</ele>
        <time>2015-01-05T14:35:12.553Z</time>
      </trkpt>
      <trkpt lat="49.60859" lon="3.69929">
        <ele>119.9</ele>
        <time>2015-01-05T14:35:19.466Z</time>
      </trkpt>
      <trkpt lat="49.60858" lon="3.69928">
        <ele>120.1</ele>
        <time>2015-01-05T14:35:20.533Z</time>
      </trkpt>
      <trkpt lat="49.6085" lon="3.69926">
        <ele>120.1</ele>
        <time>2015-01-05T14:35:27.542Z</time>
      </trkpt>
      <trkpt lat="49.60849" lon="3.69926">
        <ele>120.3</ele>
        <time>2015-01-05T14:35:28.459Z</time>
      </trkpt>
      <trkpt lat="49.60841" lon="3.69923">
        <ele>120.8</ele>
        <time>2015-01-05T14:35:35.459Z</time>
      </trkpt>
      <trkpt lat="49.6084" lon="3.69923">
        <ele>120.8</ele>
        <time>2015-01-05T14:35:36.454Z</time>
      </trkpt>
      <trkpt lat="49.60832" lon="3.69921">
        <ele>121.2</ele>
        <time>2015-01-05T14:35:43.544Z</time>
      </trkpt>
      <trkpt lat="49.60831" lon="3.69921">
        <ele>121.3</ele>
        <time>2015-01-05T14:35:44.552Z</time>
      </trkpt>
      <trkpt lat="49.60823" lon="3.69918">
        <ele>121.4</ele>
        <time>2015-01-05T14:35:51.593Z</time>
      </trkpt>
      <trkpt lat="49.60822" lon="3.69918">
        <ele>121.4</ele>
        <time>2015-01-05T14:35:52.548Z</time>
      </trkpt>
      <trkpt lat="49.60813" lon="3.69915">
        <ele>121</ele>
        <time>2015-01-05T14:35:59.536Z</time>
      </trkpt>
      <trkpt lat="49.60812" lon="3.69914">
        <ele>120.9</ele>
        <time>2015-01-05T14:36:00.552Z</time>
      </trkpt>
      <trkpt lat="49.60804" lon="3.69911">
        <ele>120.5</ele>
        <time>2015-01-05T14:36:07.465Z</time>
      </trkpt>
      <trkpt lat="49.60803" lon="3.6991">
        <ele>120.5</ele>
        <time>2015-01-05T14:36:08.518Z</time>
      </trkpt>
      <trkpt lat="49.60794" lon="3.69907">
        <ele>119.8</ele>
        <time>2015-01-05T14:36:15.454Z</time>
      </trkpt>
      <trkpt lat="49.60793" lon="3.69906">
        <ele>119.7</ele>
        <time>2015-01-05T14:36:16.460Z</time>
      </trkpt>
      <trkpt lat="49.60784" lon="3.69903">
        <ele>119.5</ele>
        <time>2015-01-05T14:36:23.549Z</time>
      </trkpt>
      <trkpt lat="49.60783" lon="3.69903">
        <ele>119.5</ele>
        <time>2015-01-05T14:36:24.460Z</time>
      </trkpt>
      <trkpt lat="49.60775" lon="3.699">
        <ele>119.3</ele>
        <time>2015-01-05T14:36:31.485Z</time>
      </trkpt>
      <trkpt lat="49.60774" lon="3.699">
        <ele>119.3</ele>
        <time>2015-01-05T14:36:31.512Z</time>
      </trkpt>
      <trkpt lat="49.60766" lon="3.69897">
        <ele>118.8</ele>
        <time>2015-01-05T14:36:37.494Z</time>
      </trkpt>
      <trkpt lat="49.60765" lon="3.69896">
        <ele>118.7</ele>
        <time>2015-01-05T14:36:38.520Z</time>
      </trkpt>
      <trkpt lat="49.60756" lon="3.69893">
        <ele>118.4</ele>
        <time>2015-01-05T14:36:45.529Z</time>
      </trkpt>
      <trkpt lat="49.60755" lon="3.69892">
        <ele>118.3</ele>
        <time>2015-01-05T14:36:46.535Z</time>
      </trkpt>
      <trkpt lat="49.60747" lon="3.69889">
        <ele>118.2</ele>
        <time>2015-01-05T14:36:53.469Z</time>
      </trkpt>
      <trkpt lat="49.60745" lon="3.69889">
        <ele>118.3</ele>
        <time>2015-01-05T14:36:54.481Z</time>
      </trkpt>
      <trkpt lat="49.60737" lon="3.69886">
        <ele>117.9</ele>
        <time>2015-01-05T14:37:01.624Z</time>
      </trkpt>
      <trkpt lat="49.60735" lon="3.69885">
        <ele>117.9</ele>
        <time>2015-01-05T14:37:02.519Z</time>
      </trkpt>
      <trkpt lat="49.60727" lon="3.69884">
        <ele>117.8</ele>
        <time>2015-01-05T14:37:09.518Z</time>
      </trkpt>
      <trkpt lat="49.60726" lon="3.69883">
        <ele>117.7</ele>
        <time>2015-01-05T14:37:10.523Z</time>
      </trkpt>
      <trkpt lat="49.60718" lon="3.6988">
        <ele>117.6</ele>
        <time>2015-01-05T14:37:16.904Z</time>
      </trkpt>
      <trkpt lat="49.60717" lon="3.6988">
        <ele>117.8</ele>
        <time>2015-01-05T14:37:17.472Z</time>
      </trkpt>
      <trkpt lat="49.60709" lon="3.69876">
        <ele>117.3</ele>
        <time>2015-01-05T14:37:24.538Z</time>
      </trkpt>
      <trkpt lat="49.60707" lon="3.69876">
        <ele>117.3</ele>
        <time>2015-01-05T14:37:25.553Z</time>
      </trkpt>
      <trkpt lat="49.60699" lon="3.69873">
        <ele>117.3</ele>
        <time>2015-01-05T14:37:33.452Z</time>
      </trkpt>
      <trkpt lat="49.60698" lon="3.69873">
        <ele>117.4</ele>
        <time>2015-01-05T14:37:34.467Z</time>
      </trkpt>
      <trkpt lat="49.6069" lon="3.69869">
        <ele>118.1</ele>
        <time>2015-01-05T14:37:41.552Z</time>
      </trkpt>
      <trkpt lat="49.60689" lon="3.69869">
        <ele>118.3</ele>
        <time>2015-01-05T14:37:42.553Z</time>
      </trkpt>
      <trkpt lat="49.60681" lon="3.69866">
        <ele>118.1</ele>
        <time>2015-01-05T14:37:50.531Z</time>
      </trkpt>
      <trkpt lat="49.60679" lon="3.69865">
        <ele>118.1</ele>
        <time>2015-01-05T14:37:51.538Z</time>
      </trkpt>
      <trkpt lat="49.60671" lon="3.69861">
        <ele>118.3</ele>
        <time>2015-01-05T14:38:00.553Z</time>
      </trkpt>
      <trkpt lat="49.6067" lon="3.69861">
        <ele>118.4</ele>
        <time>2015-01-05T14:38:01.562Z</time>
      </trkpt>
      <trkpt lat="49.60662" lon="3.69857">
        <ele>118</ele>
        <time>2015-01-05T14:38:08.534Z</time>
      </trkpt>
      <trkpt lat="49.60661" lon="3.69857">
        <ele>118.1</ele>
        <time>2015-01-05T14:38:09.532Z</time>
      </trkpt>
      <trkpt lat="49.60653" lon="3.69854">
        <ele>118.5</ele>
        <time>2015-01-05T14:38:15.471Z</time>
      </trkpt>
      <trkpt lat="49.60651" lon="3.69853">
        <ele>118.4</ele>
        <time>2015-01-05T14:38:16.470Z</time>
      </trkpt>
      <trkpt lat="49.60643" lon="3.6985">
        <ele>118.1</ele>
        <time>2015-01-05T14:38:22.550Z</time>
      </trkpt>
      <trkpt lat="49.60642" lon="3.6985">
        <ele>118</ele>
        <time>2015-01-05T14:38:23.565Z</time>
      </trkpt>
      <trkpt lat="49.60633" lon="3.69847">
        <ele>117.9</ele>
        <time>2015-01-05T14:38:30.469Z</time>
      </trkpt>
      <trkpt lat="49.60632" lon="3.69846">
        <ele>117.8</ele>
        <time>2015-01-05T14:38:31.470Z</time>
      </trkpt>
      <trkpt lat="49.60624" lon="3.69843">
        <ele>118.1</ele>
        <time>2015-01-05T14:38:37.498Z</time>
      </trkpt>
      <trkpt lat="49.60623" lon="3.69843">
        <ele>118.1</ele>
        <time>2015-01-05T14:38:38.529Z</time>
      </trkpt>
      <trkpt lat="49.60615" lon="3.69842">
        <ele>118.2</ele>
        <time>2015-01-05T14:38:44.532Z</time>
      </trkpt>
      <trkpt lat="49.60614" lon="3.69842">
        <ele>118.3</ele>
        <time>2015-01-05T14:38:45.529Z</time>
      </trkpt>
      <trkpt lat="49.60605" lon="3.69838">
        <ele>118.2</ele>
        <time>2015-01-05T14:38:53.481Z</time>
      </trkpt>
      <trkpt lat="49.60604" lon="3.69837">
        <ele>118.2</ele>
        <time>2015-01-05T14:38:54.503Z</time>
      </trkpt>
      <trkpt lat="49.60596" lon="3.69831">
        <ele>117.6</ele>
        <time>2015-01-05T14:39:01.672Z</time>
      </trkpt>
      <trkpt lat="49.60595" lon="3.69831">
        <ele>117.7</ele>
        <time>2015-01-05T14:39:02.531Z</time>
      </trkpt>
      <trkpt lat="49.60586" lon="3.69828">
        <ele>117.6</ele>
        <time>2015-01-05T14:39:08.531Z</time>
      </trkpt>
      <trkpt lat="49.60585" lon="3.69827">
        <ele>117.5</ele>
        <time>2015-01-05T14:39:09.533Z</time>
      </trkpt>
      <trkpt lat="49.60577" lon="3.69825">
        <ele>118</ele>
        <time>2015-01-05T14:39:15.553Z</time>
      </trkpt>
      <trkpt lat="49.60575" lon="3.69824">
        <ele>118</ele>
        <time>2015-01-05T14:39:16.468Z</time>
      </trkpt>
      <trkpt lat="49.60567" lon="3.69822">
        <ele>118</ele>
        <time>2015-01-05T14:39:22.541Z</time>
      </trkpt>
      <trkpt lat="49.60566" lon="3.69821">
        <ele>118</ele>
        <time>2015-01-05T14:39:23.558Z</time>
      </trkpt>
      <trkpt lat="49.60557" lon="3.69818">
        <ele>117.9</ele>
        <time>2015-01-05T14:39:30.467Z</time>
      </trkpt>
      <trkpt lat="49.60556" lon="3.69818">
        <ele>117.9</ele>
        <time>2015-01-05T14:39:31.465Z</time>
      </trkpt>
      <trkpt lat="49.60547" lon="3.69815">
        <ele>118.2</ele>
        <time>2015-01-05T14:39:38.531Z</time>
      </trkpt>
      <trkpt lat="49.60546" lon="3.69814">
        <ele>118.2</ele>
        <time>2015-01-05T14:39:39.541Z</time>
      </trkpt>
      <trkpt lat="49.60538" lon="3.69812">
        <ele>118.3</ele>
        <time>2015-01-05T14:39:46.707Z</time>
      </trkpt>
      <trkpt lat="49.60536" lon="3.69811">
        <ele>118.3</ele>
        <time>2015-01-05T14:39:47.553Z</time>
      </trkpt>
      <trkpt lat="49.60529" lon="3.69808">
        <ele>118.5</ele>
        <time>2015-01-05T14:39:54.554Z</time>
      </trkpt>
      <trkpt lat="49.60528" lon="3.69808">
        <ele>118.6</ele>
        <time>2015-01-05T14:39:55.468Z</time>
      </trkpt>
      <trkpt lat="49.60519" lon="3.69805">
        <ele>118.8</ele>
        <time>2015-01-05T14:40:02.534Z</time>
      </trkpt>
      <trkpt lat="49.60518" lon="3.69804">
        <ele>118.8</ele>
        <time>2015-01-05T14:40:03.530Z</time>
      </trkpt>
      <trkpt lat="49.6051" lon="3.69801">
        <ele>118.8</ele>
        <time>2015-01-05T14:40:09.469Z</time>
      </trkpt>
      <trkpt lat="49.60508" lon="3.69801">
        <ele>118.7</ele>
        <time>2015-01-05T14:40:10.471Z</time>
      </trkpt>
      <trkpt lat="49.605" lon="3.69799">
        <ele>118.6</ele>
        <time>2015-01-05T14:40:17.148Z</time>
      </trkpt>
      <trkpt lat="49.60499" lon="3.69798">
        <ele>118.6</ele>
        <time>2015-01-05T14:40:17.551Z</time>
      </trkpt>
      <trkpt lat="49.6049" lon="3.69794">
        <ele>118.6</ele>
        <time>2015-01-05T14:40:24.469Z</time>
      </trkpt>
      <trkpt lat="49.60489" lon="3.69793">
        <ele>118.6</ele>
        <time>2015-01-05T14:40:25.470Z</time>
      </trkpt>
      <trkpt lat="49.60481" lon="3.69791">
        <ele>119.1</ele>
        <time>2015-01-05T14:40:32.535Z</time>
      </trkpt>
      <trkpt lat="49.60479" lon="3.6979">
        <ele>119.1</ele>
        <time>2015-01-05T14:40:33.540Z</time>
      </trkpt>
      <trkpt lat="49.60472" lon="3.69787">
        <ele>119.2</ele>
        <time>2015-01-05T14:40:39.536Z</time>
      </trkpt>
      <trkpt lat="49.6047" lon="3.69786">
        <ele>119.2</ele>
        <time>2015-01-05T14:40:40.540Z</time>
      </trkpt>
      <trkpt lat="49.60462" lon="3.69782">
        <ele>119.2</ele>
        <time>2015-01-05T14:40:47.552Z</time>
      </trkpt>
      <trkpt lat="49.60461" lon="3.69781">
        <ele>119.3</ele>
        <time>2015-01-05T14:40:48.562Z</time>
      </trkpt>
      <trkpt lat="49.60452" lon="3.69779">
        <ele>119.3</ele>
        <time>2015-01-05T14:40:54.558Z</time>
      </trkpt>
      <trkpt lat="49.60451" lon="3.69779">
        <ele>119.2</ele>
        <time>2015-01-05T14:40:55.469Z</time>
      </trkpt>
      <trkpt lat="49.60443" lon="3.69776">
        <ele>118.6</ele>
        <time>2015-01-05T14:41:01.640Z</time>
      </trkpt>
      <trkpt lat="49.60441" lon="3.69775">
        <ele>118.6</ele>
        <time>2015-01-05T14:41:02.533Z</time>
      </trkpt>
      <trkpt lat="49.60434" lon="3.69773">
        <ele>118.7</ele>
        <time>2015-01-05T14:41:08.533Z</time>
      </trkpt>
      <trkpt lat="49.60432" lon="3.69772">
        <ele>118.8</ele>
        <time>2015-01-05T14:41:09.540Z</time>
      </trkpt>
      <trkpt lat="49.60424" lon="3.6977">
        <ele>119.3</ele>
        <time>2015-01-05T14:41:15.536Z</time>
      </trkpt>
      <trkpt lat="49.60423" lon="3.6977">
        <ele>119.4</ele>
        <time>2015-01-05T14:41:16.546Z</time>
      </trkpt>
      <trkpt lat="49.60415" lon="3.69768">
        <ele>119.5</ele>
        <time>2015-01-05T14:41:22.545Z</time>
      </trkpt>
      <trkpt lat="49.60413" lon="3.69768">
        <ele>119.5</ele>
        <time>2015-01-05T14:41:23.555Z</time>
      </trkpt>
      <trkpt lat="49.60405" lon="3.69765">
        <ele>119.6</ele>
        <time>2015-01-05T14:41:29.536Z</time>
      </trkpt>
      <trkpt lat="49.60404" lon="3.69765">
        <ele>119.6</ele>
        <time>2015-01-05T14:41:30.546Z</time>
      </trkpt>
      <trkpt lat="49.60396" lon="3.69763">
        <ele>120.2</ele>
        <time>2015-01-05T14:41:36.569Z</time>
      </trkpt>
      <trkpt lat="49.60394" lon="3.69762">
        <ele>120.2</ele>
        <time>2015-01-05T14:41:37.492Z</time>
      </trkpt>
      <trkpt lat="49.60387" lon="3.69761">
        <ele>120.1</ele>
        <time>2015-01-05T14:41:43.470Z</time>
      </trkpt>
      <trkpt lat="49.60385" lon="3.69761">
        <ele>120.3</ele>
        <time>2015-01-05T14:41:44.536Z</time>
      </trkpt>
      <trkpt lat="49.60378" lon="3.69759">
        <ele>120.7</ele>
        <time>2015-01-05T14:41:50.531Z</time>
      </trkpt>
      <trkpt lat="49.60376" lon="3.69759">
        <ele>120.7</ele>
        <time>2015-01-05T14:41:51.535Z</time>
      </trkpt>
      <trkpt lat="49.60368" lon="3.69757">
        <ele>120.7</ele>
        <time>2015-01-05T14:41:58.544Z</time>
      </trkpt>
      <trkpt lat="49.60367" lon="3.69757">
        <ele>120.8</ele>
        <time>2015-01-05T14:41:59.547Z</time>
      </trkpt>
      <trkpt lat="49.60359" lon="3.69752">
        <ele>120.4</ele>
        <time>2015-01-05T14:42:07.477Z</time>
      </trkpt>
      <trkpt lat="49.60358" lon="3.69752">
        <ele>120.5</ele>
        <time>2015-01-05T14:42:08.538Z</time>
      </trkpt>
      <trkpt lat="49.6035" lon="3.69751">
        <ele>120.8</ele>
        <time>2015-01-05T14:42:14.542Z</time>
      </trkpt>
      <trkpt lat="49.60349" lon="3.69751">
        <ele>120.7</ele>
        <time>2015-01-05T14:42:15.552Z</time>
      </trkpt>
      <trkpt lat="49.60341" lon="3.6975">
        <ele>120.7</ele>
        <time>2015-01-05T14:42:22.288Z</time>
      </trkpt>
      <trkpt lat="49.60339" lon="3.6975">
        <ele>120.6</ele>
        <time>2015-01-05T14:42:22.543Z</time>
      </trkpt>
      <trkpt lat="49.60331" lon="3.69749">
        <ele>120.3</ele>
        <time>2015-01-05T14:42:29.468Z</time>
      </trkpt>
      <trkpt lat="49.60329" lon="3.69749">
        <ele>120.5</ele>
        <time>2015-01-05T14:42:30.455Z</time>
      </trkpt>
      <trkpt lat="49.60321" lon="3.6975">
        <ele>120.8</ele>
        <time>2015-01-05T14:42:36.504Z</time>
      </trkpt>
      <trkpt lat="49.6032" lon="3.69751">
        <ele>120.9</ele>
        <time>2015-01-05T14:42:37.472Z</time>
      </trkpt>
      <trkpt lat="49.60312" lon="3.69753">
        <ele>121</ele>
        <time>2015-01-05T14:42:45.542Z</time>
      </trkpt>
      <trkpt lat="49.6031" lon="3.69753">
        <ele>120.9</ele>
        <time>2015-01-05T14:42:46.562Z</time>
      </trkpt>
      <trkpt lat="49.60302" lon="3.69752">
        <ele>120.9</ele>
        <time>2015-01-05T14:42:52.558Z</time>
      </trkpt>
      <trkpt lat="49.60301" lon="3.69752">
        <ele>120.9</ele>
        <time>2015-01-05T14:42:53.471Z</time>
      </trkpt>
      <trkpt lat="49.60293" lon="3.69752">
        <ele>120.7</ele>
        <time>2015-01-05T14:42:59.552Z</time>
      </trkpt>
      <trkpt lat="49.60292" lon="3.69752">
        <ele>120.7</ele>
        <time>2015-01-05T14:43:00.564Z</time>
      </trkpt>
      <trkpt lat="49.60284" lon="3.69749">
        <ele>120.5</ele>
        <time>2015-01-05T14:43:08.560Z</time>
      </trkpt>
      <trkpt lat="49.60283" lon="3.69749">
        <ele>120.5</ele>
        <time>2015-01-05T14:43:09.467Z</time>
      </trkpt>
      <trkpt lat="49.60275" lon="3.6975">
        <ele>120.3</ele>
        <time>2015-01-05T14:43:16.994Z</time>
      </trkpt>
      <trkpt lat="49.60274" lon="3.6975">
        <ele>120.3</ele>
        <time>2015-01-05T14:43:17.469Z</time>
      </trkpt>
      <trkpt lat="49.60265" lon="3.69752">
        <ele>120</ele>
        <time>2015-01-05T14:43:26.473Z</time>
      </trkpt>
      <trkpt lat="49.60264" lon="3.69752">
        <ele>120.1</ele>
        <time>2015-01-05T14:43:26.522Z</time>
      </trkpt>
      <trkpt lat="49.60255" lon="3.69752">
        <ele>120</ele>
        <time>2015-01-05T14:43:32.580Z</time>
      </trkpt>
      <trkpt lat="49.60254" lon="3.69752">
        <ele>119.9</ele>
        <time>2015-01-05T14:43:33.466Z</time>
      </trkpt>
      <trkpt lat="49.60246" lon="3.69752">
        <ele>120</ele>
        <time>2015-01-05T14:43:39.535Z</time>
      </trkpt>
      <trkpt lat="49.60245" lon="3.69752">
        <ele>119.9</ele>
        <time>2015-01-05T14:43:40.548Z</time>
      </trkpt>
      <trkpt lat="49.60237" lon="3.69752">
        <ele>119.8</ele>
        <time>2015-01-05T14:43:46.669Z</time>
      </trkpt>
      <trkpt lat="49.60236" lon="3.69751">
        <ele>119.7</ele>
        <time>2015-01-05T14:43:47.548Z</time>
      </trkpt>
      <trkpt lat="49.60228" lon="3.69752">
        <ele>120</ele>
        <time>2015-01-05T14:43:53.558Z</time>
      </trkpt>
      <trkpt lat="49.60226" lon="3.69751">
        <ele>120.1</ele>
        <time>2015-01-05T14:43:54.469Z</time>
      </trkpt>
      <trkpt lat="49.60218" lon="3.69752">
        <ele>120.4</ele>
        <time>2015-01-05T14:44:00.470Z</time>
      </trkpt>
      <trkpt lat="49.60217" lon="3.69752">
        <ele>120.4</ele>
        <time>2015-01-05T14:44:01.477Z</time>
      </trkpt>
      <trkpt lat="49.60209" lon="3.69752">
        <ele>120.5</ele>
        <time>2015-01-05T14:44:07.468Z</time>
      </trkpt>
      <trkpt lat="49.60208" lon="3.69752">
        <ele>120.6</ele>
        <time>2015-01-05T14:44:08.520Z</time>
      </trkpt>
      <trkpt lat="49.60199" lon="3.69752">
        <ele>120.4</ele>
        <time>2015-01-05T14:44:15.536Z</time>
      </trkpt>
      <trkpt lat="49.60198" lon="3.69752">
        <ele>120.4</ele>
        <time>2015-01-05T14:44:16.541Z</time>
      </trkpt>
      <trkpt lat="49.6019" lon="3.69754">
        <ele>120.2</ele>
        <time>2015-01-05T14:44:23.546Z</time>
      </trkpt>
      <trkpt lat="49.60188" lon="3.69754">
        <ele>120.3</ele>
        <time>2015-01-05T14:44:24.549Z</time>
      </trkpt>
      <trkpt lat="49.6018" lon="3.69754">
        <ele>120.5</ele>
        <time>2015-01-05T14:44:31.486Z</time>
      </trkpt>
      <trkpt lat="49.60178" lon="3.69754">
        <ele>120.6</ele>
        <time>2015-01-05T14:44:32.540Z</time>
      </trkpt>
      <trkpt lat="49.60169" lon="3.69754">
        <ele>120.4</ele>
        <time>2015-01-05T14:44:39.541Z</time>
      </trkpt>
      <trkpt lat="49.60168" lon="3.69754">
        <ele>120.5</ele>
        <time>2015-01-05T14:44:40.545Z</time>
      </trkpt>
      <trkpt lat="49.6016" lon="3.69751">
        <ele>120.3</ele>
        <time>2015-01-05T14:44:47.466Z</time>
      </trkpt>
      <trkpt lat="49.60158" lon="3.69751">
        <ele>120.3</ele>
        <time>2015-01-05T14:44:48.466Z</time>
      </trkpt>
      <trkpt lat="49.60151" lon="3.69751">
        <ele>120.3</ele>
        <time>2015-01-05T14:44:54.470Z</time>
      </trkpt>
      <trkpt lat="49.60149" lon="3.69751">
        <ele>120.4</ele>
        <time>2015-01-05T14:44:55.466Z</time>
      </trkpt>
      <trkpt lat="49.6014" lon="3.6975">
        <ele>120.4</ele>
        <time>2015-01-05T14:45:02.534Z</time>
      </trkpt>
      <trkpt lat="49.60139" lon="3.69749">
        <ele>120.3</ele>
        <time>2015-01-05T14:45:03.545Z</time>
      </trkpt>
      <trkpt lat="49.60131" lon="3.6975">
        <ele>119.9</ele>
        <time>2015-01-05T14:45:09.534Z</time>
      </trkpt>
      <trkpt lat="49.6013" lon="3.6975">
        <ele>120</ele>
        <time>2015-01-05T14:45:10.542Z</time>
      </trkpt>
      <trkpt lat="49.60122" lon="3.6975">
        <ele>120.3</ele>
        <time>2015-01-05T14:45:16.771Z</time>
      </trkpt>
      <trkpt lat="49.6012" lon="3.6975">
        <ele>120.3</ele>
        <time>2015-01-05T14:45:17.478Z</time>
      </trkpt>
      <trkpt lat="49.60113" lon="3.6975">
        <ele>120.2</ele>
        <time>2015-01-05T14:45:23.470Z</time>
      </trkpt>
      <trkpt lat="49.60111" lon="3.6975">
        <ele>120.1</ele>
        <time>2015-01-05T14:45:24.472Z</time>
      </trkpt>
      <trkpt lat="49.60102" lon="3.69749">
        <ele>120.3</ele>
        <time>2015-01-05T14:45:31.736Z</time>
      </trkpt>
      <trkpt lat="49.60101" lon="3.69749">
        <ele>120.4</ele>
        <time>2015-01-05T14:45:32.567Z</time>
      </trkpt>
      <trkpt lat="49.60093" lon="3.6975">
        <ele>120.3</ele>
        <time>2015-01-05T14:45:38.543Z</time>
      </trkpt>
      <trkpt lat="49.60091" lon="3.6975">
        <ele>120.3</ele>
        <time>2015-01-05T14:45:39.556Z</time>
      </trkpt>
      <trkpt lat="49.60082" lon="3.69751">
        <ele>120.2</ele>
        <time>2015-01-05T14:45:46.566Z</time>
      </trkpt>
      <trkpt lat="49.60081" lon="3.69751">
        <ele>120.1</ele>
        <time>2015-01-05T14:45:47.558Z</time>
      </trkpt>
      <trkpt lat="49.60073" lon="3.69751">
        <ele>119.5</ele>
        <time>2015-01-05T14:45:57.539Z</time>
      </trkpt>
      <trkpt lat="49.60072" lon="3.69751">
        <ele>119.4</ele>
        <time>2015-01-05T14:45:58.548Z</time>
      </trkpt>
      <trkpt lat="49.60063" lon="3.69751">
        <ele>119.7</ele>
        <time>2015-01-05T14:46:05.552Z</time>
      </trkpt>
      <trkpt lat="49.60062" lon="3.69751">
        <ele>119.8</ele>
        <time>2015-01-05T14:46:06.559Z</time>
      </trkpt>
      <trkpt lat="49.60053" lon="3.6975">
        <ele>120.5</ele>
        <time>2015-01-05T14:46:13.469Z</time>
      </trkpt>
      <trkpt lat="49.60052" lon="3.69751">
        <ele>120.6</ele>
        <time>2015-01-05T14:46:14.538Z</time>
      </trkpt>
      <trkpt lat="49.60043" lon="3.69751">
        <ele>121.4</ele>
        <time>2015-01-05T14:46:21.762Z</time>
      </trkpt>
      <trkpt lat="49.60042" lon="3.69751">
        <ele>121.5</ele>
        <time>2015-01-05T14:46:22.615Z</time>
      </trkpt>
      <trkpt lat="49.60034" lon="3.69752">
        <ele>121.3</ele>
        <time>2015-01-05T14:46:28.558Z</time>
      </trkpt>
      <trkpt lat="49.60033" lon="3.69752">
        <ele>121.3</ele>
        <time>2015-01-05T14:46:29.468Z</time>
      </trkpt>
      <trkpt lat="49.60025" lon="3.69752">
        <ele>121.3</ele>
        <time>2015-01-05T14:46:35.559Z</time>
      </trkpt>
      <trkpt lat="49.60023" lon="3.69751">
        <ele>121.3</ele>
        <time>2015-01-05T14:46:36.468Z</time>
      </trkpt>
      <trkpt lat="49.60016" lon="3.69745">
        <ele>121.2</ele>
        <time>2015-01-05T14:46:44.519Z</time>
      </trkpt>
      <trkpt lat="49.60016" lon="3.69743">
        <ele>121</ele>
        <time>2015-01-05T14:46:45.524Z</time>
      </trkpt>
      <trkpt lat="49.60015" lon="3.6973">
        <ele>120.4</ele>
        <time>2015-01-05T14:46:52.538Z</time>
      </trkpt>
      <trkpt lat="49.60015" lon="3.69728">
        <ele>120.4</ele>
        <time>2015-01-05T14:46:53.542Z</time>
      </trkpt>
      <trkpt lat="49.60016" lon="3.69714">
        <ele>119.9</ele>
        <time>2015-01-05T14:47:00.455Z</time>
      </trkpt>
      <trkpt lat="49.60016" lon="3.69712">
        <ele>119.7</ele>
        <time>2015-01-05T14:47:01.462Z</time>
      </trkpt>
      <trkpt lat="49.60019" lon="3.69701">
        <ele>119.5</ele>
        <time>2015-01-05T14:47:07.470Z</time>
      </trkpt>
      <trkpt lat="49.6002" lon="3.697">
        <ele>119.4</ele>
        <time>2015-01-05T14:47:08.602Z</time>
      </trkpt>
      <trkpt lat="49.60024" lon="3.69688">
        <ele>118.5</ele>
        <time>2015-01-05T14:47:15.518Z</time>
      </trkpt>
      <trkpt lat="49.60024" lon="3.69686">
        <ele>118.4</ele>
        <time>2015-01-05T14:47:16.525Z</time>
      </trkpt>
      <trkpt lat="49.60028" lon="3.69675">
        <ele>118</ele>
        <time>2015-01-05T14:47:24.549Z</time>
      </trkpt>
      <trkpt lat="49.60028" lon="3.69674">
        <ele>117.9</ele>
        <time>2015-01-05T14:47:25.459Z</time>
      </trkpt>
      <trkpt lat="49.60032" lon="3.69662">
        <ele>117.7</ele>
        <time>2015-01-05T14:47:34.461Z</time>
      </trkpt>
      <trkpt lat="49.60033" lon="3.6966">
        <ele>117.6</ele>
        <time>2015-01-05T14:47:35.468Z</time>
      </trkpt>
      <trkpt lat="49.60037" lon="3.69649">
        <ele>116.9</ele>
        <time>2015-01-05T14:47:42.538Z</time>
      </trkpt>
      <trkpt lat="49.60038" lon="3.69647">
        <ele>116.8</ele>
        <time>2015-01-05T14:47:43.541Z</time>
      </trkpt>
      <trkpt lat="49.60043" lon="3.69637">
        <ele>116.2</ele>
        <time>2015-01-05T14:47:49.493Z</time>
      </trkpt>
      <trkpt lat="49.60044" lon="3.69635">
        <ele>116.2</ele>
        <time>2015-01-05T14:47:50.521Z</time>
      </trkpt>
      <trkpt lat="49.60049" lon="3.69624">
        <ele>116.3</ele>
        <time>2015-01-05T14:47:56.595Z</time>
      </trkpt>
      <trkpt lat="49.6005" lon="3.69623">
        <ele>116.2</ele>
        <time>2015-01-05T14:47:57.527Z</time>
      </trkpt>
      <trkpt lat="49.60054" lon="3.69612">
        <ele>116</ele>
        <time>2015-01-05T14:48:03.525Z</time>
      </trkpt>
      <trkpt lat="49.60055" lon="3.6961">
        <ele>116</ele>
        <time>2015-01-05T14:48:04.531Z</time>
      </trkpt>
      <trkpt lat="49.60058" lon="3.69599">
        <ele>116.1</ele>
        <time>2015-01-05T14:48:10.460Z</time>
      </trkpt>
      <trkpt lat="49.60059" lon="3.69597">
        <ele>116.1</ele>
        <time>2015-01-05T14:48:11.467Z</time>
      </trkpt>
      <trkpt lat="49.60061" lon="3.69585">
        <ele>116.4</ele>
        <time>2015-01-05T14:48:18.545Z</time>
      </trkpt>
      <trkpt lat="49.60062" lon="3.69583">
        <ele>116.5</ele>
        <time>2015-01-05T14:48:19.548Z</time>
      </trkpt>
      <trkpt lat="49.60064" lon="3.69571">
        <ele>115.6</ele>
        <time>2015-01-05T14:48:26.491Z</time>
      </trkpt>
      <trkpt lat="49.60065" lon="3.69569">
        <ele>115.6</ele>
        <time>2015-01-05T14:48:26.533Z</time>
      </trkpt>
      <trkpt lat="49.60068" lon="3.69558">
        <ele>115.6</ele>
        <time>2015-01-05T14:48:32.523Z</time>
      </trkpt>
      <trkpt lat="49.60068" lon="3.69556">
        <ele>115.5</ele>
        <time>2015-01-05T14:48:33.526Z</time>
      </trkpt>
      <trkpt lat="49.60073" lon="3.69547">
        <ele>114.5</ele>
        <time>2015-01-05T14:48:39.523Z</time>
      </trkpt>
      <trkpt lat="49.60074" lon="3.69545">
        <ele>114.5</ele>
        <time>2015-01-05T14:48:40.528Z</time>
      </trkpt>
      <trkpt lat="49.60078" lon="3.69534">
        <ele>114.2</ele>
        <time>2015-01-05T14:48:46.622Z</time>
      </trkpt>
      <trkpt lat="49.60079" lon="3.69533">
        <ele>114.1</ele>
        <time>2015-01-05T14:48:47.469Z</time>
      </trkpt>
      <trkpt lat="49.60083" lon="3.69522">
        <ele>113.8</ele>
        <time>2015-01-05T14:48:53.542Z</time>
      </trkpt>
      <trkpt lat="49.60084" lon="3.6952">
        <ele>113.8</ele>
        <time>2015-01-05T14:48:54.550Z</time>
      </trkpt>
      <trkpt lat="49.60087" lon="3.69509">
        <ele>114.1</ele>
        <time>2015-01-05T14:49:00.461Z</time>
      </trkpt>
      <trkpt lat="49.60088" lon="3.69507">
        <ele>114.1</ele>
        <time>2015-01-05T14:49:01.462Z</time>
      </trkpt>
      <trkpt lat="49.60091" lon="3.69496">
        <ele>113.8</ele>
        <time>2015-01-05T14:49:07.462Z</time>
      </trkpt>
      <trkpt lat="49.60091" lon="3.69494">
        <ele>113.8</ele>
        <time>2015-01-05T14:49:08.521Z</time>
      </trkpt>
      <trkpt lat="49.60096" lon="3.69484">
        <ele>113.3</ele>
        <time>2015-01-05T14:49:14.564Z</time>
      </trkpt>
      <trkpt lat="49.60097" lon="3.69482">
        <ele>113.2</ele>
        <time>2015-01-05T14:49:15.460Z</time>
      </trkpt>
      <trkpt lat="49.60101" lon="3.69471">
        <ele>112.9</ele>
        <time>2015-01-05T14:49:22.093Z</time>
      </trkpt>
      <trkpt lat="49.60102" lon="3.69469">
        <ele>112.9</ele>
        <time>2015-01-05T14:49:22.531Z</time>
      </trkpt>
      <trkpt lat="49.60105" lon="3.69457">
        <ele>112.7</ele>
        <time>2015-01-05T14:49:28.523Z</time>
      </trkpt>
      <trkpt lat="49.60105" lon="3.69455">
        <ele>112.7</ele>
        <time>2015-01-05T14:49:29.534Z</time>
      </trkpt>
      <trkpt lat="49.60107" lon="3.69443">
        <ele>113.1</ele>
        <time>2015-01-05T14:49:35.533Z</time>
      </trkpt>
      <trkpt lat="49.60107" lon="3.69441">
        <ele>113.1</ele>
        <time>2015-01-05T14:49:36.538Z</time>
      </trkpt>
      <trkpt lat="49.60107" lon="3.69427">
        <ele>113.8</ele>
        <time>2015-01-05T14:49:42.478Z</time>
      </trkpt>
      <trkpt lat="49.60107" lon="3.69425">
        <ele>114</ele>
        <time>2015-01-05T14:49:43.484Z</time>
      </trkpt>
      <trkpt lat="49.60105" lon="3.69413">
        <ele>114.4</ele>
        <time>2015-01-05T14:49:49.461Z</time>
      </trkpt>
      <trkpt lat="49.60104" lon="3.69412">
        <ele>114.6</ele>
        <time>2015-01-05T14:49:50.517Z</time>
      </trkpt>
      <trkpt lat="49.60102" lon="3.694">
        <ele>115.1</ele>
        <time>2015-01-05T14:49:57.527Z</time>
      </trkpt>
      <trkpt lat="49.60101" lon="3.69398">
        <ele>115.2</ele>
        <time>2015-01-05T14:49:58.534Z</time>
      </trkpt>
      <trkpt lat="49.60101" lon="3.69385">
        <ele>114.9</ele>
        <time>2015-01-05T14:50:05.456Z</time>
      </trkpt>
      <trkpt lat="49.60101" lon="3.69383">
        <ele>114.9</ele>
        <time>2015-01-05T14:50:06.464Z</time>
      </trkpt>
      <trkpt lat="49.60099" lon="3.69371">
        <ele>115.2</ele>
        <time>2015-01-05T14:50:13.462Z</time>
      </trkpt>
      <trkpt lat="49.60098" lon="3.69369">
        <ele>115.4</ele>
        <time>2015-01-05T14:50:14.520Z</time>
      </trkpt>
      <trkpt lat="49.60094" lon="3.69359">
        <ele>115.9</ele>
        <time>2015-01-05T14:50:20.566Z</time>
      </trkpt>
      <trkpt lat="49.60093" lon="3.69357">
        <ele>116</ele>
        <time>2015-01-05T14:50:21.460Z</time>
      </trkpt>
      <trkpt lat="49.6009" lon="3.69345">
        <ele>116.1</ele>
        <time>2015-01-05T14:50:27.530Z</time>
      </trkpt>
      <trkpt lat="49.60089" lon="3.69343">
        <ele>116.2</ele>
        <time>2015-01-05T14:50:28.536Z</time>
      </trkpt>
      <trkpt lat="49.60086" lon="3.69332">
        <ele>116.1</ele>
        <time>2015-01-05T14:50:34.538Z</time>
      </trkpt>
      <trkpt lat="49.60086" lon="3.6933">
        <ele>116.2</ele>
        <time>2015-01-05T14:50:35.545Z</time>
      </trkpt>
      <trkpt lat="49.60083" lon="3.69319">
        <ele>116.4</ele>
        <time>2015-01-05T14:50:41.803Z</time>
      </trkpt>
      <trkpt lat="49.60082" lon="3.69317">
        <ele>116.5</ele>
        <time>2015-01-05T14:50:42.547Z</time>
      </trkpt>
      <trkpt lat="49.60079" lon="3.69306">
        <ele>116.8</ele>
        <time>2015-01-05T14:50:48.541Z</time>
      </trkpt>
      <trkpt lat="49.60079" lon="3.69304">
        <ele>116.8</ele>
        <time>2015-01-05T14:50:49.461Z</time>
      </trkpt>
      <trkpt lat="49.60077" lon="3.69292">
        <ele>116.6</ele>
        <time>2015-01-05T14:50:57.028Z</time>
      </trkpt>
      <trkpt lat="49.60077" lon="3.6929">
        <ele>116.5</ele>
        <time>2015-01-05T14:50:57.519Z</time>
      </trkpt>
      <trkpt lat="49.60077" lon="3.69277">
        <ele>116.1</ele>
        <time>2015-01-05T14:51:04.459Z</time>
      </trkpt>
      <trkpt lat="49.60077" lon="3.69275">
        <ele>116.1</ele>
        <time>2015-01-05T14:51:05.463Z</time>
      </trkpt>
      <trkpt lat="49.60079" lon="3.69263">
        <ele>116</ele>
        <time>2015-01-05T14:51:13.549Z</time>
      </trkpt>
      <trkpt lat="49.6008" lon="3.69262">
        <ele>116</ele>
        <time>2015-01-05T14:51:14.567Z</time>
      </trkpt>
      <trkpt lat="49.60085" lon="3.69251">
        <ele>115.9</ele>
        <time>2015-01-05T14:51:22.530Z</time>
      </trkpt>
      <trkpt lat="49.60086" lon="3.6925">
        <ele>115.9</ele>
        <time>2015-01-05T14:51:23.540Z</time>
      </trkpt>
      <trkpt lat="49.60088" lon="3.69243">
        <ele>116.1</ele>
        <time>2015-01-05T14:51:29.533Z</time>
      </trkpt>
      <trkpt lat="49.60088" lon="3.69243">
        <ele>116</ele>
        <time>2015-01-05T14:51:30.538Z</time>
      </trkpt>
      <trkpt lat="49.60087" lon="3.69242">
        <ele>115.8</ele>
        <time>2015-01-05T14:52:16.756Z</time>
      </trkpt>
      <trkpt lat="49.60088" lon="3.69242">
        <ele>115.1</ele>
        <time>2015-01-05T14:52:17.543Z</time>
      </trkpt>
      <trkpt lat="49.60088" lon="3.69242">
        <ele>115</ele>
        <time>2015-01-05T14:52:18.550Z</time>
      </trkpt>
      <trkpt lat="49.60088" lon="3.69242">
        <ele>115</ele>
        <time>2015-01-05T14:52:19.450Z</time>
      </trkpt>
      <trkpt lat="49.60083" lon="3.69252">
        <ele>115.3</ele>
        <time>2015-01-05T14:52:32.505Z</time>
      </trkpt>
      <trkpt lat="49.60082" lon="3.69253">
        <ele>115.4</ele>
        <time>2015-01-05T14:52:33.513Z</time>
      </trkpt>
      <trkpt lat="49.60074" lon="3.69256">
        <ele>115.5</ele>
        <time>2015-01-05T14:52:44.548Z</time>
      </trkpt>
      <trkpt lat="49.60073" lon="3.69255">
        <ele>115.3</ele>
        <time>2015-01-05T14:52:45.458Z</time>
      </trkpt>
      <trkpt lat="49.60068" lon="3.69252">
        <ele>114.9</ele>
        <time>2015-01-05T14:56:17.540Z</time>
      </trkpt>
      <trkpt lat="49.60068" lon="3.69252">
        <ele>115</ele>
        <time>2015-01-05T14:56:18.546Z</time>
      </trkpt>
      <trkpt lat="49.60068" lon="3.69253">
        <ele>115</ele>
        <time>2015-01-05T14:56:39.529Z</time>
      </trkpt>
      <trkpt lat="49.60067" lon="3.69252">
        <ele>114.8</ele>
        <time>2015-01-05T14:56:40.538Z</time>
      </trkpt>
      <trkpt lat="49.60067" lon="3.69252">
        <ele>114.8</ele>
        <time>2015-01-05T14:56:41.577Z</time>
      </trkpt>
      <trkpt lat="49.60067" lon="3.69251">
        <ele>114.8</ele>
        <time>2015-01-05T14:56:42.551Z</time>
      </trkpt>
      <trkpt lat="49.60067" lon="3.69251">
        <ele>114.7</ele>
        <time>2015-01-05T14:57:07.469Z</time>
      </trkpt>
      <trkpt lat="49.60066" lon="3.69253">
        <ele>114.9</ele>
        <time>2015-01-05T14:57:08.521Z</time>
      </trkpt>
      <trkpt lat="49.60066" lon="3.69255">
        <ele>114.9</ele>
        <time>2015-01-05T14:57:11.961Z</time>
      </trkpt>
      <trkpt lat="49.60066" lon="3.69255">
        <ele>114.9</ele>
        <time>2015-01-05T14:57:12.535Z</time>
      </trkpt>
      <trkpt lat="49.60066" lon="3.69255">
        <ele>115</ele>
        <time>2015-01-05T14:57:56.781Z</time>
      </trkpt>
      <trkpt lat="49.60065" lon="3.69256">
        <ele>115.3</ele>
        <time>2015-01-05T14:57:57.533Z</time>
      </trkpt>
      <trkpt lat="49.60064" lon="3.69255">
        <ele>115.2</ele>
        <time>2015-01-05T14:57:59.461Z</time>
      </trkpt>
      <trkpt lat="49.60064" lon="3.69254">
        <ele>115.1</ele>
        <time>2015-01-05T14:58:00.453Z</time>
      </trkpt>
      <trkpt lat="49.60064" lon="3.69255">
        <ele>114.5</ele>
        <time>2015-01-05T14:58:01.453Z</time>
      </trkpt>
      <trkpt lat="49.60055" lon="3.69255">
        <ele>114.1</ele>
        <time>2015-01-05T14:58:12.545Z</time>
      </trkpt>
      <trkpt lat="49.60054" lon="3.69255">
        <ele>114.1</ele>
        <time>2015-01-05T14:58:13.550Z</time>
      </trkpt>
      <trkpt lat="49.60046" lon="3.69256">
        <ele>114.8</ele>
        <time>2015-01-05T14:58:22.537Z</time>
      </trkpt>
      <trkpt lat="49.60044" lon="3.69256">
        <ele>114.9</ele>
        <time>2015-01-05T14:58:23.448Z</time>
      </trkpt>
      <trkpt lat="49.60036" lon="3.69257">
        <ele>115</ele>
        <time>2015-01-05T14:58:29.538Z</time>
      </trkpt>
      <trkpt lat="49.60035" lon="3.69257">
        <ele>115.1</ele>
        <time>2015-01-05T14:58:30.552Z</time>
      </trkpt>
      <trkpt lat="49.60026" lon="3.69259">
        <ele>114.8</ele>
        <time>2015-01-05T14:58:37.461Z</time>
      </trkpt>
      <trkpt lat="49.60025" lon="3.6926">
        <ele>114.7</ele>
        <time>2015-01-05T14:58:38.524Z</time>
      </trkpt>
      <trkpt lat="49.60017" lon="3.69263">
        <ele>114.4</ele>
        <time>2015-01-05T14:58:45.461Z</time>
      </trkpt>
      <trkpt lat="49.60016" lon="3.69263">
        <ele>114.4</ele>
        <time>2015-01-05T14:58:46.465Z</time>
      </trkpt>
      <trkpt lat="49.60007" lon="3.69265">
        <ele>115</ele>
        <time>2015-01-05T14:58:52.523Z</time>
      </trkpt>
      <trkpt lat="49.60006" lon="3.69266">
        <ele>114.9</ele>
        <time>2015-01-05T14:58:53.528Z</time>
      </trkpt>
      <trkpt lat="49.59999" lon="3.69269">
        <ele>115.2</ele>
        <time>2015-01-05T14:58:59.482Z</time>
      </trkpt>
      <trkpt lat="49.59997" lon="3.6927">
        <ele>115.4</ele>
        <time>2015-01-05T14:59:00.494Z</time>
      </trkpt>
      <trkpt lat="49.5999" lon="3.69275">
        <ele>116.1</ele>
        <time>2015-01-05T14:59:07.462Z</time>
      </trkpt>
      <trkpt lat="49.59988" lon="3.69277">
        <ele>116.3</ele>
        <time>2015-01-05T14:59:08.518Z</time>
      </trkpt>
      <trkpt lat="49.59981" lon="3.69283">
        <ele>116.7</ele>
        <time>2015-01-05T14:59:15.459Z</time>
      </trkpt>
      <trkpt lat="49.5998" lon="3.69284">
        <ele>116.8</ele>
        <time>2015-01-05T14:59:16.462Z</time>
      </trkpt>
      <trkpt lat="49.59973" lon="3.6929">
        <ele>116.7</ele>
        <time>2015-01-05T14:59:23.545Z</time>
      </trkpt>
      <trkpt lat="49.59972" lon="3.69291">
        <ele>116.6</ele>
        <time>2015-01-05T14:59:24.553Z</time>
      </trkpt>
      <trkpt lat="49.59963" lon="3.69296">
        <ele>116.9</ele>
        <time>2015-01-05T14:59:31.517Z</time>
      </trkpt>
      <trkpt lat="49.59962" lon="3.69297">
        <ele>117</ele>
        <time>2015-01-05T14:59:32.521Z</time>
      </trkpt>
      <trkpt lat="49.59953" lon="3.693">
        <ele>117.2</ele>
        <time>2015-01-05T14:59:39.460Z</time>
      </trkpt>
      <trkpt lat="49.59952" lon="3.69301">
        <ele>117.2</ele>
        <time>2015-01-05T14:59:40.461Z</time>
      </trkpt>
      <trkpt lat="49.59943" lon="3.69304">
        <ele>117.5</ele>
        <time>2015-01-05T14:59:47.535Z</time>
      </trkpt>
      <trkpt lat="49.59942" lon="3.69305">
        <ele>117.5</ele>
        <time>2015-01-05T14:59:48.548Z</time>
      </trkpt>
      <trkpt lat="49.59933" lon="3.69307">
        <ele>117.7</ele>
        <time>2015-01-05T14:59:55.459Z</time>
      </trkpt>
      <trkpt lat="49.59932" lon="3.69308">
        <ele>117.8</ele>
        <time>2015-01-05T14:59:56.563Z</time>
      </trkpt>
      <trkpt lat="49.59924" lon="3.69312">
        <ele>117.6</ele>
        <time>2015-01-05T15:00:03.533Z</time>
      </trkpt>
      <trkpt lat="49.59923" lon="3.69313">
        <ele>117.6</ele>
        <time>2015-01-05T15:00:04.535Z</time>
      </trkpt>
      <trkpt lat="49.59915" lon="3.69318">
        <ele>116.8</ele>
        <time>2015-01-05T15:00:11.709Z</time>
      </trkpt>
      <trkpt lat="49.59914" lon="3.69318">
        <ele>116.7</ele>
        <time>2015-01-05T15:00:12.460Z</time>
      </trkpt>
      <trkpt lat="49.59907" lon="3.69324">
        <ele>116.4</ele>
        <time>2015-01-05T15:00:19.491Z</time>
      </trkpt>
      <trkpt lat="49.59906" lon="3.69325">
        <ele>116.3</ele>
        <time>2015-01-05T15:00:20.523Z</time>
      </trkpt>
      <trkpt lat="49.59897" lon="3.69329">
        <ele>116.8</ele>
        <time>2015-01-05T15:00:27.460Z</time>
      </trkpt>
      <trkpt lat="49.59896" lon="3.6933">
        <ele>116.8</ele>
        <time>2015-01-05T15:00:28.462Z</time>
      </trkpt>
      <trkpt lat="49.59889" lon="3.69333">
        <ele>117.3</ele>
        <time>2015-01-05T15:00:34.530Z</time>
      </trkpt>
      <trkpt lat="49.59888" lon="3.69334">
        <ele>117.5</ele>
        <time>2015-01-05T15:00:35.537Z</time>
      </trkpt>
      <trkpt lat="49.59879" lon="3.69335">
        <ele>117.8</ele>
        <time>2015-01-05T15:00:41.571Z</time>
      </trkpt>
      <trkpt lat="49.59878" lon="3.69335">
        <ele>117.9</ele>
        <time>2015-01-05T15:00:42.465Z</time>
      </trkpt>
      <trkpt lat="49.5987" lon="3.69333">
        <ele>117.9</ele>
        <time>2015-01-05T15:00:48.550Z</time>
      </trkpt>
      <trkpt lat="49.59869" lon="3.69333">
        <ele>117.8</ele>
        <time>2015-01-05T15:00:49.462Z</time>
      </trkpt>
      <trkpt lat="49.5986" lon="3.69329">
        <ele>117.8</ele>
        <time>2015-01-05T15:00:56.755Z</time>
      </trkpt>
      <trkpt lat="49.59859" lon="3.69329">
        <ele>117.7</ele>
        <time>2015-01-05T15:00:57.519Z</time>
      </trkpt>
      <trkpt lat="49.59851" lon="3.69325">
        <ele>117.6</ele>
        <time>2015-01-05T15:01:04.543Z</time>
      </trkpt>
      <trkpt lat="49.5985" lon="3.69324">
        <ele>117.5</ele>
        <time>2015-01-05T15:01:05.552Z</time>
      </trkpt>
      <trkpt lat="49.59843" lon="3.69316">
        <ele>116.8</ele>
        <time>2015-01-05T15:01:13.459Z</time>
      </trkpt>
      <trkpt lat="49.59842" lon="3.69315">
        <ele>116.7</ele>
        <time>2015-01-05T15:01:14.523Z</time>
      </trkpt>
      <trkpt lat="49.59837" lon="3.69305">
        <ele>116.5</ele>
        <time>2015-01-05T15:01:22.162Z</time>
      </trkpt>
      <trkpt lat="49.59836" lon="3.69304">
        <ele>116.4</ele>
        <time>2015-01-05T15:01:22.532Z</time>
      </trkpt>
      <trkpt lat="49.59831" lon="3.69293">
        <ele>115</ele>
        <time>2015-01-05T15:01:29.459Z</time>
      </trkpt>
      <trkpt lat="49.5983" lon="3.69292">
        <ele>115.2</ele>
        <time>2015-01-05T15:01:30.460Z</time>
      </trkpt>
      <trkpt lat="49.59825" lon="3.69281">
        <ele>115.5</ele>
        <time>2015-01-05T15:01:37.461Z</time>
      </trkpt>
      <trkpt lat="49.59824" lon="3.6928">
        <ele>115.5</ele>
        <time>2015-01-05T15:01:38.522Z</time>
      </trkpt>
      <trkpt lat="49.59818" lon="3.69271">
        <ele>115.3</ele>
        <time>2015-01-05T15:01:45.537Z</time>
      </trkpt>
      <trkpt lat="49.59817" lon="3.6927">
        <ele>115.2</ele>
        <time>2015-01-05T15:01:46.541Z</time>
      </trkpt>
      <trkpt lat="49.59811" lon="3.69259">
        <ele>115</ele>
        <time>2015-01-05T15:01:53.458Z</time>
      </trkpt>
      <trkpt lat="49.5981" lon="3.69258">
        <ele>115.1</ele>
        <time>2015-01-05T15:01:54.477Z</time>
      </trkpt>
      <trkpt lat="49.59804" lon="3.6925">
        <ele>115.1</ele>
        <time>2015-01-05T15:02:01.760Z</time>
      </trkpt>
      <trkpt lat="49.59803" lon="3.69249">
        <ele>115.1</ele>
        <time>2015-01-05T15:02:02.525Z</time>
      </trkpt>
      <trkpt lat="49.59797" lon="3.6924">
        <ele>114.8</ele>
        <time>2015-01-05T15:02:09.522Z</time>
      </trkpt>
      <trkpt lat="49.59796" lon="3.6924">
        <ele>114.7</ele>
        <time>2015-01-05T15:02:10.537Z</time>
      </trkpt>
      <trkpt lat="49.59789" lon="3.69233">
        <ele>114.2</ele>
        <time>2015-01-05T15:02:16.811Z</time>
      </trkpt>
      <trkpt lat="49.59788" lon="3.69232">
        <ele>114.1</ele>
        <time>2015-01-05T15:02:17.458Z</time>
      </trkpt>
      <trkpt lat="49.59781" lon="3.69225">
        <ele>113.7</ele>
        <time>2015-01-05T15:02:24.455Z</time>
      </trkpt>
      <trkpt lat="49.5978" lon="3.69224">
        <ele>113.5</ele>
        <time>2015-01-05T15:02:25.461Z</time>
      </trkpt>
      <trkpt lat="49.59772" lon="3.69218">
        <ele>114.4</ele>
        <time>2015-01-05T15:02:31.549Z</time>
      </trkpt>
      <trkpt lat="49.59771" lon="3.69217">
        <ele>114.4</ele>
        <time>2015-01-05T15:02:32.564Z</time>
      </trkpt>
      <trkpt lat="49.59764" lon="3.69213">
        <ele>114.5</ele>
        <time>2015-01-05T15:02:38.521Z</time>
      </trkpt>
      <trkpt lat="49.59762" lon="3.69213">
        <ele>114.6</ele>
        <time>2015-01-05T15:02:39.526Z</time>
      </trkpt>
      <trkpt lat="49.59754" lon="3.69209">
        <ele>115.6</ele>
        <time>2015-01-05T15:02:45.522Z</time>
      </trkpt>
      <trkpt lat="49.59753" lon="3.69209">
        <ele>115.7</ele>
        <time>2015-01-05T15:02:46.529Z</time>
      </trkpt>
      <trkpt lat="49.59744" lon="3.69205">
        <ele>115.5</ele>
        <time>2015-01-05T15:02:53.539Z</time>
      </trkpt>
      <trkpt lat="49.59743" lon="3.69204">
        <ele>115.7</ele>
        <time>2015-01-05T15:02:54.548Z</time>
      </trkpt>
      <trkpt lat="49.59734" lon="3.69201">
        <ele>116.2</ele>
        <time>2015-01-05T15:03:01.813Z</time>
      </trkpt>
      <trkpt lat="49.59733" lon="3.692">
        <ele>116.3</ele>
        <time>2015-01-05T15:03:02.522Z</time>
      </trkpt>
      <trkpt lat="49.59724" lon="3.69196">
        <ele>116.5</ele>
        <time>2015-01-05T15:03:09.532Z</time>
      </trkpt>
      <trkpt lat="49.59723" lon="3.69196">
        <ele>116.5</ele>
        <time>2015-01-05T15:03:10.542Z</time>
      </trkpt>
      <trkpt lat="49.59716" lon="3.69191">
        <ele>116.3</ele>
        <time>2015-01-05T15:03:17.028Z</time>
      </trkpt>
      <trkpt lat="49.59714" lon="3.69191">
        <ele>116.3</ele>
        <time>2015-01-05T15:03:17.464Z</time>
      </trkpt>
      <trkpt lat="49.59706" lon="3.69187">
        <ele>116.4</ele>
        <time>2015-01-05T15:03:24.549Z</time>
      </trkpt>
      <trkpt lat="49.59705" lon="3.69186">
        <ele>116.3</ele>
        <time>2015-01-05T15:03:25.459Z</time>
      </trkpt>
      <trkpt lat="49.59697" lon="3.69183">
        <ele>116.9</ele>
        <time>2015-01-05T15:03:31.556Z</time>
      </trkpt>
      <trkpt lat="49.59696" lon="3.69182">
        <ele>116.9</ele>
        <time>2015-01-05T15:03:32.560Z</time>
      </trkpt>
      <trkpt lat="49.59688" lon="3.69179">
        <ele>117.5</ele>
        <time>2015-01-05T15:03:38.524Z</time>
      </trkpt>
      <trkpt lat="49.59687" lon="3.69178">
        <ele>117.4</ele>
        <time>2015-01-05T15:03:39.528Z</time>
      </trkpt>
      <trkpt lat="49.59679" lon="3.69175">
        <ele>118.1</ele>
        <time>2015-01-05T15:03:45.526Z</time>
      </trkpt>
      <trkpt lat="49.59678" lon="3.69174">
        <ele>118.1</ele>
        <time>2015-01-05T15:03:46.536Z</time>
      </trkpt>
      <trkpt lat="49.5967" lon="3.69171">
        <ele>118.5</ele>
        <time>2015-01-05T15:03:52.533Z</time>
      </trkpt>
      <trkpt lat="49.59669" lon="3.69171">
        <ele>118.6</ele>
        <time>2015-01-05T15:03:53.535Z</time>
      </trkpt>
      <trkpt lat="49.5966" lon="3.69166">
        <ele>119</ele>
        <time>2015-01-05T15:04:00.546Z</time>
      </trkpt>
      <trkpt lat="49.59659" lon="3.69166">
        <ele>119.1</ele>
        <time>2015-01-05T15:04:01.460Z</time>
      </trkpt>
      <trkpt lat="49.59651" lon="3.69162">
        <ele>119.2</ele>
        <time>2015-01-05T15:04:08.521Z</time>
      </trkpt>
      <trkpt lat="49.59649" lon="3.69161">
        <ele>119.2</ele>
        <time>2015-01-05T15:04:09.529Z</time>
      </trkpt>
      <trkpt lat="49.59642" lon="3.69158">
        <ele>119.5</ele>
        <time>2015-01-05T15:04:15.460Z</time>
      </trkpt>
      <trkpt lat="49.5964" lon="3.69157">
        <ele>119.5</ele>
        <time>2015-01-05T15:04:16.461Z</time>
      </trkpt>
      <trkpt lat="49.59632" lon="3.69152">
        <ele>119.5</ele>
        <time>2015-01-05T15:04:23.533Z</time>
      </trkpt>
      <trkpt lat="49.59631" lon="3.69152">
        <ele>119.5</ele>
        <time>2015-01-05T15:04:24.541Z</time>
      </trkpt>
      <trkpt lat="49.59623" lon="3.69149">
        <ele>119.7</ele>
        <time>2015-01-05T15:04:30.467Z</time>
      </trkpt>
      <trkpt lat="49.59622" lon="3.69148">
        <ele>119.7</ele>
        <time>2015-01-05T15:04:31.473Z</time>
      </trkpt>
      <trkpt lat="49.59614" lon="3.69145">
        <ele>120.2</ele>
        <time>2015-01-05T15:04:37.461Z</time>
      </trkpt>
      <trkpt lat="49.59613" lon="3.69145">
        <ele>120.3</ele>
        <time>2015-01-05T15:04:38.570Z</time>
      </trkpt>
      <trkpt lat="49.59604" lon="3.69141">
        <ele>120.1</ele>
        <time>2015-01-05T15:04:44.519Z</time>
      </trkpt>
      <trkpt lat="49.59603" lon="3.69141">
        <ele>120.1</ele>
        <time>2015-01-05T15:04:45.526Z</time>
      </trkpt>
      <trkpt lat="49.59595" lon="3.69138">
        <ele>119.9</ele>
        <time>2015-01-05T15:04:51.808Z</time>
      </trkpt>
      <trkpt lat="49.59594" lon="3.69137">
        <ele>119.9</ele>
        <time>2015-01-05T15:04:52.540Z</time>
      </trkpt>
      <trkpt lat="49.59585" lon="3.69135">
        <ele>120.1</ele>
        <time>2015-01-05T15:04:59.546Z</time>
      </trkpt>
      <trkpt lat="49.59584" lon="3.69134">
        <ele>120.1</ele>
        <time>2015-01-05T15:05:00.462Z</time>
      </trkpt>
      <trkpt lat="49.59576" lon="3.69129">
        <ele>119.9</ele>
        <time>2015-01-05T15:05:07.045Z</time>
      </trkpt>
      <trkpt lat="49.59575" lon="3.69128">
        <ele>119.9</ele>
        <time>2015-01-05T15:05:07.461Z</time>
      </trkpt>
      <trkpt lat="49.59567" lon="3.69125">
        <ele>120</ele>
        <time>2015-01-05T15:05:13.502Z</time>
      </trkpt>
      <trkpt lat="49.59566" lon="3.69124">
        <ele>120</ele>
        <time>2015-01-05T15:05:14.511Z</time>
      </trkpt>
      <trkpt lat="49.59558" lon="3.69119">
        <ele>119.9</ele>
        <time>2015-01-05T15:05:23.545Z</time>
      </trkpt>
      <trkpt lat="49.59556" lon="3.69119">
        <ele>119.8</ele>
        <time>2015-01-05T15:05:24.551Z</time>
      </trkpt>
      <trkpt lat="49.59548" lon="3.69116">
        <ele>119.9</ele>
        <time>2015-01-05T15:05:30.493Z</time>
      </trkpt>
      <trkpt lat="49.59547" lon="3.69115">
        <ele>120</ele>
        <time>2015-01-05T15:05:31.499Z</time>
      </trkpt>
      <trkpt lat="49.59539" lon="3.69111">
        <ele>119.9</ele>
        <time>2015-01-05T15:05:37.471Z</time>
      </trkpt>
      <trkpt lat="49.59537" lon="3.69111">
        <ele>119.9</ele>
        <time>2015-01-05T15:05:38.520Z</time>
      </trkpt>
      <trkpt lat="49.59529" lon="3.69107">
        <ele>119.4</ele>
        <time>2015-01-05T15:05:45.462Z</time>
      </trkpt>
      <trkpt lat="49.59527" lon="3.69106">
        <ele>119.3</ele>
        <time>2015-01-05T15:05:46.464Z</time>
      </trkpt>
      <trkpt lat="49.5952" lon="3.69105">
        <ele>119.4</ele>
        <time>2015-01-05T15:05:52.536Z</time>
      </trkpt>
      <trkpt lat="49.59518" lon="3.69104">
        <ele>119.4</ele>
        <time>2015-01-05T15:05:53.542Z</time>
      </trkpt>
      <trkpt lat="49.5951" lon="3.69101">
        <ele>119.7</ele>
        <time>2015-01-05T15:06:00.548Z</time>
      </trkpt>
      <trkpt lat="49.59509" lon="3.691">
        <ele>119.8</ele>
        <time>2015-01-05T15:06:01.463Z</time>
      </trkpt>
      <trkpt lat="49.59501" lon="3.69098">
        <ele>119.8</ele>
        <time>2015-01-05T15:06:07.474Z</time>
      </trkpt>
      <trkpt lat="49.595" lon="3.69097">
        <ele>119.8</ele>
        <time>2015-01-05T15:06:08.524Z</time>
      </trkpt>
      <trkpt lat="49.59491" lon="3.69093">
        <ele>119.7</ele>
        <time>2015-01-05T15:06:14.524Z</time>
      </trkpt>
      <trkpt lat="49.5949" lon="3.69093">
        <ele>119.8</ele>
        <time>2015-01-05T15:06:15.528Z</time>
      </trkpt>
      <trkpt lat="49.59482" lon="3.69089">
        <ele>119.7</ele>
        <time>2015-01-05T15:06:21.983Z</time>
      </trkpt>
      <trkpt lat="49.59481" lon="3.69089">
        <ele>119.7</ele>
        <time>2015-01-05T15:06:22.528Z</time>
      </trkpt>
      <trkpt lat="49.59473" lon="3.69084">
        <ele>119.6</ele>
        <time>2015-01-05T15:06:29.542Z</time>
      </trkpt>
      <trkpt lat="49.59472" lon="3.69083">
        <ele>119.5</ele>
        <time>2015-01-05T15:06:30.461Z</time>
      </trkpt>
      <trkpt lat="49.59464" lon="3.69077">
        <ele>119.6</ele>
        <time>2015-01-05T15:06:37.550Z</time>
      </trkpt>
      <trkpt lat="49.59463" lon="3.69076">
        <ele>119.6</ele>
        <time>2015-01-05T15:06:38.558Z</time>
      </trkpt>
      <trkpt lat="49.59454" lon="3.69072">
        <ele>119.3</ele>
        <time>2015-01-05T15:06:45.528Z</time>
      </trkpt>
      <trkpt lat="49.59453" lon="3.69072">
        <ele>119.5</ele>
        <time>2015-01-05T15:06:46.538Z</time>
      </trkpt>
      <trkpt lat="49.59446" lon="3.69067">
        <ele>119.6</ele>
        <time>2015-01-05T15:06:52.460Z</time>
      </trkpt>
      <trkpt lat="49.59444" lon="3.69066">
        <ele>119.6</ele>
        <time>2015-01-05T15:06:53.477Z</time>
      </trkpt>
      <trkpt lat="49.59436" lon="3.69063">
        <ele>119.9</ele>
        <time>2015-01-05T15:06:59.550Z</time>
      </trkpt>
      <trkpt lat="49.59435" lon="3.69062">
        <ele>119.9</ele>
        <time>2015-01-05T15:07:00.459Z</time>
      </trkpt>
      <trkpt lat="49.59427" lon="3.69058">
        <ele>119.9</ele>
        <time>2015-01-05T15:07:06.977Z</time>
      </trkpt>
      <trkpt lat="49.59426" lon="3.69058">
        <ele>119.9</ele>
        <time>2015-01-05T15:07:07.550Z</time>
      </trkpt>
      <trkpt lat="49.59418" lon="3.69054">
        <ele>119.8</ele>
        <time>2015-01-05T15:07:13.478Z</time>
      </trkpt>
      <trkpt lat="49.59417" lon="3.69053">
        <ele>120</ele>
        <time>2015-01-05T15:07:14.512Z</time>
      </trkpt>
      <trkpt lat="49.59409" lon="3.6905">
        <ele>120.5</ele>
        <time>2015-01-05T15:07:20.522Z</time>
      </trkpt>
      <trkpt lat="49.59408" lon="3.6905">
        <ele>120.5</ele>
        <time>2015-01-05T15:07:21.525Z</time>
      </trkpt>
      <trkpt lat="49.594" lon="3.69046">
        <ele>120.5</ele>
        <time>2015-01-05T15:07:27.530Z</time>
      </trkpt>
      <trkpt lat="49.59399" lon="3.69046">
        <ele>120.5</ele>
        <time>2015-01-05T15:07:28.533Z</time>
      </trkpt>
      <trkpt lat="49.59391" lon="3.69042">
        <ele>120.5</ele>
        <time>2015-01-05T15:07:34.461Z</time>
      </trkpt>
      <trkpt lat="49.5939" lon="3.69042">
        <ele>120.5</ele>
        <time>2015-01-05T15:07:35.473Z</time>
      </trkpt>
      <trkpt lat="49.59382" lon="3.69037">
        <ele>120</ele>
        <time>2015-01-05T15:07:42.540Z</time>
      </trkpt>
      <trkpt lat="49.5938" lon="3.69037">
        <ele>119.9</ele>
        <time>2015-01-05T15:07:43.464Z</time>
      </trkpt>
      <trkpt lat="49.59373" lon="3.69033">
        <ele>119.5</ele>
        <time>2015-01-05T15:07:49.480Z</time>
      </trkpt>
      <trkpt lat="49.59372" lon="3.69032">
        <ele>119.4</ele>
        <time>2015-01-05T15:07:50.519Z</time>
      </trkpt>
      <trkpt lat="49.59364" lon="3.69028">
        <ele>119.5</ele>
        <time>2015-01-05T15:07:57.525Z</time>
      </trkpt>
      <trkpt lat="49.59363" lon="3.69027">
        <ele>119.6</ele>
        <time>2015-01-05T15:07:58.529Z</time>
      </trkpt>
      <trkpt lat="49.59354" lon="3.69022">
        <ele>120.4</ele>
        <time>2015-01-05T15:08:05.467Z</time>
      </trkpt>
      <trkpt lat="49.59353" lon="3.69022">
        <ele>120.6</ele>
        <time>2015-01-05T15:08:06.474Z</time>
      </trkpt>
      <trkpt lat="49.59345" lon="3.69018">
        <ele>120.6</ele>
        <time>2015-01-05T15:08:12.539Z</time>
      </trkpt>
      <trkpt lat="49.59344" lon="3.69017">
        <ele>120.5</ele>
        <time>2015-01-05T15:08:13.546Z</time>
      </trkpt>
      <trkpt lat="49.59336" lon="3.69013">
        <ele>120.9</ele>
        <time>2015-01-05T15:08:20.525Z</time>
      </trkpt>
      <trkpt lat="49.59334" lon="3.69012">
        <ele>120.7</ele>
        <time>2015-01-05T15:08:21.533Z</time>
      </trkpt>
      <trkpt lat="49.59326" lon="3.69007">
        <ele>120.5</ele>
        <time>2015-01-05T15:08:28.573Z</time>
      </trkpt>
      <trkpt lat="49.59325" lon="3.69007">
        <ele>120.6</ele>
        <time>2015-01-05T15:08:29.461Z</time>
      </trkpt>
      <trkpt lat="49.59317" lon="3.69002">
        <ele>120.4</ele>
        <time>2015-01-05T15:08:36.565Z</time>
      </trkpt>
      <trkpt lat="49.59316" lon="3.69002">
        <ele>120.3</ele>
        <time>2015-01-05T15:08:37.454Z</time>
      </trkpt>
      <trkpt lat="49.59308" lon="3.68998">
        <ele>120</ele>
        <time>2015-01-05T15:08:44.519Z</time>
      </trkpt>
      <trkpt lat="49.59307" lon="3.68998">
        <ele>119.8</ele>
        <time>2015-01-05T15:08:45.524Z</time>
      </trkpt>
      <trkpt lat="49.59299" lon="3.68994">
        <ele>119.3</ele>
        <time>2015-01-05T15:08:52.552Z</time>
      </trkpt>
      <trkpt lat="49.59298" lon="3.68993">
        <ele>119.3</ele>
        <time>2015-01-05T15:08:53.461Z</time>
      </trkpt>
      <trkpt lat="49.5929" lon="3.68988">
        <ele>119.2</ele>
        <time>2015-01-05T15:09:00.463Z</time>
      </trkpt>
      <trkpt lat="49.59289" lon="3.68987">
        <ele>119.1</ele>
        <time>2015-01-05T15:09:01.465Z</time>
      </trkpt>
      <trkpt lat="49.5928" lon="3.68984">
        <ele>118.2</ele>
        <time>2015-01-05T15:09:08.524Z</time>
      </trkpt>
      <trkpt lat="49.59279" lon="3.68983">
        <ele>118.1</ele>
        <time>2015-01-05T15:09:09.523Z</time>
      </trkpt>
      <trkpt lat="49.59271" lon="3.6898">
        <ele>118</ele>
        <time>2015-01-05T15:09:15.462Z</time>
      </trkpt>
      <trkpt lat="49.5927" lon="3.6898">
        <ele>118.1</ele>
        <time>2015-01-05T15:09:16.476Z</time>
      </trkpt>
      <trkpt lat="49.59263" lon="3.68976">
        <ele>118.2</ele>
        <time>2015-01-05T15:09:22.537Z</time>
      </trkpt>
      <trkpt lat="49.59261" lon="3.68976">
        <ele>118.2</ele>
        <time>2015-01-05T15:09:23.543Z</time>
      </trkpt>
      <trkpt lat="49.59254" lon="3.68973">
        <ele>118</ele>
        <time>2015-01-05T15:09:29.543Z</time>
      </trkpt>
      <trkpt lat="49.59252" lon="3.68972">
        <ele>118.2</ele>
        <time>2015-01-05T15:09:30.459Z</time>
      </trkpt>
      <trkpt lat="49.59244" lon="3.68968">
        <ele>118.1</ele>
        <time>2015-01-05T15:09:37.462Z</time>
      </trkpt>
      <trkpt lat="49.59243" lon="3.68967">
        <ele>118.1</ele>
        <time>2015-01-05T15:09:38.522Z</time>
      </trkpt>
      <trkpt lat="49.59234" lon="3.68963">
        <ele>117.7</ele>
        <time>2015-01-05T15:09:45.463Z</time>
      </trkpt>
      <trkpt lat="49.59233" lon="3.68963">
        <ele>117.7</ele>
        <time>2015-01-05T15:09:46.462Z</time>
      </trkpt>
      <trkpt lat="49.59225" lon="3.68958">
        <ele>117.6</ele>
        <time>2015-01-05T15:09:53.535Z</time>
      </trkpt>
      <trkpt lat="49.59224" lon="3.68958">
        <ele>117.6</ele>
        <time>2015-01-05T15:09:54.543Z</time>
      </trkpt>
      <trkpt lat="49.59215" lon="3.68954">
        <ele>117.4</ele>
        <time>2015-01-05T15:10:01.675Z</time>
      </trkpt>
      <trkpt lat="49.59214" lon="3.68954">
        <ele>117.4</ele>
        <time>2015-01-05T15:10:02.521Z</time>
      </trkpt>
      <trkpt lat="49.59206" lon="3.68949">
        <ele>117.8</ele>
        <time>2015-01-05T15:10:09.524Z</time>
      </trkpt>
      <trkpt lat="49.59205" lon="3.68948">
        <ele>117.7</ele>
        <time>2015-01-05T15:10:10.530Z</time>
      </trkpt>
      <trkpt lat="49.59197" lon="3.68945">
        <ele>117.1</ele>
        <time>2015-01-05T15:10:17.018Z</time>
      </trkpt>
      <trkpt lat="49.59196" lon="3.68944">
        <ele>117</ele>
        <time>2015-01-05T15:10:17.534Z</time>
      </trkpt>
      <trkpt lat="49.59188" lon="3.6894">
        <ele>116.7</ele>
        <time>2015-01-05T15:10:24.484Z</time>
      </trkpt>
      <trkpt lat="49.59187" lon="3.68939">
        <ele>116.6</ele>
        <time>2015-01-05T15:10:25.491Z</time>
      </trkpt>
      <trkpt lat="49.59179" lon="3.68935">
        <ele>116.3</ele>
        <time>2015-01-05T15:10:31.565Z</time>
      </trkpt>
      <trkpt lat="49.59178" lon="3.68935">
        <ele>116.1</ele>
        <time>2015-01-05T15:10:32.520Z</time>
      </trkpt>
      <trkpt lat="49.5917" lon="3.6893">
        <ele>115.8</ele>
        <time>2015-01-05T15:10:39.460Z</time>
      </trkpt>
      <trkpt lat="49.59169" lon="3.68929">
        <ele>115.8</ele>
        <time>2015-01-05T15:10:40.467Z</time>
      </trkpt>
      <trkpt lat="49.5916" lon="3.68926">
        <ele>115</ele>
        <time>2015-01-05T15:10:47.542Z</time>
      </trkpt>
      <trkpt lat="49.59159" lon="3.68925">
        <ele>115</ele>
        <time>2015-01-05T15:10:48.459Z</time>
      </trkpt>
      <trkpt lat="49.59151" lon="3.68922">
        <ele>114.6</ele>
        <time>2015-01-05T15:10:55.550Z</time>
      </trkpt>
      <trkpt lat="49.5915" lon="3.68921">
        <ele>114.6</ele>
        <time>2015-01-05T15:10:56.558Z</time>
      </trkpt>
      <trkpt lat="49.59141" lon="3.68918">
        <ele>114.5</ele>
        <time>2015-01-05T15:11:03.523Z</time>
      </trkpt>
      <trkpt lat="49.5914" lon="3.68917">
        <ele>114.5</ele>
        <time>2015-01-05T15:11:04.528Z</time>
      </trkpt>
      <trkpt lat="49.59132" lon="3.68913">
        <ele>114.7</ele>
        <time>2015-01-05T15:11:12.060Z</time>
      </trkpt>
      <trkpt lat="49.59131" lon="3.68913">
        <ele>114.6</ele>
        <time>2015-01-05T15:11:12.476Z</time>
      </trkpt>
      <trkpt lat="49.59123" lon="3.68908">
        <ele>114.9</ele>
        <time>2015-01-05T15:11:19.462Z</time>
      </trkpt>
      <trkpt lat="49.59122" lon="3.68908">
        <ele>114.8</ele>
        <time>2015-01-05T15:11:20.565Z</time>
      </trkpt>
      <trkpt lat="49.59113" lon="3.68905">
        <ele>114.6</ele>
        <time>2015-01-05T15:11:27.525Z</time>
      </trkpt>
      <trkpt lat="49.59112" lon="3.68904">
        <ele>114.5</ele>
        <time>2015-01-05T15:11:28.530Z</time>
      </trkpt>
      <trkpt lat="49.59104" lon="3.68901">
        <ele>114.6</ele>
        <time>2015-01-05T15:11:35.472Z</time>
      </trkpt>
      <trkpt lat="49.59103" lon="3.68901">
        <ele>114.6</ele>
        <time>2015-01-05T15:11:36.479Z</time>
      </trkpt>
      <trkpt lat="49.59094" lon="3.68898">
        <ele>114.7</ele>
        <time>2015-01-05T15:11:43.460Z</time>
      </trkpt>
      <trkpt lat="49.59093" lon="3.68898">
        <ele>114.7</ele>
        <time>2015-01-05T15:11:44.522Z</time>
      </trkpt>
      <trkpt lat="49.59085" lon="3.68894">
        <ele>115</ele>
        <time>2015-01-05T15:11:51.605Z</time>
      </trkpt>
      <trkpt lat="49.59084" lon="3.68893">
        <ele>115</ele>
        <time>2015-01-05T15:11:52.462Z</time>
      </trkpt>
      <trkpt lat="49.59076" lon="3.68891">
        <ele>114.8</ele>
        <time>2015-01-05T15:11:59.544Z</time>
      </trkpt>
      <trkpt lat="49.59075" lon="3.6889">
        <ele>114.8</ele>
        <time>2015-01-05T15:12:00.463Z</time>
      </trkpt>
      <trkpt lat="49.59067" lon="3.68888">
        <ele>115.2</ele>
        <time>2015-01-05T15:12:07.457Z</time>
      </trkpt>
      <trkpt lat="49.59066" lon="3.68887">
        <ele>115.2</ele>
        <time>2015-01-05T15:12:08.571Z</time>
      </trkpt>
      <trkpt lat="49.59057" lon="3.68885">
        <ele>115.4</ele>
        <time>2015-01-05T15:12:15.522Z</time>
      </trkpt>
      <trkpt lat="49.59056" lon="3.68885">
        <ele>115.3</ele>
        <time>2015-01-05T15:12:16.529Z</time>
      </trkpt>
      <trkpt lat="49.59047" lon="3.68883">
        <ele>115.6</ele>
        <time>2015-01-05T15:12:24.481Z</time>
      </trkpt>
      <trkpt lat="49.59046" lon="3.68883">
        <ele>115.5</ele>
        <time>2015-01-05T15:12:25.488Z</time>
      </trkpt>
      <trkpt lat="49.59037" lon="3.68881">
        <ele>114.8</ele>
        <time>2015-01-05T15:12:33.459Z</time>
      </trkpt>
      <trkpt lat="49.59036" lon="3.68881">
        <ele>114.7</ele>
        <time>2015-01-05T15:12:34.479Z</time>
      </trkpt>
      <trkpt lat="49.59028" lon="3.68876">
        <ele>114.4</ele>
        <time>2015-01-05T15:12:41.577Z</time>
      </trkpt>
      <trkpt lat="49.59027" lon="3.68875">
        <ele>114.5</ele>
        <time>2015-01-05T15:12:42.546Z</time>
      </trkpt>
      <trkpt lat="49.59019" lon="3.68872">
        <ele>114.5</ele>
        <time>2015-01-05T15:12:49.490Z</time>
      </trkpt>
      <trkpt lat="49.59018" lon="3.68871">
        <ele>114.3</ele>
        <time>2015-01-05T15:12:50.510Z</time>
      </trkpt>
      <trkpt lat="49.59009" lon="3.68868">
        <ele>114.4</ele>
        <time>2015-01-05T15:12:57.524Z</time>
      </trkpt>
      <trkpt lat="49.59008" lon="3.68868">
        <ele>114.5</ele>
        <time>2015-01-05T15:12:58.530Z</time>
      </trkpt>
      <trkpt lat="49.59" lon="3.68865">
        <ele>114.6</ele>
        <time>2015-01-05T15:13:05.471Z</time>
      </trkpt>
      <trkpt lat="49.58999" lon="3.68864">
        <ele>114.6</ele>
        <time>2015-01-05T15:13:06.482Z</time>
      </trkpt>
      <trkpt lat="49.5899" lon="3.68861">
        <ele>114.5</ele>
        <time>2015-01-05T15:13:13.460Z</time>
      </trkpt>
      <trkpt lat="49.58989" lon="3.6886">
        <ele>114.5</ele>
        <time>2015-01-05T15:13:14.523Z</time>
      </trkpt>
      <trkpt lat="49.58981" lon="3.68858">
        <ele>114</ele>
        <time>2015-01-05T15:13:21.771Z</time>
      </trkpt>
      <trkpt lat="49.5898" lon="3.68857">
        <ele>114</ele>
        <time>2015-01-05T15:13:22.461Z</time>
      </trkpt>
      <trkpt lat="49.58971" lon="3.68855">
        <ele>114.2</ele>
        <time>2015-01-05T15:13:29.551Z</time>
      </trkpt>
      <trkpt lat="49.5897" lon="3.68854">
        <ele>114.4</ele>
        <time>2015-01-05T15:13:30.463Z</time>
      </trkpt>
      <trkpt lat="49.58961" lon="3.68852">
        <ele>114.1</ele>
        <time>2015-01-05T15:13:38.521Z</time>
      </trkpt>
      <trkpt lat="49.5896" lon="3.68852">
        <ele>114.2</ele>
        <time>2015-01-05T15:13:39.523Z</time>
      </trkpt>
      <trkpt lat="49.58951" lon="3.68849">
        <ele>114.6</ele>
        <time>2015-01-05T15:13:47.543Z</time>
      </trkpt>
      <trkpt lat="49.5895" lon="3.68848">
        <ele>114.7</ele>
        <time>2015-01-05T15:13:48.545Z</time>
      </trkpt>
      <trkpt lat="49.58942" lon="3.68846">
        <ele>114.4</ele>
        <time>2015-01-05T15:13:55.502Z</time>
      </trkpt>
      <trkpt lat="49.58941" lon="3.68845">
        <ele>114.4</ele>
        <time>2015-01-05T15:13:56.523Z</time>
      </trkpt>
      <trkpt lat="49.58932" lon="3.68843">
        <ele>114.8</ele>
        <time>2015-01-05T15:14:03.522Z</time>
      </trkpt>
      <trkpt lat="49.58931" lon="3.68842">
        <ele>114.9</ele>
        <time>2015-01-05T15:14:04.531Z</time>
      </trkpt>
      <trkpt lat="49.58923" lon="3.68841">
        <ele>115.5</ele>
        <time>2015-01-05T15:14:10.464Z</time>
      </trkpt>
      <trkpt lat="49.58922" lon="3.68841">
        <ele>115.6</ele>
        <time>2015-01-05T15:14:11.475Z</time>
      </trkpt>
      <trkpt lat="49.58913" lon="3.68839">
        <ele>115.3</ele>
        <time>2015-01-05T15:14:18.449Z</time>
      </trkpt>
      <trkpt lat="49.58912" lon="3.68839">
        <ele>115.2</ele>
        <time>2015-01-05T15:14:19.462Z</time>
      </trkpt>
      <trkpt lat="49.58904" lon="3.68837">
        <ele>115</ele>
        <time>2015-01-05T15:14:26.528Z</time>
      </trkpt>
      <trkpt lat="49.58903" lon="3.68837">
        <ele>115.1</ele>
        <time>2015-01-05T15:14:27.542Z</time>
      </trkpt>
      <trkpt lat="49.58894" lon="3.68835">
        <ele>115.8</ele>
        <time>2015-01-05T15:14:34.537Z</time>
      </trkpt>
      <trkpt lat="49.58893" lon="3.68835">
        <ele>115.7</ele>
        <time>2015-01-05T15:14:35.546Z</time>
      </trkpt>
      <trkpt lat="49.58885" lon="3.68832">
        <ele>115.7</ele>
        <time>2015-01-05T15:14:42.555Z</time>
      </trkpt>
      <trkpt lat="49.58883" lon="3.68832">
        <ele>115.7</ele>
        <time>2015-01-05T15:14:43.463Z</time>
      </trkpt>
      <trkpt lat="49.58875" lon="3.68831">
        <ele>115.5</ele>
        <time>2015-01-05T15:14:50.520Z</time>
      </trkpt>
      <trkpt lat="49.58873" lon="3.6883">
        <ele>115.6</ele>
        <time>2015-01-05T15:14:51.521Z</time>
      </trkpt>
      <trkpt lat="49.58865" lon="3.68828">
        <ele>115.6</ele>
        <time>2015-01-05T15:14:58.469Z</time>
      </trkpt>
      <trkpt lat="49.58864" lon="3.68827">
        <ele>115.7</ele>
        <time>2015-01-05T15:14:59.481Z</time>
      </trkpt>
      <trkpt lat="49.58856" lon="3.68824">
        <ele>115.7</ele>
        <time>2015-01-05T15:15:06.682Z</time>
      </trkpt>
      <trkpt lat="49.58854" lon="3.68823">
        <ele>115.8</ele>
        <time>2015-01-05T15:15:07.567Z</time>
      </trkpt>
      <trkpt lat="49.58846" lon="3.68821">
        <ele>116.1</ele>
        <time>2015-01-05T15:15:14.523Z</time>
      </trkpt>
      <trkpt lat="49.58845" lon="3.68821">
        <ele>116.1</ele>
        <time>2015-01-05T15:15:15.525Z</time>
      </trkpt>
      <trkpt lat="49.58837" lon="3.68818">
        <ele>116.5</ele>
        <time>2015-01-05T15:15:22.466Z</time>
      </trkpt>
      <trkpt lat="49.58836" lon="3.68817">
        <ele>116.6</ele>
        <time>2015-01-05T15:15:23.473Z</time>
      </trkpt>
      <trkpt lat="49.58828" lon="3.68814">
        <ele>116.6</ele>
        <time>2015-01-05T15:15:31.518Z</time>
      </trkpt>
      <trkpt lat="49.58826" lon="3.68814">
        <ele>116.5</ele>
        <time>2015-01-05T15:15:31.550Z</time>
      </trkpt>
      <trkpt lat="49.58819" lon="3.68812">
        <ele>116.2</ele>
        <time>2015-01-05T15:15:38.520Z</time>
      </trkpt>
      <trkpt lat="49.58817" lon="3.68811">
        <ele>116.2</ele>
        <time>2015-01-05T15:15:39.524Z</time>
      </trkpt>
      <trkpt lat="49.58809" lon="3.68808">
        <ele>116</ele>
        <time>2015-01-05T15:15:46.614Z</time>
      </trkpt>
      <trkpt lat="49.58808" lon="3.68808">
        <ele>116</ele>
        <time>2015-01-05T15:15:47.470Z</time>
      </trkpt>
      <trkpt lat="49.588" lon="3.68805">
        <ele>116.6</ele>
        <time>2015-01-05T15:15:54.549Z</time>
      </trkpt>
      <trkpt lat="49.58799" lon="3.68805">
        <ele>116.6</ele>
        <time>2015-01-05T15:15:55.459Z</time>
      </trkpt>
      <trkpt lat="49.58791" lon="3.68802">
        <ele>116.7</ele>
        <time>2015-01-05T15:16:02.547Z</time>
      </trkpt>
      <trkpt lat="49.5879" lon="3.68802">
        <ele>116.7</ele>
        <time>2015-01-05T15:16:03.460Z</time>
      </trkpt>
      <trkpt lat="49.58782" lon="3.688">
        <ele>116.2</ele>
        <time>2015-01-05T15:16:10.535Z</time>
      </trkpt>
      <trkpt lat="49.58781" lon="3.68799">
        <ele>116.1</ele>
        <time>2015-01-05T15:16:11.539Z</time>
      </trkpt>
      <trkpt lat="49.58773" lon="3.68798">
        <ele>116.3</ele>
        <time>2015-01-05T15:16:18.545Z</time>
      </trkpt>
      <trkpt lat="49.58772" lon="3.68798">
        <ele>116.4</ele>
        <time>2015-01-05T15:16:19.550Z</time>
      </trkpt>
      <trkpt lat="49.58763" lon="3.68798">
        <ele>117.6</ele>
        <time>2015-01-05T15:16:26.522Z</time>
      </trkpt>
      <trkpt lat="49.58762" lon="3.68798">
        <ele>117.6</ele>
        <time>2015-01-05T15:16:27.529Z</time>
      </trkpt>
      <trkpt lat="49.58754" lon="3.68798">
        <ele>117.4</ele>
        <time>2015-01-05T15:16:33.529Z</time>
      </trkpt>
      <trkpt lat="49.58753" lon="3.68798">
        <ele>117.4</ele>
        <time>2015-01-05T15:16:34.541Z</time>
      </trkpt>
      <trkpt lat="49.58745" lon="3.68794">
        <ele>117.8</ele>
        <time>2015-01-05T15:16:41.569Z</time>
      </trkpt>
      <trkpt lat="49.58744" lon="3.68794">
        <ele>117.8</ele>
        <time>2015-01-05T15:16:42.461Z</time>
      </trkpt>
      <trkpt lat="49.58735" lon="3.68793">
        <ele>117.6</ele>
        <time>2015-01-05T15:16:49.460Z</time>
      </trkpt>
      <trkpt lat="49.58734" lon="3.68793">
        <ele>117.6</ele>
        <time>2015-01-05T15:16:50.525Z</time>
      </trkpt>
      <trkpt lat="49.58726" lon="3.68791">
        <ele>117.3</ele>
        <time>2015-01-05T15:16:57.463Z</time>
      </trkpt>
      <trkpt lat="49.58725" lon="3.68791">
        <ele>117.3</ele>
        <time>2015-01-05T15:16:58.462Z</time>
      </trkpt>
      <trkpt lat="49.58717" lon="3.6879">
        <ele>117.5</ele>
        <time>2015-01-05T15:17:05.537Z</time>
      </trkpt>
      <trkpt lat="49.58715" lon="3.6879">
        <ele>117.5</ele>
        <time>2015-01-05T15:17:06.548Z</time>
      </trkpt>
      <trkpt lat="49.58707" lon="3.68789">
        <ele>117.4</ele>
        <time>2015-01-05T15:17:13.464Z</time>
      </trkpt>
      <trkpt lat="49.58705" lon="3.68789">
        <ele>117.5</ele>
        <time>2015-01-05T15:17:14.524Z</time>
      </trkpt>
      <trkpt lat="49.58697" lon="3.68787">
        <ele>118.1</ele>
        <time>2015-01-05T15:17:22.130Z</time>
      </trkpt>
      <trkpt lat="49.58696" lon="3.68787">
        <ele>118</ele>
        <time>2015-01-05T15:17:22.456Z</time>
      </trkpt>
      <trkpt lat="49.58687" lon="3.68786">
        <ele>117.8</ele>
        <time>2015-01-05T15:17:29.461Z</time>
      </trkpt>
      <trkpt lat="49.58686" lon="3.68786">
        <ele>117.9</ele>
        <time>2015-01-05T15:17:30.462Z</time>
      </trkpt>
      <trkpt lat="49.58677" lon="3.68785">
        <ele>118.1</ele>
        <time>2015-01-05T15:17:37.462Z</time>
      </trkpt>
      <trkpt lat="49.58676" lon="3.68784">
        <ele>118.1</ele>
        <time>2015-01-05T15:17:38.524Z</time>
      </trkpt>
      <trkpt lat="49.58668" lon="3.68784">
        <ele>117.9</ele>
        <time>2015-01-05T15:17:44.559Z</time>
      </trkpt>
      <trkpt lat="49.58667" lon="3.68784">
        <ele>117.9</ele>
        <time>2015-01-05T15:17:45.459Z</time>
      </trkpt>
      <trkpt lat="49.58658" lon="3.68782">
        <ele>118</ele>
        <time>2015-01-05T15:17:52.464Z</time>
      </trkpt>
      <trkpt lat="49.58657" lon="3.68782">
        <ele>118.1</ele>
        <time>2015-01-05T15:17:53.462Z</time>
      </trkpt>
      <trkpt lat="49.58648" lon="3.6878">
        <ele>118</ele>
        <time>2015-01-05T15:18:00.544Z</time>
      </trkpt>
      <trkpt lat="49.58647" lon="3.68779">
        <ele>118</ele>
        <time>2015-01-05T15:18:01.463Z</time>
      </trkpt>
      <trkpt lat="49.58639" lon="3.68777">
        <ele>118.1</ele>
        <time>2015-01-05T15:18:08.527Z</time>
      </trkpt>
      <trkpt lat="49.58637" lon="3.68777">
        <ele>118.1</ele>
        <time>2015-01-05T15:18:09.523Z</time>
      </trkpt>
      <trkpt lat="49.5863" lon="3.68772">
        <ele>118.2</ele>
        <time>2015-01-05T15:18:16.974Z</time>
      </trkpt>
      <trkpt lat="49.58628" lon="3.68772">
        <ele>118.1</ele>
        <time>2015-01-05T15:18:17.534Z</time>
      </trkpt>
      <trkpt lat="49.58621" lon="3.68766">
        <ele>117.9</ele>
        <time>2015-01-05T15:18:24.470Z</time>
      </trkpt>
      <trkpt lat="49.5862" lon="3.68765">
        <ele>117.9</ele>
        <time>2015-01-05T15:18:25.478Z</time>
      </trkpt>
      <trkpt lat="49.58612" lon="3.6876">
        <ele>117.7</ele>
        <time>2015-01-05T15:18:32.594Z</time>
      </trkpt>
      <trkpt lat="49.58611" lon="3.68759">
        <ele>117.8</ele>
        <time>2015-01-05T15:18:33.461Z</time>
      </trkpt>
      <trkpt lat="49.58604" lon="3.68752">
        <ele>118.1</ele>
        <time>2015-01-05T15:18:41.684Z</time>
      </trkpt>
      <trkpt lat="49.58603" lon="3.68752">
        <ele>117.9</ele>
        <time>2015-01-05T15:18:42.462Z</time>
      </trkpt>
      <trkpt lat="49.58595" lon="3.68746">
        <ele>117.7</ele>
        <time>2015-01-05T15:18:50.524Z</time>
      </trkpt>
      <trkpt lat="49.58594" lon="3.68745">
        <ele>117.7</ele>
        <time>2015-01-05T15:18:51.526Z</time>
      </trkpt>
      <trkpt lat="49.58585" lon="3.6874">
        <ele>117.7</ele>
        <time>2015-01-05T15:18:58.469Z</time>
      </trkpt>
      <trkpt lat="49.58584" lon="3.68739">
        <ele>117.6</ele>
        <time>2015-01-05T15:18:59.476Z</time>
      </trkpt>
      <trkpt lat="49.58577" lon="3.68734">
        <ele>117.1</ele>
        <time>2015-01-05T15:19:07.036Z</time>
      </trkpt>
      <trkpt lat="49.58576" lon="3.68734">
        <ele>117</ele>
        <time>2015-01-05T15:19:07.467Z</time>
      </trkpt>
      <trkpt lat="49.58569" lon="3.68729">
        <ele>117.6</ele>
        <time>2015-01-05T15:19:13.548Z</time>
      </trkpt>
      <trkpt lat="49.58568" lon="3.68728">
        <ele>117.7</ele>
        <time>2015-01-05T15:19:14.556Z</time>
      </trkpt>
      <trkpt lat="49.5856" lon="3.68723">
        <ele>118.1</ele>
        <time>2015-01-05T15:19:20.524Z</time>
      </trkpt>
      <trkpt lat="49.58559" lon="3.68722">
        <ele>118.2</ele>
        <time>2015-01-05T15:19:21.520Z</time>
      </trkpt>
      <trkpt lat="49.58552" lon="3.68717">
        <ele>118.5</ele>
        <time>2015-01-05T15:19:27.463Z</time>
      </trkpt>
      <trkpt lat="49.5855" lon="3.68717">
        <ele>118.5</ele>
        <time>2015-01-05T15:19:28.474Z</time>
      </trkpt>
      <trkpt lat="49.58542" lon="3.68714">
        <ele>118.1</ele>
        <time>2015-01-05T15:19:35.538Z</time>
      </trkpt>
      <trkpt lat="49.58541" lon="3.68714">
        <ele>117.9</ele>
        <time>2015-01-05T15:19:36.557Z</time>
      </trkpt>
      <trkpt lat="49.58532" lon="3.68714">
        <ele>119.3</ele>
        <time>2015-01-05T15:19:42.551Z</time>
      </trkpt>
      <trkpt lat="49.58531" lon="3.68714">
        <ele>119.3</ele>
        <time>2015-01-05T15:19:43.555Z</time>
      </trkpt>
      <trkpt lat="49.58523" lon="3.68716">
        <ele>119.2</ele>
        <time>2015-01-05T15:19:51.680Z</time>
      </trkpt>
      <trkpt lat="49.58522" lon="3.68716">
        <ele>119.3</ele>
        <time>2015-01-05T15:19:52.544Z</time>
      </trkpt>
      <trkpt lat="49.58514" lon="3.68721">
        <ele>119.3</ele>
        <time>2015-01-05T15:20:02.538Z</time>
      </trkpt>
      <trkpt lat="49.58513" lon="3.68722">
        <ele>119.4</ele>
        <time>2015-01-05T15:20:03.536Z</time>
      </trkpt>
      <trkpt lat="49.58505" lon="3.68728">
        <ele>118.8</ele>
        <time>2015-01-05T15:20:11.727Z</time>
      </trkpt>
      <trkpt lat="49.58504" lon="3.68729">
        <ele>118.7</ele>
        <time>2015-01-05T15:20:12.561Z</time>
      </trkpt>
      <trkpt lat="49.58497" lon="3.68735">
        <ele>118.6</ele>
        <time>2015-01-05T15:20:18.563Z</time>
      </trkpt>
      <trkpt lat="49.58495" lon="3.68736">
        <ele>118.4</ele>
        <time>2015-01-05T15:20:19.474Z</time>
      </trkpt>
      <trkpt lat="49.58487" lon="3.68742">
        <ele>117.8</ele>
        <time>2015-01-05T15:20:26.530Z</time>
      </trkpt>
      <trkpt lat="49.58486" lon="3.68743">
        <ele>117.8</ele>
        <time>2015-01-05T15:20:27.550Z</time>
      </trkpt>
      <trkpt lat="49.58478" lon="3.68746">
        <ele>117.7</ele>
        <time>2015-01-05T15:20:34.544Z</time>
      </trkpt>
      <trkpt lat="49.58476" lon="3.68746">
        <ele>117.6</ele>
        <time>2015-01-05T15:20:35.555Z</time>
      </trkpt>
      <trkpt lat="49.58468" lon="3.68749">
        <ele>117.5</ele>
        <time>2015-01-05T15:20:41.596Z</time>
      </trkpt>
      <trkpt lat="49.58467" lon="3.68749">
        <ele>117.5</ele>
        <time>2015-01-05T15:20:42.471Z</time>
      </trkpt>
      <trkpt lat="49.58458" lon="3.68748">
        <ele>117.6</ele>
        <time>2015-01-05T15:20:49.474Z</time>
      </trkpt>
      <trkpt lat="49.58457" lon="3.68747">
        <ele>117.6</ele>
        <time>2015-01-05T15:20:50.536Z</time>
      </trkpt>
      <trkpt lat="49.58448" lon="3.68746">
        <ele>117.3</ele>
        <time>2015-01-05T15:20:58.540Z</time>
      </trkpt>
      <trkpt lat="49.58447" lon="3.68746">
        <ele>117.1</ele>
        <time>2015-01-05T15:20:59.557Z</time>
      </trkpt>
      <trkpt lat="49.58439" lon="3.68745">
        <ele>116</ele>
        <time>2015-01-05T15:21:06.730Z</time>
      </trkpt>
      <trkpt lat="49.58438" lon="3.68745">
        <ele>115.8</ele>
        <time>2015-01-05T15:21:07.473Z</time>
      </trkpt>
      <trkpt lat="49.5843" lon="3.68744">
        <ele>115.2</ele>
        <time>2015-01-05T15:21:13.469Z</time>
      </trkpt>
      <trkpt lat="49.58429" lon="3.68743">
        <ele>115.2</ele>
        <time>2015-01-05T15:21:14.537Z</time>
      </trkpt>
      <trkpt lat="49.58421" lon="3.68742">
        <ele>114.8</ele>
        <time>2015-01-05T15:21:20.535Z</time>
      </trkpt>
      <trkpt lat="49.5842" lon="3.68741">
        <ele>114.8</ele>
        <time>2015-01-05T15:21:21.545Z</time>
      </trkpt>
      <trkpt lat="49.58411" lon="3.68739">
        <ele>115.3</ele>
        <time>2015-01-05T15:21:28.545Z</time>
      </trkpt>
      <trkpt lat="49.5841" lon="3.68739">
        <ele>115.1</ele>
        <time>2015-01-05T15:21:29.551Z</time>
      </trkpt>
      <trkpt lat="49.58402" lon="3.68737">
        <ele>114.6</ele>
        <time>2015-01-05T15:21:37.510Z</time>
      </trkpt>
      <trkpt lat="49.58401" lon="3.68736">
        <ele>114.6</ele>
        <time>2015-01-05T15:21:38.538Z</time>
      </trkpt>
      <trkpt lat="49.58393" lon="3.68735">
        <ele>114.7</ele>
        <time>2015-01-05T15:21:45.546Z</time>
      </trkpt>
      <trkpt lat="49.58392" lon="3.68735">
        <ele>114.6</ele>
        <time>2015-01-05T15:21:46.552Z</time>
      </trkpt>
      <trkpt lat="49.58384" lon="3.68732">
        <ele>114.4</ele>
        <time>2015-01-05T15:21:53.558Z</time>
      </trkpt>
      <trkpt lat="49.58382" lon="3.68732">
        <ele>114.5</ele>
        <time>2015-01-05T15:21:54.471Z</time>
      </trkpt>
      <trkpt lat="49.58374" lon="3.6873">
        <ele>114.3</ele>
        <time>2015-01-05T15:22:02.199Z</time>
      </trkpt>
      <trkpt lat="49.58373" lon="3.6873">
        <ele>114.4</ele>
        <time>2015-01-05T15:22:02.540Z</time>
      </trkpt>
      <trkpt lat="49.58364" lon="3.6873">
        <ele>114.7</ele>
        <time>2015-01-05T15:22:08.537Z</time>
      </trkpt>
      <trkpt lat="49.58363" lon="3.6873">
        <ele>114.5</ele>
        <time>2015-01-05T15:22:09.535Z</time>
      </trkpt>
      <trkpt lat="49.58355" lon="3.6873">
        <ele>114.5</ele>
        <time>2015-01-05T15:22:15.541Z</time>
      </trkpt>
      <trkpt lat="49.58354" lon="3.6873">
        <ele>114.6</ele>
        <time>2015-01-05T15:22:16.547Z</time>
      </trkpt>
      <trkpt lat="49.58345" lon="3.68727">
        <ele>114.4</ele>
        <time>2015-01-05T15:22:24.472Z</time>
      </trkpt>
      <trkpt lat="49.58344" lon="3.68727">
        <ele>114.3</ele>
        <time>2015-01-05T15:22:25.474Z</time>
      </trkpt>
      <trkpt lat="49.58335" lon="3.68725">
        <ele>114</ele>
        <time>2015-01-05T15:22:32.533Z</time>
      </trkpt>
      <trkpt lat="49.58334" lon="3.68725">
        <ele>114</ele>
        <time>2015-01-05T15:22:33.533Z</time>
      </trkpt>
      <trkpt lat="49.58325" lon="3.68722">
        <ele>113.1</ele>
        <time>2015-01-05T15:22:40.541Z</time>
      </trkpt>
      <trkpt lat="49.58324" lon="3.68722">
        <ele>113.1</ele>
        <time>2015-01-05T15:22:41.550Z</time>
      </trkpt>
      <trkpt lat="49.58316" lon="3.6872">
        <ele>112.6</ele>
        <time>2015-01-05T15:22:48.466Z</time>
      </trkpt>
      <trkpt lat="49.58315" lon="3.6872">
        <ele>112.6</ele>
        <time>2015-01-05T15:22:49.475Z</time>
      </trkpt>
      <trkpt lat="49.58306" lon="3.68718">
        <ele>112.9</ele>
        <time>2015-01-05T15:22:56.675Z</time>
      </trkpt>
      <trkpt lat="49.58305" lon="3.68717">
        <ele>113.4</ele>
        <time>2015-01-05T15:22:57.523Z</time>
      </trkpt>
      <trkpt lat="49.58297" lon="3.68715">
        <ele>113.8</ele>
        <time>2015-01-05T15:23:04.528Z</time>
      </trkpt>
      <trkpt lat="49.58296" lon="3.68714">
        <ele>113.6</ele>
        <time>2015-01-05T15:23:05.540Z</time>
      </trkpt>
      <trkpt lat="49.58288" lon="3.68711">
        <ele>113.2</ele>
        <time>2015-01-05T15:23:12.519Z</time>
      </trkpt>
      <trkpt lat="49.58286" lon="3.68711">
        <ele>113.2</ele>
        <time>2015-01-05T15:23:13.531Z</time>
      </trkpt>
      <trkpt lat="49.58279" lon="3.6871">
        <ele>113.6</ele>
        <time>2015-01-05T15:23:19.469Z</time>
      </trkpt>
      <trkpt lat="49.58277" lon="3.68709">
        <ele>113.3</ele>
        <time>2015-01-05T15:23:20.522Z</time>
      </trkpt>
      <trkpt lat="49.58268" lon="3.68708">
        <ele>112.6</ele>
        <time>2015-01-05T15:23:27.533Z</time>
      </trkpt>
      <trkpt lat="49.58267" lon="3.68707">
        <ele>112.4</ele>
        <time>2015-01-05T15:23:28.540Z</time>
      </trkpt>
      <trkpt lat="49.58259" lon="3.68705">
        <ele>111.4</ele>
        <time>2015-01-05T15:23:35.538Z</time>
      </trkpt>
      <trkpt lat="49.58258" lon="3.68705">
        <ele>111.3</ele>
        <time>2015-01-05T15:23:36.554Z</time>
      </trkpt>
      <trkpt lat="49.5825" lon="3.68703">
        <ele>111.4</ele>
        <time>2015-01-05T15:23:42.466Z</time>
      </trkpt>
      <trkpt lat="49.58248" lon="3.68702">
        <ele>112.2</ele>
        <time>2015-01-05T15:23:43.463Z</time>
      </trkpt>
      <trkpt lat="49.5824" lon="3.687">
        <ele>112</ele>
        <time>2015-01-05T15:23:50.510Z</time>
      </trkpt>
      <trkpt lat="49.58239" lon="3.68699">
        <ele>111.8</ele>
        <time>2015-01-05T15:23:51.514Z</time>
      </trkpt>
      <trkpt lat="49.58231" lon="3.68699">
        <ele>110.8</ele>
        <time>2015-01-05T15:23:57.455Z</time>
      </trkpt>
      <trkpt lat="49.58229" lon="3.68699">
        <ele>110.9</ele>
        <time>2015-01-05T15:23:58.458Z</time>
      </trkpt>
      <trkpt lat="49.58221" lon="3.68697">
        <ele>111</ele>
        <time>2015-01-05T15:24:05.538Z</time>
      </trkpt>
      <trkpt lat="49.5822" lon="3.68697">
        <ele>110.9</ele>
        <time>2015-01-05T15:24:06.452Z</time>
      </trkpt>
      <trkpt lat="49.58211" lon="3.68696">
        <ele>110.5</ele>
        <time>2015-01-05T15:24:13.537Z</time>
      </trkpt>
      <trkpt lat="49.5821" lon="3.68696">
        <ele>110.4</ele>
        <time>2015-01-05T15:24:14.544Z</time>
      </trkpt>
      <trkpt lat="49.58202" lon="3.68694">
        <ele>110.1</ele>
        <time>2015-01-05T15:24:21.858Z</time>
      </trkpt>
      <trkpt lat="49.582" lon="3.68694">
        <ele>110.2</ele>
        <time>2015-01-05T15:24:22.531Z</time>
      </trkpt>
      <trkpt lat="49.58192" lon="3.68695">
        <ele>110.5</ele>
        <time>2015-01-05T15:24:28.467Z</time>
      </trkpt>
      <trkpt lat="49.58191" lon="3.68694">
        <ele>110.4</ele>
        <time>2015-01-05T15:24:29.474Z</time>
      </trkpt>
      <trkpt lat="49.58183" lon="3.68693">
        <ele>109.9</ele>
        <time>2015-01-05T15:24:36.710Z</time>
      </trkpt>
      <trkpt lat="49.58182" lon="3.68693">
        <ele>109.9</ele>
        <time>2015-01-05T15:24:37.463Z</time>
      </trkpt>
      <trkpt lat="49.58173" lon="3.68694">
        <ele>109.5</ele>
        <time>2015-01-05T15:24:44.525Z</time>
      </trkpt>
      <trkpt lat="49.58172" lon="3.68693">
        <ele>109.4</ele>
        <time>2015-01-05T15:24:45.531Z</time>
      </trkpt>
      <trkpt lat="49.58164" lon="3.68694">
        <ele>108.7</ele>
        <time>2015-01-05T15:24:52.538Z</time>
      </trkpt>
      <trkpt lat="49.58163" lon="3.68694">
        <ele>108.6</ele>
        <time>2015-01-05T15:24:53.550Z</time>
      </trkpt>
      <trkpt lat="49.58154" lon="3.68693">
        <ele>108.4</ele>
        <time>2015-01-05T15:25:02.557Z</time>
      </trkpt>
      <trkpt lat="49.58153" lon="3.68693">
        <ele>108.4</ele>
        <time>2015-01-05T15:25:03.451Z</time>
      </trkpt>
      <trkpt lat="49.58145" lon="3.68697">
        <ele>108.5</ele>
        <time>2015-01-05T15:25:09.524Z</time>
      </trkpt>
      <trkpt lat="49.58144" lon="3.68698">
        <ele>108.2</ele>
        <time>2015-01-05T15:25:10.530Z</time>
      </trkpt>
      <trkpt lat="49.58137" lon="3.68702">
        <ele>108.3</ele>
        <time>2015-01-05T15:25:17.164Z</time>
      </trkpt>
      <trkpt lat="49.58135" lon="3.68703">
        <ele>108.3</ele>
        <time>2015-01-05T15:25:17.471Z</time>
      </trkpt>
      <trkpt lat="49.58127" lon="3.68708">
        <ele>107.6</ele>
        <time>2015-01-05T15:25:25.463Z</time>
      </trkpt>
      <trkpt lat="49.58126" lon="3.68708">
        <ele>107.6</ele>
        <time>2015-01-05T15:25:26.535Z</time>
      </trkpt>
      <trkpt lat="49.58119" lon="3.68714">
        <ele>107.6</ele>
        <time>2015-01-05T15:25:33.532Z</time>
      </trkpt>
      <trkpt lat="49.58118" lon="3.68714">
        <ele>107.6</ele>
        <time>2015-01-05T15:25:34.538Z</time>
      </trkpt>
      <trkpt lat="49.5811" lon="3.6872">
        <ele>107.5</ele>
        <time>2015-01-05T15:25:42.462Z</time>
      </trkpt>
      <trkpt lat="49.58109" lon="3.68721">
        <ele>107.5</ele>
        <time>2015-01-05T15:25:43.454Z</time>
      </trkpt>
      <trkpt lat="49.58102" lon="3.68727">
        <ele>106.9</ele>
        <time>2015-01-05T15:25:50.523Z</time>
      </trkpt>
      <trkpt lat="49.58101" lon="3.68729">
        <ele>106.9</ele>
        <time>2015-01-05T15:25:51.523Z</time>
      </trkpt>
      <trkpt lat="49.58094" lon="3.68734">
        <ele>107.1</ele>
        <time>2015-01-05T15:25:58.461Z</time>
      </trkpt>
      <trkpt lat="49.58092" lon="3.68735">
        <ele>107.2</ele>
        <time>2015-01-05T15:25:59.473Z</time>
      </trkpt>
      <trkpt lat="49.58086" lon="3.68742">
        <ele>107.7</ele>
        <time>2015-01-05T15:26:05.462Z</time>
      </trkpt>
      <trkpt lat="49.58084" lon="3.68743">
        <ele>107.8</ele>
        <time>2015-01-05T15:26:06.461Z</time>
      </trkpt>
      <trkpt lat="49.58077" lon="3.68748">
        <ele>108.4</ele>
        <time>2015-01-05T15:26:12.542Z</time>
      </trkpt>
      <trkpt lat="49.58076" lon="3.6875">
        <ele>108.3</ele>
        <time>2015-01-05T15:26:13.545Z</time>
      </trkpt>
      <trkpt lat="49.58069" lon="3.68756">
        <ele>108.7</ele>
        <time>2015-01-05T15:26:18.504Z</time>
      </trkpt>
      <trkpt lat="49.58068" lon="3.68758">
        <ele>108.8</ele>
        <time>2015-01-05T15:26:19.512Z</time>
      </trkpt>
      <trkpt lat="49.5806" lon="3.68764">
        <ele>109.2</ele>
        <time>2015-01-05T15:26:26.571Z</time>
      </trkpt>
      <trkpt lat="49.58059" lon="3.68765">
        <ele>109.2</ele>
        <time>2015-01-05T15:26:27.528Z</time>
      </trkpt>
      <trkpt lat="49.58051" lon="3.6877">
        <ele>109.3</ele>
        <time>2015-01-05T15:26:34.465Z</time>
      </trkpt>
      <trkpt lat="49.5805" lon="3.68771">
        <ele>109.4</ele>
        <time>2015-01-05T15:26:35.471Z</time>
      </trkpt>
      <trkpt lat="49.58042" lon="3.68776">
        <ele>109.8</ele>
        <time>2015-01-05T15:26:41.604Z</time>
      </trkpt>
      <trkpt lat="49.58041" lon="3.68777">
        <ele>109.8</ele>
        <time>2015-01-05T15:26:42.543Z</time>
      </trkpt>
      <trkpt lat="49.58033" lon="3.68781">
        <ele>110.1</ele>
        <time>2015-01-05T15:26:49.495Z</time>
      </trkpt>
      <trkpt lat="49.58032" lon="3.68781">
        <ele>110.1</ele>
        <time>2015-01-05T15:26:50.510Z</time>
      </trkpt>
      <trkpt lat="49.58024" lon="3.68785">
        <ele>109.7</ele>
        <time>2015-01-05T15:26:58.540Z</time>
      </trkpt>
      <trkpt lat="49.58023" lon="3.68785">
        <ele>109.7</ele>
        <time>2015-01-05T15:26:59.546Z</time>
      </trkpt>
      <trkpt lat="49.58015" lon="3.68789">
        <ele>109.7</ele>
        <time>2015-01-05T15:27:06.782Z</time>
      </trkpt>
      <trkpt lat="49.58014" lon="3.6879">
        <ele>109.8</ele>
        <time>2015-01-05T15:27:07.462Z</time>
      </trkpt>
      <trkpt lat="49.58007" lon="3.68794">
        <ele>110.3</ele>
        <time>2015-01-05T15:27:13.493Z</time>
      </trkpt>
      <trkpt lat="49.58006" lon="3.68795">
        <ele>110.3</ele>
        <time>2015-01-05T15:27:14.524Z</time>
      </trkpt>
      <trkpt lat="49.57998" lon="3.68799">
        <ele>110.6</ele>
        <time>2015-01-05T15:27:22.535Z</time>
      </trkpt>
      <trkpt lat="49.57997" lon="3.68799">
        <ele>110.8</ele>
        <time>2015-01-05T15:27:23.545Z</time>
      </trkpt>
      <trkpt lat="49.57996" lon="3.688">
        <ele>110.8</ele>
        <time>2015-01-05T15:27:24.551Z</time>
      </trkpt>
      <trkpt lat="49.57996" lon="3.688">
        <ele>110.7</ele>
        <time>2015-01-05T15:27:25.463Z</time>
      </trkpt>
      <trkpt lat="49.57996" lon="3.688">
        <ele>110.7</ele>
        <time>2015-01-05T15:27:30.468Z</time>
      </trkpt>
      <trkpt lat="49.57995" lon="3.68801">
        <ele>110.7</ele>
        <time>2015-01-05T15:27:31.479Z</time>
      </trkpt>
      <trkpt lat="49.57987" lon="3.68805">
        <ele>110</ele>
        <time>2015-01-05T15:27:38.522Z</time>
      </trkpt>
      <trkpt lat="49.57986" lon="3.68806">
        <ele>110.2</ele>
        <time>2015-01-05T15:27:39.524Z</time>
      </trkpt>
      <trkpt lat="49.57978" lon="3.68812">
        <ele>111</ele>
        <time>2015-01-05T15:27:49.552Z</time>
      </trkpt>
      <trkpt lat="49.57977" lon="3.68812">
        <ele>111</ele>
        <time>2015-01-05T15:27:50.574Z</time>
      </trkpt>
      <trkpt lat="49.57969" lon="3.68814">
        <ele>110.7</ele>
        <time>2015-01-05T15:27:58.539Z</time>
      </trkpt>
      <trkpt lat="49.57968" lon="3.68814">
        <ele>110.6</ele>
        <time>2015-01-05T15:27:59.544Z</time>
      </trkpt>
      <trkpt lat="49.5796" lon="3.68818">
        <ele>110.3</ele>
        <time>2015-01-05T15:28:05.540Z</time>
      </trkpt>
      <trkpt lat="49.57959" lon="3.68818">
        <ele>110.3</ele>
        <time>2015-01-05T15:28:06.546Z</time>
      </trkpt>
      <trkpt lat="49.5795" lon="3.68818">
        <ele>110.2</ele>
        <time>2015-01-05T15:28:13.461Z</time>
      </trkpt>
      <trkpt lat="49.57949" lon="3.68818">
        <ele>110.1</ele>
        <time>2015-01-05T15:28:14.524Z</time>
      </trkpt>
      <trkpt lat="49.57941" lon="3.68816">
        <ele>110.8</ele>
        <time>2015-01-05T15:28:22.532Z</time>
      </trkpt>
      <trkpt lat="49.5794" lon="3.68815">
        <ele>110.8</ele>
        <time>2015-01-05T15:28:23.539Z</time>
      </trkpt>
      <trkpt lat="49.57932" lon="3.6881">
        <ele>111.6</ele>
        <time>2015-01-05T15:28:31.800Z</time>
      </trkpt>
      <trkpt lat="49.57931" lon="3.68809">
        <ele>111.6</ele>
        <time>2015-01-05T15:28:32.547Z</time>
      </trkpt>
      <trkpt lat="49.57924" lon="3.68803">
        <ele>111.3</ele>
        <time>2015-01-05T15:28:39.534Z</time>
      </trkpt>
      <trkpt lat="49.57923" lon="3.68802">
        <ele>111.4</ele>
        <time>2015-01-05T15:28:40.538Z</time>
      </trkpt>
      <trkpt lat="49.57917" lon="3.68792">
        <ele>110.6</ele>
        <time>2015-01-05T15:28:50.570Z</time>
      </trkpt>
      <trkpt lat="49.57916" lon="3.6879">
        <ele>110.6</ele>
        <time>2015-01-05T15:28:51.465Z</time>
      </trkpt>
      <trkpt lat="49.57912" lon="3.6878">
        <ele>111.2</ele>
        <time>2015-01-05T15:28:58.526Z</time>
      </trkpt>
      <trkpt lat="49.57911" lon="3.68779">
        <ele>111</ele>
        <time>2015-01-05T15:28:59.533Z</time>
      </trkpt>
      <trkpt lat="49.57905" lon="3.68768">
        <ele>110.8</ele>
        <time>2015-01-05T15:29:08.520Z</time>
      </trkpt>
      <trkpt lat="49.57905" lon="3.68767">
        <ele>110.8</ele>
        <time>2015-01-05T15:29:09.524Z</time>
      </trkpt>
      <trkpt lat="49.57901" lon="3.68756">
        <ele>110.7</ele>
        <time>2015-01-05T15:29:18.455Z</time>
      </trkpt>
      <trkpt lat="49.57901" lon="3.68754">
        <ele>110.7</ele>
        <time>2015-01-05T15:29:19.459Z</time>
      </trkpt>
      <trkpt lat="49.579" lon="3.68752">
        <ele>110.6</ele>
        <time>2015-01-05T15:29:22.427Z</time>
      </trkpt>
    </trkseg>
  </trk>
</gpx>